<?xml version='1.0' encoding='UTF-8'?><gpx version="1.1" creator="JPX - https://github.com/jenetics/jpx" xmlns="http://www.topografix.com/GPX/1/1"><trk><trkseg><trkpt lat="35.27753786989728" lon="-120.66253870061045"><ele>65.0</ele><time>2026-04-19T20:23:53.001Z</time></trkpt><trkpt lat="35.27755489064661" lon="-120.66262181207739"><ele>65.0</ele><time>2026-04-19T20:24:06.001Z</time></trkpt><trkpt lat="35.27760575303947" lon="-120.66268035598826"><ele>65.0</ele><time>2026-04-19T20:24:11.001Z</time></trkpt><trkpt lat="35.277685541088665" lon="-120.66264044026019"><ele>65.0</ele><time>2026-04-19T20:24:16.001Z</time></trkpt><trkpt lat="35.277756979979586" lon="-120.66255066743432"><ele>65.0</ele><time>2026-04-19T20:24:19.001Z</time></trkpt><trkpt lat="35.27781793165575" lon="-120.66245649515386"><ele>65.0</ele><time>2026-04-19T20:24:21.001Z</time></trkpt><trkpt lat="35.27787717219798" lon="-120.66237024820299"><ele>65.0</ele><time>2026-04-19T20:24:23.001Z</time></trkpt><trkpt lat="35.2779021434272" lon="-120.66226070680898"><ele>65.0</ele><time>2026-04-19T20:24:25.001Z</time></trkpt><trkpt lat="35.27794869716338" lon="-120.66215424692338"><ele>65.0</ele><time>2026-04-19T20:24:27.001Z</time></trkpt><trkpt lat="35.27803187097852" lon="-120.66206871271069"><ele>65.0</ele><time>2026-04-19T20:24:29.001Z</time></trkpt><trkpt lat="35.278097780554255" lon="-120.66196280597332"><ele>65.0</ele><time>2026-04-19T20:24:31.001Z</time></trkpt><trkpt lat="35.27816802287611" lon="-120.66184079446666"><ele>65.2</ele><time>2026-04-19T20:24:33.001Z</time></trkpt><trkpt lat="35.278239819247815" lon="-120.6617276638533"><ele>65.4</ele><time>2026-04-19T20:24:35.001Z</time></trkpt><trkpt lat="35.27829447589933" lon="-120.66161474676312"><ele>65.6</ele><time>2026-04-19T20:24:37.001Z</time></trkpt><trkpt lat="35.278343139640896" lon="-120.66150597012124"><ele>65.8</ele><time>2026-04-19T20:24:39.001Z</time></trkpt><trkpt lat="35.278417029797666" lon="-120.66140976096132"><ele>66.0</ele><time>2026-04-19T20:24:41.001Z</time></trkpt><trkpt lat="35.27848881689151" lon="-120.66131087938655"><ele>66.0</ele><time>2026-04-19T20:24:43.001Z</time></trkpt><trkpt lat="35.27854982142012" lon="-120.66120880151081"><ele>66.0</ele><time>2026-04-19T20:24:45.001Z</time></trkpt><trkpt lat="35.27861154915704" lon="-120.66110158486276"><ele>66.0</ele><time>2026-04-19T20:24:47.001Z</time></trkpt><trkpt lat="35.278676633864215" lon="-120.6610019782746"><ele>66.0</ele><time>2026-04-19T20:24:49.001Z</time></trkpt><trkpt lat="35.27873731791638" lon="-120.66089749268907"><ele>66.0</ele><time>2026-04-19T20:24:51.001Z</time></trkpt><trkpt lat="35.27880134781378" lon="-120.66079478809563"><ele>66.39999999999999</ele><time>2026-04-19T20:24:53.001Z</time></trkpt><trkpt lat="35.2788641486998" lon="-120.6606911933969"><ele>66.8</ele><time>2026-04-19T20:24:55.001Z</time></trkpt><trkpt lat="35.27892621972098" lon="-120.66058908086556"><ele>67.19999999999999</ele><time>2026-04-19T20:24:57.001Z</time></trkpt><trkpt lat="35.27898771974765" lon="-120.66049028920753"><ele>67.6</ele><time>2026-04-19T20:24:59.001Z</time></trkpt><trkpt lat="35.27904869045318" lon="-120.66040168482971"><ele>68.0</ele><time>2026-04-19T20:25:01.001Z</time></trkpt><trkpt lat="35.27910121757564" lon="-120.66033397344209"><ele>68.4</ele><time>2026-04-19T20:25:03.001Z</time></trkpt><trkpt lat="35.279153401511884" lon="-120.66025309410695"><ele>68.8</ele><time>2026-04-19T20:25:05.001Z</time></trkpt><trkpt lat="35.279207718701095" lon="-120.66016290322256"><ele>69.2</ele><time>2026-04-19T20:25:07.001Z</time></trkpt><trkpt lat="35.279264155932175" lon="-120.66007463166356"><ele>69.6</ele><time>2026-04-19T20:25:09.001Z</time></trkpt><trkpt lat="35.27932204576917" lon="-120.65998767498851"><ele>70.0</ele><time>2026-04-19T20:25:11.001Z</time></trkpt><trkpt lat="35.27937552479532" lon="-120.65989006049557"><ele>70.0</ele><time>2026-04-19T20:25:13.001Z</time></trkpt><trkpt lat="35.2794333718425" lon="-120.65979245690644"><ele>70.0</ele><time>2026-04-19T20:25:15.001Z</time></trkpt><trkpt lat="35.279489754045606" lon="-120.65969437065313"><ele>70.0</ele><time>2026-04-19T20:25:17.001Z</time></trkpt><trkpt lat="35.27953152456269" lon="-120.65958688359534"><ele>70.0</ele><time>2026-04-19T20:25:19.001Z</time></trkpt><trkpt lat="35.279584235709876" lon="-120.6595073602059"><ele>70.0</ele><time>2026-04-19T20:25:21.001Z</time></trkpt><trkpt lat="35.27963693669586" lon="-120.65940787280226"><ele>70.0</ele><time>2026-04-19T20:25:24.001Z</time></trkpt><trkpt lat="35.279699362938686" lon="-120.65935849746663"><ele>70.0</ele><time>2026-04-19T20:25:26.001Z</time></trkpt><trkpt lat="35.27975211927062" lon="-120.65925868885584"><ele>70.0</ele><time>2026-04-19T20:25:28.002Z</time></trkpt><trkpt lat="35.27980794571153" lon="-120.65914635492484"><ele>70.0</ele><time>2026-04-19T20:25:30.002Z</time></trkpt><trkpt lat="35.279875327420235" lon="-120.65903849869379"><ele>70.0</ele><time>2026-04-19T20:25:32.001Z</time></trkpt><trkpt lat="35.279942515500096" lon="-120.6589270894032"><ele>70.0</ele><time>2026-04-19T20:25:34.001Z</time></trkpt><trkpt lat="35.280007862775044" lon="-120.65881390461387"><ele>70.0</ele><time>2026-04-19T20:25:36.001Z</time></trkpt><trkpt lat="35.2800725209317" lon="-120.65870282285411"><ele>70.0</ele><time>2026-04-19T20:25:38.001Z</time></trkpt><trkpt lat="35.280111566587415" lon="-120.65863387936601"><ele>70.0</ele><time>2026-04-19T20:25:39.001Z</time></trkpt><trkpt lat="35.280168926767246" lon="-120.65853903944759"><ele>70.0</ele><time>2026-04-19T20:25:41.001Z</time></trkpt><trkpt lat="35.280236066938535" lon="-120.6584275181054"><ele>69.83333333333333</ele><time>2026-04-19T20:25:43.001Z</time></trkpt><trkpt lat="35.280305373805355" lon="-120.65832934980449"><ele>69.66666666666666</ele><time>2026-04-19T20:25:45.001Z</time></trkpt><trkpt lat="35.28036414242498" lon="-120.65823289365814"><ele>69.5</ele><time>2026-04-19T20:25:47.001Z</time></trkpt><trkpt lat="35.280401092722805" lon="-120.65816525646349"><ele>69.33333333333333</ele><time>2026-04-19T20:25:49.001Z</time></trkpt><trkpt lat="35.280444456264064" lon="-120.65808791582634"><ele>69.16666666666667</ele><time>2026-04-19T20:25:54.001Z</time></trkpt><trkpt lat="35.28049678342458" lon="-120.6580220388538"><ele>69.0</ele><time>2026-04-19T20:25:56.001Z</time></trkpt><trkpt lat="35.28054747996573" lon="-120.65793464873188"><ele>69.4</ele><time>2026-04-19T20:25:58.001Z</time></trkpt><trkpt lat="35.28060277704066" lon="-120.65784821066657"><ele>69.80000000000001</ele><time>2026-04-19T20:26:00.001Z</time></trkpt><trkpt lat="35.280659800189824" lon="-120.65775323603364"><ele>70.19999999999999</ele><time>2026-04-19T20:26:02.001Z</time></trkpt><trkpt lat="35.28072326316319" lon="-120.65765140501547"><ele>70.6</ele><time>2026-04-19T20:26:04.001Z</time></trkpt><trkpt lat="35.28077921684743" lon="-120.65754667873553"><ele>71.0</ele><time>2026-04-19T20:26:06.001Z</time></trkpt><trkpt lat="35.280842098196835" lon="-120.65744422248568"><ele>71.6</ele><time>2026-04-19T20:26:08.001Z</time></trkpt><trkpt lat="35.280906497955066" lon="-120.65734063053908"><ele>72.19999999999999</ele><time>2026-04-19T20:26:10.001Z</time></trkpt><trkpt lat="35.28096865966877" lon="-120.6572401400914"><ele>72.80000000000001</ele><time>2026-04-19T20:26:12.001Z</time></trkpt><trkpt lat="35.28102100708135" lon="-120.65713605628288"><ele>73.4</ele><time>2026-04-19T20:26:14.001Z</time></trkpt><trkpt lat="35.28113643164287" lon="-120.65717734658767"><ele>74.0</ele><time>2026-04-19T20:26:16.001Z</time></trkpt><trkpt lat="35.28120509849287" lon="-120.65725662306598"><ele>74.0</ele><time>2026-04-19T20:26:18.001Z</time></trkpt><trkpt lat="35.281307846563095" lon="-120.65727264289445"><ele>74.0</ele><time>2026-04-19T20:26:20.001Z</time></trkpt><trkpt lat="35.28139721360398" lon="-120.65718555919773"><ele>74.0</ele><time>2026-04-19T20:26:23.001Z</time></trkpt><trkpt lat="35.281499157875835" lon="-120.6571251680324"><ele>74.0</ele><time>2026-04-19T20:26:25.001Z</time></trkpt><trkpt lat="35.281553932223" lon="-120.65705161271617"><ele>74.0</ele><time>2026-04-19T20:26:27.001Z</time></trkpt><trkpt lat="35.28161642154676" lon="-120.65701791555"><ele>74.60000000000001</ele><time>2026-04-19T20:26:39.001Z</time></trkpt><trkpt lat="35.281789230615495" lon="-120.65705347504108"><ele>75.2</ele><time>2026-04-19T20:30:36.001Z</time></trkpt><trkpt lat="35.281853025606246" lon="-120.65707657616245"><ele>75.80000000000001</ele><time>2026-04-19T20:31:26.001Z</time></trkpt><trkpt lat="35.28191826391562" lon="-120.65708363064033"><ele>76.4</ele><time>2026-04-19T20:31:31.001Z</time></trkpt><trkpt lat="35.28200422425749" lon="-120.65709339827036"><ele>77.0</ele><time>2026-04-19T20:31:35.001Z</time></trkpt><trkpt lat="35.28211270331347" lon="-120.65706767132956"><ele>77.0</ele><time>2026-04-19T20:31:38.001Z</time></trkpt><trkpt lat="35.28215256453091" lon="-120.6569988885769"><ele>77.0</ele><time>2026-04-19T20:31:40.001Z</time></trkpt><trkpt lat="35.28220434428761" lon="-120.6569189852306"><ele>77.0</ele><time>2026-04-19T20:31:42.001Z</time></trkpt><trkpt lat="35.282251263292" lon="-120.65684774032869"><ele>77.0</ele><time>2026-04-19T20:31:44.001Z</time></trkpt><trkpt lat="35.28230133384696" lon="-120.65677886267649"><ele>77.0</ele><time>2026-04-19T20:31:46.001Z</time></trkpt><trkpt lat="35.28235401108918" lon="-120.6567123305808"><ele>77.0</ele><time>2026-04-19T20:31:48.001Z</time></trkpt><trkpt lat="35.28240708316444" lon="-120.65664460840921"><ele>76.83333333333334</ele><time>2026-04-19T20:31:50.001Z</time></trkpt><trkpt lat="35.28246039490148" lon="-120.65657144170369"><ele>76.66666666666667</ele><time>2026-04-19T20:31:52.001Z</time></trkpt><trkpt lat="35.28251792247414" lon="-120.65649495691403"><ele>76.5</ele><time>2026-04-19T20:31:54.001Z</time></trkpt><trkpt lat="35.28257185335461" lon="-120.65641681064382"><ele>76.33333333333333</ele><time>2026-04-19T20:31:56.001Z</time></trkpt><trkpt lat="35.28262616326686" lon="-120.65633915189635"><ele>76.16666666666666</ele><time>2026-04-19T20:31:58.001Z</time></trkpt><trkpt lat="35.28268166855074" lon="-120.65626427162765"><ele>76.0</ele><time>2026-04-19T20:32:00.001Z</time></trkpt><trkpt lat="35.282734636144895" lon="-120.6561927206435"><ele>76.0</ele><time>2026-04-19T20:32:02.001Z</time></trkpt><trkpt lat="35.28278370725774" lon="-120.65611553393703"><ele>76.0</ele><time>2026-04-19T20:32:04.001Z</time></trkpt><trkpt lat="35.282833355958395" lon="-120.65604241347182"><ele>76.0</ele><time>2026-04-19T20:32:06.001Z</time></trkpt><trkpt lat="35.28288591199731" lon="-120.6559724606332"><ele>76.0</ele><time>2026-04-19T20:32:08.001Z</time></trkpt><trkpt lat="35.28293731889878" lon="-120.65589107473203"><ele>76.0</ele><time>2026-04-19T20:32:10.001Z</time></trkpt><trkpt lat="35.28299555660147" lon="-120.65579841195934"><ele>76.0</ele><time>2026-04-19T20:32:12.001Z</time></trkpt><trkpt lat="35.28306045493849" lon="-120.6556983918927"><ele>76.25</ele><time>2026-04-19T20:32:14.001Z</time></trkpt><trkpt lat="35.28312972183773" lon="-120.65560126235242"><ele>76.5</ele><time>2026-04-19T20:32:16.001Z</time></trkpt><trkpt lat="35.28320376534559" lon="-120.65549561485321"><ele>76.75</ele><time>2026-04-19T20:32:18.001Z</time></trkpt><trkpt lat="35.28327537673397" lon="-120.65538658729928"><ele>77.0</ele><time>2026-04-19T20:32:20.001Z</time></trkpt><trkpt lat="35.28335083056344" lon="-120.65527806743408"><ele>77.0</ele><time>2026-04-19T20:32:22.001Z</time></trkpt><trkpt lat="35.283422808736645" lon="-120.65517250671854"><ele>77.0</ele><time>2026-04-19T20:32:24.001Z</time></trkpt><trkpt lat="35.28349557173294" lon="-120.65506810542317"><ele>77.0</ele><time>2026-04-19T20:32:26.001Z</time></trkpt><trkpt lat="35.2835682272553" lon="-120.654960506058"><ele>77.0</ele><time>2026-04-19T20:32:28.001Z</time></trkpt><trkpt lat="35.28363962651975" lon="-120.65485383534227"><ele>77.0</ele><time>2026-04-19T20:32:30.001Z</time></trkpt><trkpt lat="35.28371090878917" lon="-120.65474724520962"><ele>77.0</ele><time>2026-04-19T20:32:32.001Z</time></trkpt><trkpt lat="35.28378152085144" lon="-120.65464457212855"><ele>77.0</ele><time>2026-04-19T20:32:34.001Z</time></trkpt><trkpt lat="35.283850063979685" lon="-120.6545460254174"><ele>77.0</ele><time>2026-04-19T20:32:36.001Z</time></trkpt><trkpt lat="35.28391233560982" lon="-120.65445601982428"><ele>77.0</ele><time>2026-04-19T20:32:38.001Z</time></trkpt><trkpt lat="35.283961133118204" lon="-120.65438554848207"><ele>77.6</ele><time>2026-04-19T20:32:40.001Z</time></trkpt><trkpt lat="35.28400556208174" lon="-120.65432047401357"><ele>78.2</ele><time>2026-04-19T20:32:42.001Z</time></trkpt><trkpt lat="35.284063913615185" lon="-120.65423241021946"><ele>78.8</ele><time>2026-04-19T20:32:44.001Z</time></trkpt><trkpt lat="35.284129784617946" lon="-120.65413123731935"><ele>79.4</ele><time>2026-04-19T20:32:46.001Z</time></trkpt><trkpt lat="35.28419316271961" lon="-120.65403601979637"><ele>80.0</ele><time>2026-04-19T20:32:48.001Z</time></trkpt><trkpt lat="35.28425645039953" lon="-120.65394491639307"><ele>80.0</ele><time>2026-04-19T20:32:50.001Z</time></trkpt><trkpt lat="35.28431969125104" lon="-120.65385546111347"><ele>80.0</ele><time>2026-04-19T20:32:52.001Z</time></trkpt><trkpt lat="35.28438378125157" lon="-120.65376874462405"><ele>80.0</ele><time>2026-04-19T20:32:54.001Z</time></trkpt><trkpt lat="35.28444540227385" lon="-120.65367947052158"><ele>80.0</ele><time>2026-04-19T20:32:56.001Z</time></trkpt><trkpt lat="35.284507618965215" lon="-120.65358662797902"><ele>80.0</ele><time>2026-04-19T20:32:58.001Z</time></trkpt><trkpt lat="35.28456350429797" lon="-120.65350649283887"><ele>80.33333333333334</ele><time>2026-04-19T20:33:00.001Z</time></trkpt><trkpt lat="35.28461468177123" lon="-120.65342890859816"><ele>80.66666666666667</ele><time>2026-04-19T20:33:02.001Z</time></trkpt><trkpt lat="35.284667790991804" lon="-120.65335682696016"><ele>81.0</ele><time>2026-04-19T20:33:04.001Z</time></trkpt><trkpt lat="35.2847339255885" lon="-120.65336792474918"><ele>81.33333333333333</ele><time>2026-04-19T20:33:07.001Z</time></trkpt><trkpt lat="35.28481722347353" lon="-120.6534282464897"><ele>81.66666666666666</ele><time>2026-04-19T20:33:10.001Z</time></trkpt><trkpt lat="35.284890434769274" lon="-120.65343571211739"><ele>82.0</ele><time>2026-04-19T20:33:12.001Z</time></trkpt><trkpt lat="35.28496481177544" lon="-120.65345158362304"><ele>82.0</ele><time>2026-04-19T20:33:14.001Z</time></trkpt><trkpt lat="35.285031358397354" lon="-120.65352203018197"><ele>82.0</ele><time>2026-04-19T20:33:16.001Z</time></trkpt><trkpt lat="35.2850958415843" lon="-120.65360179133012"><ele>82.0</ele><time>2026-04-19T20:33:18.001Z</time></trkpt><trkpt lat="35.28517487300874" lon="-120.65367471857928"><ele>82.0</ele><time>2026-04-19T20:33:20.001Z</time></trkpt><trkpt lat="35.285254175270026" lon="-120.653754306967"><ele>82.0</ele><time>2026-04-19T20:33:22.001Z</time></trkpt><trkpt lat="35.28534074061777" lon="-120.6538266407339"><ele>82.0</ele><time>2026-04-19T20:33:24Z</time></trkpt><trkpt lat="35.28542287683508" lon="-120.65390705270782"><ele>82.0</ele><time>2026-04-19T20:33:26Z</time></trkpt><trkpt lat="35.28551192838329" lon="-120.65399168585566"><ele>82.0</ele><time>2026-04-19T20:33:28Z</time></trkpt><trkpt lat="35.285608462859194" lon="-120.65407727848893"><ele>82.0</ele><time>2026-04-19T20:33:30Z</time></trkpt><trkpt lat="35.2857028965722" lon="-120.65417695115589"><ele>81.66666666666666</ele><time>2026-04-19T20:33:32Z</time></trkpt><trkpt lat="35.285753480209316" lon="-120.6542272982885"><ele>81.33333333333333</ele><time>2026-04-19T20:33:33Z</time></trkpt><trkpt lat="35.28580406685176" lon="-120.65427548630997"><ele>81.0</ele><time>2026-04-19T20:33:34Z</time></trkpt><trkpt lat="35.285890835925244" lon="-120.65436328101617"><ele>80.66666666666667</ele><time>2026-04-19T20:33:36Z</time></trkpt><trkpt lat="35.28596658366658" lon="-120.65444379770078"><ele>80.33333333333334</ele><time>2026-04-19T20:33:38Z</time></trkpt><trkpt lat="35.286017483688404" lon="-120.65449001088388"><ele>80.0</ele><time>2026-04-19T20:33:41Z</time></trkpt><trkpt lat="35.28607720445261" lon="-120.65452465821727"><ele>79.8</ele><time>2026-04-19T20:33:48Z</time></trkpt><trkpt lat="35.28615044220102" lon="-120.65458763471368"><ele>79.6</ele><time>2026-04-19T20:33:51Z</time></trkpt><trkpt lat="35.28622028827932" lon="-120.65465467897614"><ele>79.4</ele><time>2026-04-19T20:33:53.001Z</time></trkpt><trkpt lat="35.286302695228706" lon="-120.65472163992555"><ele>79.2</ele><time>2026-04-19T20:33:55.001Z</time></trkpt><trkpt lat="35.286387868457226" lon="-120.6548093956553"><ele>79.0</ele><time>2026-04-19T20:33:57.001Z</time></trkpt><trkpt lat="35.28648447344882" lon="-120.65488892471349"><ele>79.6</ele><time>2026-04-19T20:33:59.001Z</time></trkpt><trkpt lat="35.28653653164931" lon="-120.65493341061658"><ele>80.2</ele><time>2026-04-19T20:34:00.001Z</time></trkpt><trkpt lat="35.28663506783209" lon="-120.6550209014147"><ele>80.8</ele><time>2026-04-19T20:34:02.001Z</time></trkpt><trkpt lat="35.286725054072505" lon="-120.65510176528386"><ele>81.39999999999999</ele><time>2026-04-19T20:34:04.001Z</time></trkpt><trkpt lat="35.28680611972268" lon="-120.65516904643555"><ele>82.0</ele><time>2026-04-19T20:34:06.001Z</time></trkpt><trkpt lat="35.286887919259065" lon="-120.65524845353586"><ele>82.6</ele><time>2026-04-19T20:34:08.001Z</time></trkpt><trkpt lat="35.28700701705163" lon="-120.6553666696082"><ele>83.19999999999999</ele><time>2026-04-19T20:34:11.001Z</time></trkpt><trkpt lat="35.287067027699194" lon="-120.65541747014775"><ele>83.8</ele><time>2026-04-19T20:34:13.001Z</time></trkpt><trkpt lat="35.287137750158195" lon="-120.65548181199998"><ele>84.4</ele><time>2026-04-19T20:34:16.001Z</time></trkpt><trkpt lat="35.28720010721132" lon="-120.6555356514471"><ele>85.0</ele><time>2026-04-19T20:34:19.001Z</time></trkpt><trkpt lat="35.287260978495006" lon="-120.65559728008455"><ele>85.83333333333333</ele><time>2026-04-19T20:34:22.001Z</time></trkpt><trkpt lat="35.28732256048004" lon="-120.65565142233845"><ele>86.66666666666666</ele><time>2026-04-19T20:34:25.001Z</time></trkpt><trkpt lat="35.28738624798548" lon="-120.65570713058693"><ele>87.5</ele><time>2026-04-19T20:34:28.001Z</time></trkpt><trkpt lat="35.287449324083184" lon="-120.65573092382746"><ele>88.33333333333333</ele><time>2026-04-19T20:34:31.001Z</time></trkpt><trkpt lat="35.28751828432801" lon="-120.65579396666604"><ele>89.16666666666667</ele><time>2026-04-19T20:34:35.001Z</time></trkpt><trkpt lat="35.28759501622287" lon="-120.65585489108477"><ele>90.0</ele><time>2026-04-19T20:34:38.001Z</time></trkpt><trkpt lat="35.28765989365963" lon="-120.65591041051667"><ele>90.0</ele><time>2026-04-19T20:34:40.001Z</time></trkpt><trkpt lat="35.28769980678731" lon="-120.65598185741537"><ele>90.0</ele><time>2026-04-19T20:34:41.001Z</time></trkpt><trkpt lat="35.28776153401022" lon="-120.65602970059767"><ele>90.0</ele><time>2026-04-19T20:34:43Z</time></trkpt><trkpt lat="35.28782587597186" lon="-120.65608379127416"><ele>90.0</ele><time>2026-04-19T20:34:45Z</time></trkpt><trkpt lat="35.287887409888135" lon="-120.65613758946483"><ele>90.0</ele><time>2026-04-19T20:34:47Z</time></trkpt><trkpt lat="35.28795421854746" lon="-120.65619403687491"><ele>90.0</ele><time>2026-04-19T20:34:49Z</time></trkpt><trkpt lat="35.2880155404875" lon="-120.65624979759208"><ele>91.16666666666667</ele><time>2026-04-19T20:34:51Z</time></trkpt><trkpt lat="35.28808229058975" lon="-120.65630447204006"><ele>92.33333333333334</ele><time>2026-04-19T20:34:53Z</time></trkpt><trkpt lat="35.288144696163215" lon="-120.65636802343363"><ele>93.5</ele><time>2026-04-19T20:34:55Z</time></trkpt><trkpt lat="35.288217825121684" lon="-120.65642925237552"><ele>94.66666666666667</ele><time>2026-04-19T20:34:57Z</time></trkpt><trkpt lat="35.28829450167381" lon="-120.65649376053156"><ele>95.83333333333334</ele><time>2026-04-19T20:34:59Z</time></trkpt><trkpt lat="35.288385920620144" lon="-120.65655866939812"><ele>97.0</ele><time>2026-04-19T20:35:01Z</time></trkpt><trkpt lat="35.28847639398725" lon="-120.65662990719376"><ele>97.0</ele><time>2026-04-19T20:35:03Z</time></trkpt><trkpt lat="35.28856311988229" lon="-120.65669516707962"><ele>97.0</ele><time>2026-04-19T20:35:05Z</time></trkpt><trkpt lat="35.28865616453719" lon="-120.65679143105031"><ele>97.0</ele><time>2026-04-19T20:35:07Z</time></trkpt><trkpt lat="35.28874888640382" lon="-120.65689720199201"><ele>97.0</ele><time>2026-04-19T20:35:09Z</time></trkpt><trkpt lat="35.288794329455136" lon="-120.65695807127462"><ele>97.0</ele><time>2026-04-19T20:35:09.999Z</time></trkpt><trkpt lat="35.288841667569876" lon="-120.65702111586127"><ele>97.16666666666667</ele><time>2026-04-19T20:35:10.999Z</time></trkpt><trkpt lat="35.28888464854754" lon="-120.65709271427009"><ele>97.33333333333334</ele><time>2026-04-19T20:35:11.999Z</time></trkpt><trkpt lat="35.28892501703149" lon="-120.65717201835517"><ele>97.5</ele><time>2026-04-19T20:35:12.999Z</time></trkpt><trkpt lat="35.28896794824949" lon="-120.65725049522348"><ele>97.66666666666666</ele><time>2026-04-19T20:35:13.999Z</time></trkpt><trkpt lat="35.28901260170822" lon="-120.65733273173447"><ele>97.83333333333333</ele><time>2026-04-19T20:35:14.999Z</time></trkpt><trkpt lat="35.28905218819449" lon="-120.6574218586256"><ele>98.0</ele><time>2026-04-19T20:35:15.999Z</time></trkpt><trkpt lat="35.28908778921496" lon="-120.65751806065252"><ele>98.0</ele><time>2026-04-19T20:35:16.999Z</time></trkpt><trkpt lat="35.289123474668315" lon="-120.6576182547067"><ele>98.0</ele><time>2026-04-19T20:35:17.999Z</time></trkpt><trkpt lat="35.28915867867602" lon="-120.65772051957454"><ele>98.0</ele><time>2026-04-19T20:35:18.999Z</time></trkpt><trkpt lat="35.289192239856824" lon="-120.65782902453219"><ele>98.0</ele><time>2026-04-19T20:35:19.999Z</time></trkpt><trkpt lat="35.28922976325362" lon="-120.6579362404561"><ele>98.0</ele><time>2026-04-19T20:35:20.999Z</time></trkpt><trkpt lat="35.289273110212925" lon="-120.65804381018485"><ele>96.60000000000001</ele><time>2026-04-19T20:35:21.999Z</time></trkpt><trkpt lat="35.2893246570023" lon="-120.65814796668586"><ele>95.2</ele><time>2026-04-19T20:35:22.999Z</time></trkpt><trkpt lat="35.28937703816695" lon="-120.65825551045337"><ele>93.8</ele><time>2026-04-19T20:35:23.999Z</time></trkpt><trkpt lat="35.28942992467758" lon="-120.65836319431209"><ele>92.4</ele><time>2026-04-19T20:35:24.999Z</time></trkpt><trkpt lat="35.28947286274634" lon="-120.65847718944316"><ele>91.0</ele><time>2026-04-19T20:35:25.999Z</time></trkpt><trkpt lat="35.28951419731377" lon="-120.65858898238275"><ele>89.8</ele><time>2026-04-19T20:35:26.999Z</time></trkpt><trkpt lat="35.28956436181643" lon="-120.65869394438968"><ele>88.6</ele><time>2026-04-19T20:35:27.999Z</time></trkpt><trkpt lat="35.28961464912445" lon="-120.6587986910766"><ele>87.4</ele><time>2026-04-19T20:35:28.999Z</time></trkpt><trkpt lat="35.2896686231747" lon="-120.65890123048138"><ele>86.2</ele><time>2026-04-19T20:35:29.999Z</time></trkpt><trkpt lat="35.28972722648303" lon="-120.65900073270132"><ele>85.0</ele><time>2026-04-19T20:35:30.999Z</time></trkpt><trkpt lat="35.28978892393502" lon="-120.65909558492943"><ele>85.0</ele><time>2026-04-19T20:35:31.999Z</time></trkpt><trkpt lat="35.28985705880202" lon="-120.65918768020299"><ele>85.0</ele><time>2026-04-19T20:35:32.999Z</time></trkpt><trkpt lat="35.289926554043404" lon="-120.65927724564611"><ele>85.0</ele><time>2026-04-19T20:35:33.999Z</time></trkpt><trkpt lat="35.28999858489346" lon="-120.6593666486445"><ele>85.0</ele><time>2026-04-19T20:35:34.999Z</time></trkpt><trkpt lat="35.290070316816994" lon="-120.6594519237813"><ele>85.0</ele><time>2026-04-19T20:35:35.999Z</time></trkpt><trkpt lat="35.290144185072634" lon="-120.65953386701565"><ele>83.8</ele><time>2026-04-19T20:35:36.999Z</time></trkpt><trkpt lat="35.29022172773577" lon="-120.65961167170151"><ele>82.6</ele><time>2026-04-19T20:35:37.999Z</time></trkpt><trkpt lat="35.29030416739155" lon="-120.6596808919941"><ele>81.4</ele><time>2026-04-19T20:35:38.999Z</time></trkpt><trkpt lat="35.29039043382809" lon="-120.65974524190453"><ele>80.2</ele><time>2026-04-19T20:35:39.999Z</time></trkpt><trkpt lat="35.29047459663419" lon="-120.65981111943307"><ele>79.0</ele><time>2026-04-19T20:35:40.999Z</time></trkpt><trkpt lat="35.29055461377756" lon="-120.6598821993885"><ele>80.0</ele><time>2026-04-19T20:35:41.999Z</time></trkpt><trkpt lat="35.29063286632671" lon="-120.65995437725516"><ele>81.0</ele><time>2026-04-19T20:35:42.999Z</time></trkpt><trkpt lat="35.290712443461075" lon="-120.66002599973503"><ele>82.0</ele><time>2026-04-19T20:35:43.999Z</time></trkpt><trkpt lat="35.29079244412857" lon="-120.66009596939497"><ele>83.0</ele><time>2026-04-19T20:35:44.999Z</time></trkpt><trkpt lat="35.290871499803586" lon="-120.66016214341035"><ele>84.0</ele><time>2026-04-19T20:35:45.999Z</time></trkpt><trkpt lat="35.29094990147119" lon="-120.66022828774375"><ele>83.6</ele><time>2026-04-19T20:35:46.999Z</time></trkpt><trkpt lat="35.29102539521058" lon="-120.66029571919262"><ele>83.2</ele><time>2026-04-19T20:35:47.999Z</time></trkpt><trkpt lat="35.29109978077253" lon="-120.66036110087448"><ele>82.8</ele><time>2026-04-19T20:35:48.999Z</time></trkpt><trkpt lat="35.29117540406058" lon="-120.66042502403836"><ele>82.39999999999999</ele><time>2026-04-19T20:35:49.999Z</time></trkpt><trkpt lat="35.2912528672682" lon="-120.6604872434368"><ele>82.0</ele><time>2026-04-19T20:35:50.999Z</time></trkpt><trkpt lat="35.291328916518665" lon="-120.66055037480922"><ele>82.0</ele><time>2026-04-19T20:35:51.999Z</time></trkpt><trkpt lat="35.29140396744472" lon="-120.66061301601161"><ele>82.0</ele><time>2026-04-19T20:35:52.999Z</time></trkpt><trkpt lat="35.291477351759895" lon="-120.66067474669956"><ele>82.0</ele><time>2026-04-19T20:35:53.999Z</time></trkpt><trkpt lat="35.291551565249065" lon="-120.66073484312744"><ele>82.0</ele><time>2026-04-19T20:35:54.999Z</time></trkpt><trkpt lat="35.29162500770694" lon="-120.66079570183828"><ele>82.0</ele><time>2026-04-19T20:35:55.999Z</time></trkpt><trkpt lat="35.29169692696376" lon="-120.66085633226194"><ele>82.0</ele><time>2026-04-19T20:35:56.999Z</time></trkpt><trkpt lat="35.29176807324358" lon="-120.66091375125173"><ele>81.83333333333333</ele><time>2026-04-19T20:35:58Z</time></trkpt><trkpt lat="35.291835601964664" lon="-120.66097209910758"><ele>81.66666666666666</ele><time>2026-04-19T20:35:59Z</time></trkpt><trkpt lat="35.29190325262577" lon="-120.66102596081706"><ele>81.5</ele><time>2026-04-19T20:36:00Z</time></trkpt><trkpt lat="35.291965794046476" lon="-120.66108395524675"><ele>81.33333333333333</ele><time>2026-04-19T20:36:01Z</time></trkpt><trkpt lat="35.29202502707656" lon="-120.66113956751968"><ele>81.16666666666667</ele><time>2026-04-19T20:36:02Z</time></trkpt><trkpt lat="35.292081174263465" lon="-120.66119590796062"><ele>81.0</ele><time>2026-04-19T20:36:03Z</time></trkpt><trkpt lat="35.29213672845862" lon="-120.66125052826577"><ele>81.0</ele><time>2026-04-19T20:36:04Z</time></trkpt><trkpt lat="35.29219356919271" lon="-120.6613025393285"><ele>81.0</ele><time>2026-04-19T20:36:05Z</time></trkpt><trkpt lat="35.29225263854502" lon="-120.66134420822725"><ele>81.0</ele><time>2026-04-19T20:36:06Z</time></trkpt><trkpt lat="35.29230913534389" lon="-120.66138957265422"><ele>81.0</ele><time>2026-04-19T20:36:07Z</time></trkpt><trkpt lat="35.292361102309094" lon="-120.66143802428759"><ele>81.0</ele><time>2026-04-19T20:36:08Z</time></trkpt><trkpt lat="35.29246148640864" lon="-120.66152825814947"><ele>81.0</ele><time>2026-04-19T20:36:10Z</time></trkpt><trkpt lat="35.29256469607667" lon="-120.66161020413008"><ele>81.5</ele><time>2026-04-19T20:36:12Z</time></trkpt><trkpt lat="35.29266524302755" lon="-120.66169566483067"><ele>82.0</ele><time>2026-04-19T20:36:14Z</time></trkpt><trkpt lat="35.29275890948092" lon="-120.66178399947027"><ele>82.5</ele><time>2026-04-19T20:36:16Z</time></trkpt><trkpt lat="35.29284534094592" lon="-120.66187392859945"><ele>83.0</ele><time>2026-04-19T20:36:18Z</time></trkpt><trkpt lat="35.29293368126754" lon="-120.6619562771701"><ele>83.0</ele><time>2026-04-19T20:36:20Z</time></trkpt><trkpt lat="35.29302323285988" lon="-120.66203398952447"><ele>83.0</ele><time>2026-04-19T20:36:22Z</time></trkpt><trkpt lat="35.293108572925725" lon="-120.66211457611661"><ele>83.0</ele><time>2026-04-19T20:36:24Z</time></trkpt><trkpt lat="35.29319863313049" lon="-120.66218928233815"><ele>83.0</ele><time>2026-04-19T20:36:26Z</time></trkpt><trkpt lat="35.29328297657309" lon="-120.66226775268572"><ele>83.0</ele><time>2026-04-19T20:36:28Z</time></trkpt><trkpt lat="35.293369343946296" lon="-120.6623358857402"><ele>83.60000000000001</ele><time>2026-04-19T20:36:30Z</time></trkpt><trkpt lat="35.293452255217446" lon="-120.66241533893401"><ele>84.2</ele><time>2026-04-19T20:36:32Z</time></trkpt><trkpt lat="35.293540583100686" lon="-120.66248883577249"><ele>84.8</ele><time>2026-04-19T20:36:34Z</time></trkpt><trkpt lat="35.293633523328424" lon="-120.66256694264989"><ele>85.4</ele><time>2026-04-19T20:36:36Z</time></trkpt><trkpt lat="35.293725565718894" lon="-120.6626520822686"><ele>86.0</ele><time>2026-04-19T20:36:38Z</time></trkpt><trkpt lat="35.293826078537826" lon="-120.6627424697575"><ele>85.85714285714286</ele><time>2026-04-19T20:36:40Z</time></trkpt><trkpt lat="35.293879007268124" lon="-120.66278608641154"><ele>85.71428571428572</ele><time>2026-04-19T20:36:41Z</time></trkpt><trkpt lat="35.293931721150464" lon="-120.66283568239912"><ele>85.57142857142858</ele><time>2026-04-19T20:36:42Z</time></trkpt><trkpt lat="35.293987735324464" lon="-120.66288555384995"><ele>85.42857142857143</ele><time>2026-04-19T20:36:43Z</time></trkpt><trkpt lat="35.29404437524452" lon="-120.66293420673239"><ele>85.28571428571428</ele><time>2026-04-19T20:36:44Z</time></trkpt><trkpt lat="35.294102344268644" lon="-120.662985726047"><ele>85.14285714285715</ele><time>2026-04-19T20:36:45Z</time></trkpt><trkpt lat="35.29416138151143" lon="-120.66303955482279"><ele>85.0</ele><time>2026-04-19T20:36:46Z</time></trkpt><trkpt lat="35.29422111446916" lon="-120.66309358547232"><ele>84.85714285714286</ele><time>2026-04-19T20:36:47Z</time></trkpt><trkpt lat="35.294282833513584" lon="-120.66314851428994"><ele>84.71428571428571</ele><time>2026-04-19T20:36:48Z</time></trkpt><trkpt lat="35.29434789218989" lon="-120.66319859523593"><ele>84.57142857142857</ele><time>2026-04-19T20:36:49Z</time></trkpt><trkpt lat="35.29441002537023" lon="-120.66324348837891"><ele>84.42857142857143</ele><time>2026-04-19T20:36:50Z</time></trkpt><trkpt lat="35.294471520269724" lon="-120.66328960264502"><ele>84.28571428571428</ele><time>2026-04-19T20:36:51Z</time></trkpt><trkpt lat="35.29453027840176" lon="-120.663335261695"><ele>84.14285714285714</ele><time>2026-04-19T20:36:52Z</time></trkpt><trkpt lat="35.294587064619925" lon="-120.66338404135449"><ele>84.0</ele><time>2026-04-19T20:36:53Z</time></trkpt><trkpt lat="35.29464063528574" lon="-120.66343131778571"><ele>84.0</ele><time>2026-04-19T20:36:54Z</time></trkpt><trkpt lat="35.29469414837241" lon="-120.66347715821723"><ele>84.0</ele><time>2026-04-19T20:36:55Z</time></trkpt><trkpt lat="35.29479636411926" lon="-120.66356484165267"><ele>84.0</ele><time>2026-04-19T20:36:56.999Z</time></trkpt><trkpt lat="35.29488152795548" lon="-120.6636369847024"><ele>84.0</ele><time>2026-04-19T20:36:58.999Z</time></trkpt><trkpt lat="35.294939975295385" lon="-120.66368814327745"><ele>84.0</ele><time>2026-04-19T20:37:01.999Z</time></trkpt><trkpt lat="35.29501117718752" lon="-120.66371500662592"><ele>84.0</ele><time>2026-04-19T20:37:14.999Z</time></trkpt><trkpt lat="35.29505829062095" lon="-120.6637709656594"><ele>84.16666666666667</ele><time>2026-04-19T20:37:17.999Z</time></trkpt><trkpt lat="35.29511424438418" lon="-120.66384173767655"><ele>84.33333333333333</ele><time>2026-04-19T20:37:20.999Z</time></trkpt><trkpt lat="35.29517052920431" lon="-120.6638979094639"><ele>84.5</ele><time>2026-04-19T20:37:22.999Z</time></trkpt><trkpt lat="35.2952313372186" lon="-120.66395884799381"><ele>84.66666666666666</ele><time>2026-04-19T20:37:24.999Z</time></trkpt><trkpt lat="35.295313119964" lon="-120.6640184518631"><ele>84.83333333333333</ele><time>2026-04-19T20:37:26.999Z</time></trkpt><trkpt lat="35.29539808008545" lon="-120.66409681717136"><ele>85.0</ele><time>2026-04-19T20:37:28.999Z</time></trkpt><trkpt lat="35.295485811453894" lon="-120.66418118269533"><ele>85.0</ele><time>2026-04-19T20:37:30.999Z</time></trkpt><trkpt lat="35.29559010915644" lon="-120.66427785451802"><ele>85.0</ele><time>2026-04-19T20:37:32.999Z</time></trkpt><trkpt lat="35.29568269973255" lon="-120.66435889993876"><ele>85.0</ele><time>2026-04-19T20:37:34.999Z</time></trkpt><trkpt lat="35.29578019907079" lon="-120.6644355972986"><ele>85.0</ele><time>2026-04-19T20:37:36.999Z</time></trkpt><trkpt lat="35.29587165282253" lon="-120.6645080833047"><ele>85.0</ele><time>2026-04-19T20:37:38.999Z</time></trkpt><trkpt lat="35.29596544092563" lon="-120.66457141721247"><ele>85.0</ele><time>2026-04-19T20:37:40.999Z</time></trkpt><trkpt lat="35.29604772005269" lon="-120.66462986552308"><ele>85.0</ele><time>2026-04-19T20:37:42.999Z</time></trkpt><trkpt lat="35.29611644611093" lon="-120.66467180217187"><ele>85.0</ele><time>2026-04-19T20:37:44.999Z</time></trkpt><trkpt lat="35.29617300099968" lon="-120.66471473715278"><ele>85.0</ele><time>2026-04-19T20:37:46.999Z</time></trkpt><trkpt lat="35.29624464688307" lon="-120.6647895927035"><ele>85.0</ele><time>2026-04-19T20:37:49.999Z</time></trkpt><trkpt lat="35.296312365007815" lon="-120.66482857087273"><ele>85.0</ele><time>2026-04-19T20:37:51.999Z</time></trkpt><trkpt lat="35.29639244003173" lon="-120.66483827281563"><ele>85.0</ele><time>2026-04-19T20:37:53.999Z</time></trkpt><trkpt lat="35.29645341491514" lon="-120.6647655248499"><ele>85.0</ele><time>2026-04-19T20:37:55.999Z</time></trkpt><trkpt lat="35.296492100159966" lon="-120.66469995058203"><ele>85.0</ele><time>2026-04-19T20:37:57.999Z</time></trkpt><trkpt lat="35.29653823865495" lon="-120.66459692317396"><ele>85.0</ele><time>2026-04-19T20:38:00.999Z</time></trkpt><trkpt lat="35.296571652496574" lon="-120.66452889306649"><ele>85.0</ele><time>2026-04-19T20:38:02.999Z</time></trkpt><trkpt lat="35.296605770706684" lon="-120.66446181001442"><ele>86.0</ele><time>2026-04-19T20:38:05Z</time></trkpt><trkpt lat="35.296635848863914" lon="-120.66439123147065"><ele>87.0</ele><time>2026-04-19T20:38:07Z</time></trkpt><trkpt lat="35.29667107166385" lon="-120.66432027233182"><ele>88.0</ele><time>2026-04-19T20:38:09Z</time></trkpt><trkpt lat="35.29670544433788" lon="-120.66424925612608"><ele>89.0</ele><time>2026-04-19T20:38:12Z</time></trkpt><trkpt lat="35.296738338793595" lon="-120.66417838739144"><ele>90.0</ele><time>2026-04-19T20:38:14Z</time></trkpt><trkpt lat="35.29678947653281" lon="-120.66406549172733"><ele>91.0</ele><time>2026-04-19T20:38:16Z</time></trkpt><trkpt lat="35.2968222017461" lon="-120.66398835308172"><ele>92.0</ele><time>2026-04-19T20:38:18Z</time></trkpt><trkpt lat="35.296855316574614" lon="-120.6639089224445"><ele>92.0</ele><time>2026-04-19T20:38:20Z</time></trkpt><trkpt lat="35.296891640197494" lon="-120.66383085547838"><ele>92.0</ele><time>2026-04-19T20:38:22Z</time></trkpt><trkpt lat="35.29693808539135" lon="-120.66373880912927"><ele>92.0</ele><time>2026-04-19T20:38:24Z</time></trkpt><trkpt lat="35.29698062148753" lon="-120.66365543408145"><ele>92.0</ele><time>2026-04-19T20:38:26Z</time></trkpt><trkpt lat="35.29701657786351" lon="-120.66358112940111"><ele>92.0</ele><time>2026-04-19T20:38:28Z</time></trkpt><trkpt lat="35.297061194212205" lon="-120.66351965937977"><ele>92.0</ele><time>2026-04-19T20:38:30Z</time></trkpt><trkpt lat="35.297110787545286" lon="-120.66346892088373"><ele>92.0</ele><time>2026-04-19T20:38:32Z</time></trkpt><trkpt lat="35.29718309930052" lon="-120.66340728087943"><ele>92.16666666666667</ele><time>2026-04-19T20:38:35Z</time></trkpt><trkpt lat="35.29724258904361" lon="-120.66335281479809"><ele>92.33333333333334</ele><time>2026-04-19T20:38:38Z</time></trkpt><trkpt lat="35.29731281902663" lon="-120.66330774952287"><ele>92.5</ele><time>2026-04-19T20:38:41Z</time></trkpt><trkpt lat="35.29739532697156" lon="-120.66325898208535"><ele>92.66666666666667</ele><time>2026-04-19T20:38:44Z</time></trkpt><trkpt lat="35.29747977944955" lon="-120.66322310061791"><ele>92.83333333333333</ele><time>2026-04-19T20:38:46.999Z</time></trkpt><trkpt lat="35.29755543362591" lon="-120.66316922769977"><ele>93.0</ele><time>2026-04-19T20:38:49.999Z</time></trkpt><trkpt lat="35.297609086249786" lon="-120.66312663673612"><ele>94.00000000000001</ele><time>2026-04-19T20:38:51.999Z</time></trkpt><trkpt lat="35.29766609983104" lon="-120.66308232267325"><ele>95.0</ele><time>2026-04-19T20:38:53.999Z</time></trkpt><trkpt lat="35.29771951461168" lon="-120.66303031699712"><ele>96.0</ele><time>2026-04-19T20:38:55.999Z</time></trkpt><trkpt lat="35.297759417847715" lon="-120.66296361604236"><ele>97.0</ele><time>2026-04-19T20:38:57.999Z</time></trkpt><trkpt lat="35.297773760886706" lon="-120.66288557260756"><ele>98.0</ele><time>2026-04-19T20:38:59.999Z</time></trkpt><trkpt lat="35.29774984807012" lon="-120.66278145876332"><ele>99.00000000000001</ele><time>2026-04-19T20:39:02.999Z</time></trkpt><trkpt lat="35.29770637042808" lon="-120.6627112387559"><ele>100.0</ele><time>2026-04-19T20:39:04.999Z</time></trkpt><trkpt lat="35.29767124527956" lon="-120.66263922812168"><ele>100.00000000000001</ele><time>2026-04-19T20:39:06.999Z</time></trkpt><trkpt lat="35.29762965114069" lon="-120.66257384576188"><ele>100.0</ele><time>2026-04-19T20:39:08.999Z</time></trkpt><trkpt lat="35.29757992729403" lon="-120.66249633221337"><ele>100.0</ele><time>2026-04-19T20:39:10.999Z</time></trkpt><trkpt lat="35.297524747606026" lon="-120.66241694679223"><ele>100.0</ele><time>2026-04-19T20:39:12.999Z</time></trkpt><trkpt lat="35.29745473263827" lon="-120.66234568860223"><ele>100.00000000000001</ele><time>2026-04-19T20:39:14.999Z</time></trkpt><trkpt lat="35.29737147955846" lon="-120.6622786235224"><ele>100.0</ele><time>2026-04-19T20:39:16.999Z</time></trkpt><trkpt lat="35.29730095950283" lon="-120.66218763589954"><ele>100.0</ele><time>2026-04-19T20:39:18.999Z</time></trkpt><trkpt lat="35.297331237270704" lon="-120.66206034575895"><ele>100.0</ele><time>2026-04-19T20:39:20.999Z</time></trkpt><trkpt lat="35.297380139890464" lon="-120.66195609822749"><ele>100.0</ele><time>2026-04-19T20:39:22.999Z</time></trkpt><trkpt lat="35.29741422133573" lon="-120.6618410088465"><ele>100.0</ele><time>2026-04-19T20:39:24.999Z</time></trkpt><trkpt lat="35.297448175332626" lon="-120.66172980574422"><ele>100.0</ele><time>2026-04-19T20:39:26.999Z</time></trkpt><trkpt lat="35.29747570771931" lon="-120.66162446764707"><ele>100.33333333333334</ele><time>2026-04-19T20:39:28.999Z</time></trkpt><trkpt lat="35.297506250141204" lon="-120.66152624134146"><ele>100.66666666666667</ele><time>2026-04-19T20:39:30.999Z</time></trkpt><trkpt lat="35.29754212638994" lon="-120.66143090625204"><ele>101.0</ele><time>2026-04-19T20:39:32.999Z</time></trkpt><trkpt lat="35.297573298470766" lon="-120.66133256629827"><ele>101.33333333333334</ele><time>2026-04-19T20:39:34.999Z</time></trkpt><trkpt lat="35.297606653571464" lon="-120.66123409174523"><ele>101.66666666666667</ele><time>2026-04-19T20:39:36.999Z</time></trkpt><trkpt lat="35.29764647351825" lon="-120.66113910642785"><ele>102.0</ele><time>2026-04-19T20:39:38.999Z</time></trkpt><trkpt lat="35.297690797994306" lon="-120.66105211274032"><ele>102.0</ele><time>2026-04-19T20:39:40.999Z</time></trkpt><trkpt lat="35.297717798407334" lon="-120.66095304650248"><ele>102.0</ele><time>2026-04-19T20:39:42.999Z</time></trkpt><trkpt lat="35.29776386448558" lon="-120.66085176155882"><ele>102.0</ele><time>2026-04-19T20:39:44.999Z</time></trkpt><trkpt lat="35.29784190544165" lon="-120.6607695642717"><ele>102.0</ele><time>2026-04-19T20:39:46.999Z</time></trkpt><trkpt lat="35.297926787436225" lon="-120.66069028192662"><ele>102.0</ele><time>2026-04-19T20:39:48.999Z</time></trkpt><trkpt lat="35.29803134008919" lon="-120.66068985164382"><ele>102.39999999999999</ele><time>2026-04-19T20:39:50.999Z</time></trkpt><trkpt lat="35.29813403541053" lon="-120.66073345365994"><ele>102.8</ele><time>2026-04-19T20:39:52.999Z</time></trkpt><trkpt lat="35.2982016725126" lon="-120.66069801356076"><ele>103.2</ele><time>2026-04-19T20:39:53.999Z</time></trkpt><trkpt lat="35.29832123107443" lon="-120.66074396059132"><ele>103.6</ele><time>2026-04-19T20:39:55.999Z</time></trkpt><trkpt lat="35.298383241551804" lon="-120.66078566450449"><ele>104.0</ele><time>2026-04-19T20:39:56.999Z</time></trkpt><trkpt lat="35.29843482134556" lon="-120.66086253903846"><ele>104.0</ele><time>2026-04-19T20:39:57.999Z</time></trkpt><trkpt lat="35.29848501742647" lon="-120.66092793788351"><ele>104.0</ele><time>2026-04-19T20:39:58.999Z</time></trkpt><trkpt lat="35.29854520297873" lon="-120.66096629443314"><ele>104.0</ele><time>2026-04-19T20:39:59.999Z</time></trkpt><trkpt lat="35.29861096739783" lon="-120.66096692471577"><ele>104.0</ele><time>2026-04-19T20:40:00.999Z</time></trkpt><trkpt lat="35.29867426783568" lon="-120.66098488010988"><ele>104.0</ele><time>2026-04-19T20:40:01.999Z</time></trkpt><trkpt lat="35.29874484837186" lon="-120.66102067051946"><ele>104.0</ele><time>2026-04-19T20:40:03.999Z</time></trkpt><trkpt lat="35.29879865484836" lon="-120.66095893675843"><ele>104.0</ele><time>2026-04-19T20:40:06.999Z</time></trkpt><trkpt lat="35.29881249875338" lon="-120.66087836246119"><ele>103.99999999999999</ele><time>2026-04-19T20:40:08.999Z</time></trkpt><trkpt lat="35.29883263158324" lon="-120.66078880555494"><ele>104.0</ele><time>2026-04-19T20:40:11Z</time></trkpt><trkpt lat="35.29886354694092" lon="-120.660704867847"><ele>104.0</ele><time>2026-04-19T20:40:13Z</time></trkpt><trkpt lat="35.29888094370624" lon="-120.66059613254319"><ele>104.0</ele><time>2026-04-19T20:40:15Z</time></trkpt><trkpt lat="35.29890682820211" lon="-120.66047837209605"><ele>103.99999999999999</ele><time>2026-04-19T20:40:17Z</time></trkpt><trkpt lat="35.29893390253755" lon="-120.66036762521293"><ele>104.0</ele><time>2026-04-19T20:40:19Z</time></trkpt><trkpt lat="35.29894816305106" lon="-120.66026822181605"><ele>104.99999999999999</ele><time>2026-04-19T20:40:21Z</time></trkpt><trkpt lat="35.29894983372789" lon="-120.66016883145936"><ele>106.0</ele><time>2026-04-19T20:40:24Z</time></trkpt><trkpt lat="35.29898062612428" lon="-120.6600968586264"><ele>107.0</ele><time>2026-04-19T20:40:25Z</time></trkpt><trkpt lat="35.29899398633885" lon="-120.6600042102744"><ele>108.0</ele><time>2026-04-19T20:40:28Z</time></trkpt><trkpt lat="35.29899241650195" lon="-120.6599239612365"><ele>108.99999999999999</ele><time>2026-04-19T20:40:30Z</time></trkpt><trkpt lat="35.299011489642496" lon="-120.65984322622764"><ele>110.0</ele><time>2026-04-19T20:40:32Z</time></trkpt><trkpt lat="35.29903744936761" lon="-120.65969411644772"><ele>110.0</ele><time>2026-04-19T20:40:34Z</time></trkpt><trkpt lat="35.29904560812358" lon="-120.65959144454234"><ele>110.0</ele><time>2026-04-19T20:40:37Z</time></trkpt><trkpt lat="35.29906892032237" lon="-120.65950887885961"><ele>110.0</ele><time>2026-04-19T20:40:39Z</time></trkpt><trkpt lat="35.299111799924454" lon="-120.65940459537906"><ele>110.0</ele><time>2026-04-19T20:40:42Z</time></trkpt><trkpt lat="35.29913261507986" lon="-120.65932190076282"><ele>110.0</ele><time>2026-04-19T20:40:44Z</time></trkpt><trkpt lat="35.29920722785636" lon="-120.65910539444715"><ele>110.33333333333333</ele><time>2026-04-19T20:40:45Z</time></trkpt><trkpt lat="35.29924815550595" lon="-120.65902547425759"><ele>110.66666666666666</ele><time>2026-04-19T20:40:47Z</time></trkpt><trkpt lat="35.29929471328362" lon="-120.65894538537245"><ele>111.0</ele><time>2026-04-19T20:40:49Z</time></trkpt><trkpt lat="35.29934958515833" lon="-120.65886540932232"><ele>111.33333333333334</ele><time>2026-04-19T20:40:51Z</time></trkpt><trkpt lat="35.2994006184929" lon="-120.65878719996866"><ele>111.66666666666667</ele><time>2026-04-19T20:40:52.999Z</time></trkpt><trkpt lat="35.2994629743274" lon="-120.6587251618066"><ele>112.0</ele><time>2026-04-19T20:40:54.999Z</time></trkpt><trkpt lat="35.299514023737686" lon="-120.65865220871183"><ele>112.6</ele><time>2026-04-19T20:40:56.999Z</time></trkpt><trkpt lat="35.299561243488384" lon="-120.65857096341037"><ele>113.19999999999999</ele><time>2026-04-19T20:40:58.999Z</time></trkpt><trkpt lat="35.29962123237157" lon="-120.65851379920178"><ele>113.8</ele><time>2026-04-19T20:41:00.999Z</time></trkpt><trkpt lat="35.29968978511683" lon="-120.65846133791258"><ele>114.4</ele><time>2026-04-19T20:41:02.999Z</time></trkpt><trkpt lat="35.29976680342444" lon="-120.65837845780858"><ele>115.0</ele><time>2026-04-19T20:41:04.999Z</time></trkpt><trkpt lat="35.29986339171849" lon="-120.6583021141648"><ele>115.00000000000001</ele><time>2026-04-19T20:41:08.999Z</time></trkpt><trkpt lat="35.29993657681289" lon="-120.65825261322024"><ele>115.0</ele><time>2026-04-19T20:41:10.999Z</time></trkpt><trkpt lat="35.30003049963611" lon="-120.65818154161417"><ele>115.0</ele><time>2026-04-19T20:41:12.999Z</time></trkpt><trkpt lat="35.30010893145659" lon="-120.65814627198131"><ele>115.0</ele><time>2026-04-19T20:41:14.999Z</time></trkpt><trkpt lat="35.30018353761235" lon="-120.65810735679182"><ele>115.00000000000001</ele><time>2026-04-19T20:41:16.999Z</time></trkpt><trkpt lat="35.30025099902803" lon="-120.65809549710447"><ele>115.0</ele><time>2026-04-19T20:41:18.999Z</time></trkpt><trkpt lat="35.30033326997494" lon="-120.65806695345071"><ele>115.00000000000001</ele><time>2026-04-19T20:41:20.999Z</time></trkpt><trkpt lat="35.3004145605428" lon="-120.658023847398"><ele>115.0</ele><time>2026-04-19T20:41:23.999Z</time></trkpt><trkpt lat="35.3005058845839" lon="-120.6580159539494"><ele>115.0</ele><time>2026-04-19T20:41:26.999Z</time></trkpt><trkpt lat="35.300576425784456" lon="-120.65801862598911"><ele>115.0</ele><time>2026-04-19T20:41:28.999Z</time></trkpt><trkpt lat="35.300644137801854" lon="-120.658004188462"><ele>115.00000000000001</ele><time>2026-04-19T20:41:30.999Z</time></trkpt><trkpt lat="35.300712976083275" lon="-120.65799190169717"><ele>115.0</ele><time>2026-04-19T20:41:32.999Z</time></trkpt><trkpt lat="35.30078688356108" lon="-120.65799024924416"><ele>115.85714285714283</ele><time>2026-04-19T20:41:34.999Z</time></trkpt><trkpt lat="35.300860327784015" lon="-120.65798562407554"><ele>116.71428571428571</ele><time>2026-04-19T20:41:36.999Z</time></trkpt><trkpt lat="35.30093386454172" lon="-120.65798528087511"><ele>117.57142857142856</ele><time>2026-04-19T20:41:38.999Z</time></trkpt><trkpt lat="35.301007980790615" lon="-120.65798977686593"><ele>118.42857142857142</ele><time>2026-04-19T20:41:40.999Z</time></trkpt><trkpt lat="35.30107836515252" lon="-120.65799539043687"><ele>119.28571428571428</ele><time>2026-04-19T20:41:42.999Z</time></trkpt><trkpt lat="35.3011500062134" lon="-120.65800693139323"><ele>120.14285714285714</ele><time>2026-04-19T20:41:44.999Z</time></trkpt><trkpt lat="35.30122807897444" lon="-120.65801837647429"><ele>121.0</ele><time>2026-04-19T20:41:46.999Z</time></trkpt><trkpt lat="35.3013017632058" lon="-120.65804115684948"><ele>121.0</ele><time>2026-04-19T20:41:48.999Z</time></trkpt><trkpt lat="35.30136635765579" lon="-120.65805787695366"><ele>120.99999999999999</ele><time>2026-04-19T20:41:50.999Z</time></trkpt><trkpt lat="35.301431014837235" lon="-120.65807942735113"><ele>121.0</ele><time>2026-04-19T20:41:52.999Z</time></trkpt><trkpt lat="35.30150419798487" lon="-120.6581047950323"><ele>121.0</ele><time>2026-04-19T20:41:54.999Z</time></trkpt><trkpt lat="35.301570139327" lon="-120.65813574840487"><ele>120.99999999999999</ele><time>2026-04-19T20:41:56.999Z</time></trkpt><trkpt lat="35.301636720039745" lon="-120.65816685386606"><ele>121.0</ele><time>2026-04-19T20:41:58.999Z</time></trkpt><trkpt lat="35.30170123382308" lon="-120.65820191132192"><ele>121.0</ele><time>2026-04-19T20:42:00.999Z</time></trkpt><trkpt lat="35.301765133663494" lon="-120.65824270252483"><ele>120.83333333333334</ele><time>2026-04-19T20:42:02.999Z</time></trkpt><trkpt lat="35.30182966030657" lon="-120.65828516530341"><ele>120.66666666666667</ele><time>2026-04-19T20:42:04.999Z</time></trkpt><trkpt lat="35.30189262014999" lon="-120.65833252529832"><ele>120.5</ele><time>2026-04-19T20:42:06.999Z</time></trkpt><trkpt lat="35.30196266955233" lon="-120.65839066180033"><ele>120.33333333333334</ele><time>2026-04-19T20:42:08.999Z</time></trkpt><trkpt lat="35.30204233026271" lon="-120.65845626203226"><ele>120.16666666666667</ele><time>2026-04-19T20:42:10.999Z</time></trkpt><trkpt lat="35.30212925182696" lon="-120.65852798311077"><ele>120.0</ele><time>2026-04-19T20:42:12.999Z</time></trkpt><trkpt lat="35.30223132783105" lon="-120.65861303745633"><ele>119.16666666666667</ele><time>2026-04-19T20:42:14.999Z</time></trkpt><trkpt lat="35.30228659126234" lon="-120.65865932712737"><ele>118.33333333333334</ele><time>2026-04-19T20:42:16Z</time></trkpt><trkpt lat="35.302345592000606" lon="-120.65870894681615"><ele>117.5</ele><time>2026-04-19T20:42:17Z</time></trkpt><trkpt lat="35.30240723659499" lon="-120.65876193722904"><ele>116.66666666666667</ele><time>2026-04-19T20:42:18Z</time></trkpt><trkpt lat="35.30246968486031" lon="-120.6588206134189"><ele>115.83333333333334</ele><time>2026-04-19T20:42:19Z</time></trkpt><trkpt lat="35.30252928641376" lon="-120.65888968176837"><ele>115.0</ele><time>2026-04-19T20:42:20Z</time></trkpt><trkpt lat="35.30258325814659" lon="-120.65895897232598"><ele>115.00000000000001</ele><time>2026-04-19T20:42:21Z</time></trkpt><trkpt lat="35.302626166009695" lon="-120.65901746429"><ele>115.0</ele><time>2026-04-19T20:42:22Z</time></trkpt><trkpt lat="35.302690631416134" lon="-120.65910299181311"><ele>115.0</ele><time>2026-04-19T20:42:24Z</time></trkpt><trkpt lat="35.30280506775361" lon="-120.65907167438557"><ele>115.0</ele><time>2026-04-19T20:42:26Z</time></trkpt><trkpt lat="35.302865942962434" lon="-120.65903115084078"><ele>115.00000000000001</ele><time>2026-04-19T20:42:27Z</time></trkpt><trkpt lat="35.30292625155239" lon="-120.65899099608767"><ele>115.0</ele><time>2026-04-19T20:42:28Z</time></trkpt><trkpt lat="35.30299068906454" lon="-120.6589445708716"><ele>115.00000000000001</ele><time>2026-04-19T20:42:29Z</time></trkpt><trkpt lat="35.30305720884214" lon="-120.65889602538088"><ele>115.0</ele><time>2026-04-19T20:42:30Z</time></trkpt><trkpt lat="35.303119242483156" lon="-120.65883800499353"><ele>115.0</ele><time>2026-04-19T20:42:31Z</time></trkpt><trkpt lat="35.30317221375664" lon="-120.65877105640506"><ele>115.0</ele><time>2026-04-19T20:42:32Z</time></trkpt><trkpt lat="35.30321777961595" lon="-120.65870266174298"><ele>115.00000000000001</ele><time>2026-04-19T20:42:33Z</time></trkpt><trkpt lat="35.30326360353687" lon="-120.65864181079097"><ele>115.0</ele><time>2026-04-19T20:42:34Z</time></trkpt><trkpt lat="35.30335636875454" lon="-120.65855044008609"><ele>115.83333333333334</ele><time>2026-04-19T20:42:36Z</time></trkpt><trkpt lat="35.303436602695655" lon="-120.65847599714628"><ele>116.66666666666667</ele><time>2026-04-19T20:42:38Z</time></trkpt><trkpt lat="35.303514524498226" lon="-120.65843345351271"><ele>117.5</ele><time>2026-04-19T20:42:40Z</time></trkpt><trkpt lat="35.30358941853671" lon="-120.65841614422787"><ele>118.33333333333334</ele><time>2026-04-19T20:42:42Z</time></trkpt><trkpt lat="35.30365880890383" lon="-120.6583960390226"><ele>119.16666666666667</ele><time>2026-04-19T20:42:44Z</time></trkpt><trkpt lat="35.30373577383589" lon="-120.6583777769123"><ele>120.0</ele><time>2026-04-19T20:42:46Z</time></trkpt><trkpt lat="35.30381969909267" lon="-120.65836454908617"><ele>120.0</ele><time>2026-04-19T20:42:48Z</time></trkpt><trkpt lat="35.303906178527036" lon="-120.65836734194811"><ele>120.0</ele><time>2026-04-19T20:42:50Z</time></trkpt><trkpt lat="35.30399086928308" lon="-120.65836369543347"><ele>120.0</ele><time>2026-04-19T20:42:51.999Z</time></trkpt><trkpt lat="35.304073882074526" lon="-120.65836411600833"><ele>120.0</ele><time>2026-04-19T20:42:53.999Z</time></trkpt><trkpt lat="35.30416084440199" lon="-120.65837029594658"><ele>120.0</ele><time>2026-04-19T20:42:55.999Z</time></trkpt><trkpt lat="35.30424904535159" lon="-120.65840435399727"><ele>120.0</ele><time>2026-04-19T20:42:57.999Z</time></trkpt><trkpt lat="35.30432766689823" lon="-120.65847664106985"><ele>120.0</ele><time>2026-04-19T20:42:59.999Z</time></trkpt><trkpt lat="35.30444746832592" lon="-120.65847792704055"><ele>120.0</ele><time>2026-04-19T20:43:01.999Z</time></trkpt><trkpt lat="35.30450672867621" lon="-120.65844391580704"><ele>120.0</ele><time>2026-04-19T20:43:02.999Z</time></trkpt><trkpt lat="35.30459056394361" lon="-120.65839060585633"><ele>120.0</ele><time>2026-04-19T20:43:04.999Z</time></trkpt><trkpt lat="35.30467935815214" lon="-120.65836660357425"><ele>120.0</ele><time>2026-04-19T20:43:06.999Z</time></trkpt><trkpt lat="35.30477119907014" lon="-120.65834543860531"><ele>120.0</ele><time>2026-04-19T20:43:08.999Z</time></trkpt><trkpt lat="35.304846179038584" lon="-120.65837679163998"><ele>120.0</ele><time>2026-04-19T20:43:13.999Z</time></trkpt><trkpt lat="35.30490700035186" lon="-120.6583226551598"><ele>120.0</ele><time>2026-04-19T20:43:16.999Z</time></trkpt><trkpt lat="35.304979611703494" lon="-120.65827788254035"><ele>120.0</ele><time>2026-04-19T20:43:18.999Z</time></trkpt><trkpt lat="35.30505947757157" lon="-120.65822847494859"><ele>120.0</ele><time>2026-04-19T20:43:20.999Z</time></trkpt><trkpt lat="35.305150678003045" lon="-120.6581780506915"><ele>120.0</ele><time>2026-04-19T20:43:22.999Z</time></trkpt><trkpt lat="35.30520420465811" lon="-120.65813724849843"><ele>120.0</ele><time>2026-04-19T20:43:24.999Z</time></trkpt><trkpt lat="35.305288591475204" lon="-120.65808919557455"><ele>120.0</ele><time>2026-04-19T20:43:25.999Z</time></trkpt><trkpt lat="35.30536231021807" lon="-120.65802127963792"><ele>120.0</ele><time>2026-04-19T20:43:26.999Z</time></trkpt><trkpt lat="35.30544276655268" lon="-120.65803527799281"><ele>120.0</ele><time>2026-04-19T20:43:27.999Z</time></trkpt><trkpt lat="35.30551987581085" lon="-120.65803226535007"><ele>120.0</ele><time>2026-04-19T20:43:28.999Z</time></trkpt><trkpt lat="35.30559725382319" lon="-120.65804148631382"><ele>120.0</ele><time>2026-04-19T20:43:29.999Z</time></trkpt><trkpt lat="35.30566912273384" lon="-120.65805829659253"><ele>119.0</ele><time>2026-04-19T20:43:30.999Z</time></trkpt><trkpt lat="35.3057377040329" lon="-120.65807216449404"><ele>118.0</ele><time>2026-04-19T20:43:31.999Z</time></trkpt><trkpt lat="35.305802669872286" lon="-120.65807839725"><ele>117.0</ele><time>2026-04-19T20:43:32.999Z</time></trkpt><trkpt lat="35.30586646322535" lon="-120.65807382654313"><ele>116.0</ele><time>2026-04-19T20:43:33.999Z</time></trkpt><trkpt lat="35.30592885676743" lon="-120.65805289464814"><ele>115.0</ele><time>2026-04-19T20:43:34.999Z</time></trkpt><trkpt lat="35.30598566256702" lon="-120.658011948862"><ele>114.0</ele><time>2026-04-19T20:43:35.999Z</time></trkpt><trkpt lat="35.30603556802978" lon="-120.65795602732555"><ele>113.0</ele><time>2026-04-19T20:43:36.999Z</time></trkpt><trkpt lat="35.306079411906474" lon="-120.65788793410498"><ele>113.0</ele><time>2026-04-19T20:43:37.999Z</time></trkpt><trkpt lat="35.30612050327571" lon="-120.65781943997032"><ele>113.0</ele><time>2026-04-19T20:43:38.999Z</time></trkpt><trkpt lat="35.30616598149612" lon="-120.65775199559533"><ele>113.0</ele><time>2026-04-19T20:43:39.999Z</time></trkpt><trkpt lat="35.30621747551642" lon="-120.65768505810742"><ele>113.0</ele><time>2026-04-19T20:43:40.999Z</time></trkpt><trkpt lat="35.30627406973621" lon="-120.65762156311658"><ele>113.0</ele><time>2026-04-19T20:43:41.999Z</time></trkpt><trkpt lat="35.30633781338103" lon="-120.6575687669843"><ele>113.0</ele><time>2026-04-19T20:43:42.999Z</time></trkpt><trkpt lat="35.30640823614962" lon="-120.65752499180363"><ele>113.0</ele><time>2026-04-19T20:43:43.999Z</time></trkpt><trkpt lat="35.306473555857714" lon="-120.65747747875432"><ele>113.14285714285714</ele><time>2026-04-19T20:43:44.999Z</time></trkpt><trkpt lat="35.306535059085974" lon="-120.65742718293215"><ele>113.28571428571428</ele><time>2026-04-19T20:43:45.999Z</time></trkpt><trkpt lat="35.30658239470663" lon="-120.6573585458863"><ele>113.42857142857142</ele><time>2026-04-19T20:43:46.999Z</time></trkpt><trkpt lat="35.3066176936298" lon="-120.65728076190618"><ele>113.57142857142857</ele><time>2026-04-19T20:43:47.999Z</time></trkpt><trkpt lat="35.3066600437537" lon="-120.65721431345794"><ele>113.7142857142857</ele><time>2026-04-19T20:43:48.999Z</time></trkpt><trkpt lat="35.30670370627815" lon="-120.65713207295722"><ele>113.85714285714285</ele><time>2026-04-19T20:43:49.999Z</time></trkpt><trkpt lat="35.30675448626849" lon="-120.65705934753424"><ele>114.0</ele><time>2026-04-19T20:43:50.999Z</time></trkpt><trkpt lat="35.306813404087976" lon="-120.65700488795625"><ele>114.0</ele><time>2026-04-19T20:43:51.999Z</time></trkpt><trkpt lat="35.30688147913116" lon="-120.65695940323887"><ele>113.99999999999999</ele><time>2026-04-19T20:43:52.999Z</time></trkpt><trkpt lat="35.30694770676373" lon="-120.65691923923258"><ele>114.0</ele><time>2026-04-19T20:43:53.999Z</time></trkpt><trkpt lat="35.307007997558884" lon="-120.65687372561582"><ele>114.0</ele><time>2026-04-19T20:43:54.999Z</time></trkpt><trkpt lat="35.307069547215605" lon="-120.65682560710994"><ele>113.99999999999999</ele><time>2026-04-19T20:43:55.999Z</time></trkpt><trkpt lat="35.30712859908143" lon="-120.65677521853985"><ele>114.0</ele><time>2026-04-19T20:43:56.999Z</time></trkpt><trkpt lat="35.30718750419003" lon="-120.65672124409372"><ele>114.0</ele><time>2026-04-19T20:43:57.999Z</time></trkpt><trkpt lat="35.30724932397696" lon="-120.65667745766379"><ele>114.85714285714285</ele><time>2026-04-19T20:43:58.999Z</time></trkpt><trkpt lat="35.30731551057093" lon="-120.65664300513473"><ele>115.7142857142857</ele><time>2026-04-19T20:43:59.999Z</time></trkpt><trkpt lat="35.307379922104985" lon="-120.65661041566298"><ele>116.57142857142857</ele><time>2026-04-19T20:44:00.999Z</time></trkpt><trkpt lat="35.30744475005447" lon="-120.65657594131905"><ele>117.42857142857142</ele><time>2026-04-19T20:44:01.999Z</time></trkpt><trkpt lat="35.30750956997496" lon="-120.65653238314451"><ele>118.28571428571428</ele><time>2026-04-19T20:44:02.999Z</time></trkpt><trkpt lat="35.3075640461803" lon="-120.65646844450735"><ele>119.14285714285714</ele><time>2026-04-19T20:44:03.999Z</time></trkpt><trkpt lat="35.307603675142076" lon="-120.65638450110087"><ele>120.0</ele><time>2026-04-19T20:44:04.999Z</time></trkpt><trkpt lat="35.30763111242109" lon="-120.65628909191015"><ele>120.0</ele><time>2026-04-19T20:44:05.999Z</time></trkpt><trkpt lat="35.307653196032625" lon="-120.65619154114148"><ele>120.0</ele><time>2026-04-19T20:44:06.999Z</time></trkpt><trkpt lat="35.30768347913365" lon="-120.6560996570456"><ele>120.0</ele><time>2026-04-19T20:44:07.999Z</time></trkpt><trkpt lat="35.30772217476599" lon="-120.65601337154799"><ele>120.0</ele><time>2026-04-19T20:44:08.999Z</time></trkpt><trkpt lat="35.3077671714034" lon="-120.65593327143795"><ele>120.0</ele><time>2026-04-19T20:44:09.999Z</time></trkpt><trkpt lat="35.30782237529118" lon="-120.65586128379817"><ele>120.0</ele><time>2026-04-19T20:44:10.999Z</time></trkpt><trkpt lat="35.30788735751426" lon="-120.65580076678526"><ele>120.42857142857143</ele><time>2026-04-19T20:44:11.999Z</time></trkpt><trkpt lat="35.30795664373949" lon="-120.65575280975841"><ele>120.85714285714286</ele><time>2026-04-19T20:44:12.999Z</time></trkpt><trkpt lat="35.30802540590731" lon="-120.65571012003919"><ele>121.28571428571429</ele><time>2026-04-19T20:44:13.999Z</time></trkpt><trkpt lat="35.30809039127555" lon="-120.65566767963077"><ele>121.71428571428572</ele><time>2026-04-19T20:44:14.999Z</time></trkpt><trkpt lat="35.30815367167445" lon="-120.65562119519193"><ele>122.14285714285714</ele><time>2026-04-19T20:44:15.999Z</time></trkpt><trkpt lat="35.308209631091366" lon="-120.65556585558188"><ele>122.57142857142858</ele><time>2026-04-19T20:44:16.999Z</time></trkpt><trkpt lat="35.3082649388325" lon="-120.65551582937597"><ele>123.00000000000001</ele><time>2026-04-19T20:44:17.999Z</time></trkpt><trkpt lat="35.30831849819117" lon="-120.6554665668301"><ele>123.0</ele><time>2026-04-19T20:44:18.999Z</time></trkpt><trkpt lat="35.30836868567013" lon="-120.65541421653508"><ele>123.0</ele><time>2026-04-19T20:44:19.999Z</time></trkpt><trkpt lat="35.30841620275492" lon="-120.65536226765506"><ele>123.0</ele><time>2026-04-19T20:44:20.999Z</time></trkpt><trkpt lat="35.308464759282614" lon="-120.65530775862318"><ele>123.0</ele><time>2026-04-19T20:44:22Z</time></trkpt><trkpt lat="35.308500000527346" lon="-120.65523904460713"><ele>123.0</ele><time>2026-04-19T20:44:23Z</time></trkpt><trkpt lat="35.3085919759658" lon="-120.65514172340605"><ele>123.0</ele><time>2026-04-19T20:44:25Z</time></trkpt><trkpt lat="35.3086950194832" lon="-120.6550620400735"><ele>125.2</ele><time>2026-04-19T20:44:27Z</time></trkpt><trkpt lat="35.308795942273264" lon="-120.65498161655105"><ele>127.4</ele><time>2026-04-19T20:44:29Z</time></trkpt><trkpt lat="35.30889840778503" lon="-120.65491194984544"><ele>129.60000000000002</ele><time>2026-04-19T20:44:31Z</time></trkpt><trkpt lat="35.308985842256604" lon="-120.65483813838402"><ele>131.8</ele><time>2026-04-19T20:44:33Z</time></trkpt><trkpt lat="35.30907387449651" lon="-120.65480863138906"><ele>134.0</ele><time>2026-04-19T20:44:35Z</time></trkpt><trkpt lat="35.30913589945556" lon="-120.65475254313422"><ele>134.0</ele><time>2026-04-19T20:44:37Z</time></trkpt><trkpt lat="35.30920575236526" lon="-120.6546951514524"><ele>134.0</ele><time>2026-04-19T20:44:39Z</time></trkpt><trkpt lat="35.30927921802455" lon="-120.65462854896764"><ele>134.0</ele><time>2026-04-19T20:44:41Z</time></trkpt><trkpt lat="35.30934994985788" lon="-120.65455353051809"><ele>134.0</ele><time>2026-04-19T20:44:43Z</time></trkpt><trkpt lat="35.30942750661896" lon="-120.6544853164738"><ele>134.0</ele><time>2026-04-19T20:44:45Z</time></trkpt><trkpt lat="35.309495129659936" lon="-120.65440357562639"><ele>135.0</ele><time>2026-04-19T20:44:47Z</time></trkpt><trkpt lat="35.3095680816908" lon="-120.65434872594786"><ele>136.0</ele><time>2026-04-19T20:44:49Z</time></trkpt><trkpt lat="35.30961183655901" lon="-120.65427675006504"><ele>137.0</ele><time>2026-04-19T20:44:52Z</time></trkpt><trkpt lat="35.30967738833349" lon="-120.65421432174824"><ele>138.0</ele><time>2026-04-19T20:44:56Z</time></trkpt><trkpt lat="35.30972141350849" lon="-120.65411690379277"><ele>139.0</ele><time>2026-04-19T20:44:59Z</time></trkpt><trkpt lat="35.30976403083264" lon="-120.65404964835267"><ele>140.0</ele><time>2026-04-19T20:45:01Z</time></trkpt><trkpt lat="35.309818855120845" lon="-120.65398689173747"><ele>140.0</ele><time>2026-04-19T20:45:03Z</time></trkpt><trkpt lat="35.309882158778784" lon="-120.65392470670915"><ele>140.0</ele><time>2026-04-19T20:45:05Z</time></trkpt><trkpt lat="35.30995480942828" lon="-120.65385670006307"><ele>140.0</ele><time>2026-04-19T20:45:06.999Z</time></trkpt><trkpt lat="35.310029359946626" lon="-120.65378810764133"><ele>140.0</ele><time>2026-04-19T20:45:08.999Z</time></trkpt><trkpt lat="35.31010912466562" lon="-120.6537290537578"><ele>140.0</ele><time>2026-04-19T20:45:10.999Z</time></trkpt><trkpt lat="35.31018478134454" lon="-120.6536711153168"><ele>140.0</ele><time>2026-04-19T20:45:12.999Z</time></trkpt><trkpt lat="35.31025715967123" lon="-120.65361357465957"><ele>141.16666666666666</ele><time>2026-04-19T20:45:14.999Z</time></trkpt><trkpt lat="35.31032914145655" lon="-120.65355557378268"><ele>142.33333333333331</ele><time>2026-04-19T20:45:16.999Z</time></trkpt><trkpt lat="35.310392970194826" lon="-120.65350082886438"><ele>143.5</ele><time>2026-04-19T20:45:18.999Z</time></trkpt><trkpt lat="35.310450733960565" lon="-120.65344638064091"><ele>144.66666666666666</ele><time>2026-04-19T20:45:20.999Z</time></trkpt><trkpt lat="35.31050631414071" lon="-120.65339820419749"><ele>145.83333333333334</ele><time>2026-04-19T20:45:22.999Z</time></trkpt><trkpt lat="35.3105798081583" lon="-120.65332643284457"><ele>147.0</ele><time>2026-04-19T20:45:25.999Z</time></trkpt><trkpt lat="35.31062979926219" lon="-120.65327468531927"><ele>147.0</ele><time>2026-04-19T20:45:27.999Z</time></trkpt><trkpt lat="35.310680717068145" lon="-120.65322654836942"><ele>147.0</ele><time>2026-04-19T20:45:29.999Z</time></trkpt><trkpt lat="35.31074471916805" lon="-120.65319060769245"><ele>147.0</ele><time>2026-04-19T20:45:31.999Z</time></trkpt><trkpt lat="35.31080696291787" lon="-120.65315137118073"><ele>147.0</ele><time>2026-04-19T20:45:33.999Z</time></trkpt><trkpt lat="35.31086853962499" lon="-120.6531102378695"><ele>147.0</ele><time>2026-04-19T20:45:35.999Z</time></trkpt><trkpt lat="35.31093565893287" lon="-120.65307547828968"><ele>147.0</ele><time>2026-04-19T20:45:37.999Z</time></trkpt><trkpt lat="35.31099774906679" lon="-120.65303195804722"><ele>147.0</ele><time>2026-04-19T20:45:40.999Z</time></trkpt><trkpt lat="35.31107174749563" lon="-120.65298654554614"><ele>147.0</ele><time>2026-04-19T20:45:42.999Z</time></trkpt><trkpt lat="35.311129001001774" lon="-120.65295163985932"><ele>147.0</ele><time>2026-04-19T20:45:44.999Z</time></trkpt><trkpt lat="35.31121775892909" lon="-120.65290821122066"><ele>147.0</ele><time>2026-04-19T20:45:47.999Z</time></trkpt><trkpt lat="35.311285086563636" lon="-120.65287413337441"><ele>147.0</ele><time>2026-04-19T20:45:49.999Z</time></trkpt><trkpt lat="35.311346658089676" lon="-120.65284064677402"><ele>147.0</ele><time>2026-04-19T20:45:51.999Z</time></trkpt><trkpt lat="35.31140882173853" lon="-120.65280717958095"><ele>147.0</ele><time>2026-04-19T20:45:54.999Z</time></trkpt><trkpt lat="35.31148602091217" lon="-120.65276939914703"><ele>147.66666666666666</ele><time>2026-04-19T20:45:57.999Z</time></trkpt><trkpt lat="35.3115583400794" lon="-120.65273112262255"><ele>148.33333333333334</ele><time>2026-04-19T20:46:00.999Z</time></trkpt><trkpt lat="35.31162546492656" lon="-120.65269051316726"><ele>149.0</ele><time>2026-04-19T20:46:02.999Z</time></trkpt><trkpt lat="35.31169519690016" lon="-120.6526362452772"><ele>149.66666666666669</ele><time>2026-04-19T20:46:05.999Z</time></trkpt><trkpt lat="35.31180245583544" lon="-120.6525505618679"><ele>150.33333333333334</ele><time>2026-04-19T20:46:07.999Z</time></trkpt><trkpt lat="35.31185771580191" lon="-120.65250415023803"><ele>151.0</ele><time>2026-04-19T20:46:09.999Z</time></trkpt><trkpt lat="35.311919757864665" lon="-120.65247665414104"><ele>151.0</ele><time>2026-04-19T20:46:11.999Z</time></trkpt><trkpt lat="35.31198141381712" lon="-120.65245042272915"><ele>151.0</ele><time>2026-04-19T20:46:13.999Z</time></trkpt><trkpt lat="35.312070011107764" lon="-120.65241747926864"><ele>151.0</ele><time>2026-04-19T20:46:16.999Z</time></trkpt><trkpt lat="35.31213565707264" lon="-120.65240084221335"><ele>151.0</ele><time>2026-04-19T20:46:18.999Z</time></trkpt><trkpt lat="35.312209944405815" lon="-120.65238950650215"><ele>151.0</ele><time>2026-04-19T20:46:20.999Z</time></trkpt><trkpt lat="35.31229144858516" lon="-120.65235568420329"><ele>151.0</ele><time>2026-04-19T20:46:22.999Z</time></trkpt><trkpt lat="35.31237767264513" lon="-120.6523100152368"><ele>151.8</ele><time>2026-04-19T20:46:24.999Z</time></trkpt><trkpt lat="35.31244280518571" lon="-120.65227436180673"><ele>152.6</ele><time>2026-04-19T20:46:25.999Z</time></trkpt><trkpt lat="35.31253056188049" lon="-120.65225732884885"><ele>153.4</ele><time>2026-04-19T20:46:28Z</time></trkpt><trkpt lat="35.31266652921527" lon="-120.65220662935147"><ele>154.2</ele><time>2026-04-19T20:46:30Z</time></trkpt><trkpt lat="35.31275446549737" lon="-120.65215377543822"><ele>155.0</ele><time>2026-04-19T20:46:32Z</time></trkpt><trkpt lat="35.31283464265597" lon="-120.65209757694511"><ele>155.0</ele><time>2026-04-19T20:46:34Z</time></trkpt><trkpt lat="35.31291090690099" lon="-120.65205222428136"><ele>155.0</ele><time>2026-04-19T20:46:36Z</time></trkpt><trkpt lat="35.31296985166531" lon="-120.6519970329994"><ele>155.0</ele><time>2026-04-19T20:46:38Z</time></trkpt><trkpt lat="35.31302913781182" lon="-120.65195632939354"><ele>155.0</ele><time>2026-04-19T20:46:40Z</time></trkpt><trkpt lat="35.31309616230453" lon="-120.65194022067023"><ele>155.0</ele><time>2026-04-19T20:46:42Z</time></trkpt><trkpt lat="35.313169404149605" lon="-120.65193253887536"><ele>155.0</ele><time>2026-04-19T20:46:44Z</time></trkpt><trkpt lat="35.31325390373878" lon="-120.6519108450359"><ele>154.16666666666666</ele><time>2026-04-19T20:46:46Z</time></trkpt><trkpt lat="35.313359670168744" lon="-120.6519044830174"><ele>153.33333333333331</ele><time>2026-04-19T20:46:49Z</time></trkpt><trkpt lat="35.31342481334988" lon="-120.65182393452211"><ele>152.5</ele><time>2026-04-19T20:46:51Z</time></trkpt><trkpt lat="35.31346942348877" lon="-120.65175818724748"><ele>151.66666666666666</ele><time>2026-04-19T20:46:53Z</time></trkpt><trkpt lat="35.313518853057644" lon="-120.65168336721787"><ele>150.83333333333334</ele><time>2026-04-19T20:46:55Z</time></trkpt><trkpt lat="35.3135817284709" lon="-120.65159645538456"><ele>150.0</ele><time>2026-04-19T20:46:57Z</time></trkpt><trkpt lat="35.31364634366959" lon="-120.65151085931856"><ele>150.0</ele><time>2026-04-19T20:46:59Z</time></trkpt><trkpt lat="35.31370663324562" lon="-120.65143315512658"><ele>150.0</ele><time>2026-04-19T20:47:01Z</time></trkpt><trkpt lat="35.31375465471816" lon="-120.65136252929625"><ele>150.0</ele><time>2026-04-19T20:47:03Z</time></trkpt><trkpt lat="35.31380685103612" lon="-120.65128908533276"><ele>150.0</ele><time>2026-04-19T20:47:06Z</time></trkpt><trkpt lat="35.3138649812928" lon="-120.65121017852998"><ele>150.0</ele><time>2026-04-19T20:47:09Z</time></trkpt><trkpt lat="35.31391627867339" lon="-120.65114748479358"><ele>150.0</ele><time>2026-04-19T20:47:12Z</time></trkpt><trkpt lat="35.31396917619379" lon="-120.65109895151582"><ele>150.7142857142857</ele><time>2026-04-19T20:47:15Z</time></trkpt><trkpt lat="35.314020653930775" lon="-120.65105104042335"><ele>151.42857142857142</ele><time>2026-04-19T20:47:18Z</time></trkpt><trkpt lat="35.314071509874736" lon="-120.65099179461912"><ele>152.14285714285714</ele><time>2026-04-19T20:47:21Z</time></trkpt><trkpt lat="35.314124957182585" lon="-120.65093034088564"><ele>152.85714285714283</ele><time>2026-04-19T20:47:24Z</time></trkpt><trkpt lat="35.314186057421495" lon="-120.65086392180518"><ele>153.57142857142856</ele><time>2026-04-19T20:47:26.999Z</time></trkpt><trkpt lat="35.31425135080506" lon="-120.65081497197488"><ele>154.28571428571428</ele><time>2026-04-19T20:47:29.999Z</time></trkpt><trkpt lat="35.3143294456838" lon="-120.65078160792935"><ele>155.0</ele><time>2026-04-19T20:47:32.999Z</time></trkpt><trkpt lat="35.314415279496885" lon="-120.65074365570526"><ele>155.0</ele><time>2026-04-19T20:47:35.999Z</time></trkpt><trkpt lat="35.314447685431915" lon="-120.65066638601506"><ele>155.0</ele><time>2026-04-19T20:47:42.999Z</time></trkpt><trkpt lat="35.31449795198129" lon="-120.65060333980806"><ele>155.0</ele><time>2026-04-19T20:48:51Z</time></trkpt><trkpt lat="35.314529190430875" lon="-120.65052677251728"><ele>155.0</ele><time>2026-04-19T20:49:09Z</time></trkpt><trkpt lat="35.314546616028494" lon="-120.65045083256324"><ele>155.0</ele><time>2026-04-19T20:49:11Z</time></trkpt><trkpt lat="35.3145789796321" lon="-120.65036994602887"><ele>155.0</ele><time>2026-04-19T20:49:13Z</time></trkpt><trkpt lat="35.314610581414556" lon="-120.65026553826866"><ele>155.0</ele><time>2026-04-19T20:49:15Z</time></trkpt><trkpt lat="35.31464531459993" lon="-120.6501436667248"><ele>155.16666666666666</ele><time>2026-04-19T20:49:17Z</time></trkpt><trkpt lat="35.31470824815634" lon="-120.65001123849576"><ele>155.33333333333331</ele><time>2026-04-19T20:49:19Z</time></trkpt><trkpt lat="35.31474068148902" lon="-120.64994279335599"><ele>155.5</ele><time>2026-04-19T20:49:20Z</time></trkpt><trkpt lat="35.31478151467317" lon="-120.64987205885602"><ele>155.66666666666666</ele><time>2026-04-19T20:49:21Z</time></trkpt><trkpt lat="35.31483488538802" lon="-120.64980788781683"><ele>155.83333333333334</ele><time>2026-04-19T20:49:22Z</time></trkpt><trkpt lat="35.31489739328742" lon="-120.649750511894"><ele>156.0</ele><time>2026-04-19T20:49:23Z</time></trkpt><trkpt lat="35.31496553062795" lon="-120.64969676417917"><ele>156.16666666666666</ele><time>2026-04-19T20:49:24Z</time></trkpt><trkpt lat="35.315033644114436" lon="-120.6496451769596"><ele>156.33333333333334</ele><time>2026-04-19T20:49:25Z</time></trkpt><trkpt lat="35.31509237880412" lon="-120.64958639107792"><ele>156.5</ele><time>2026-04-19T20:49:26Z</time></trkpt><trkpt lat="35.31512719387808" lon="-120.64951827746623"><ele>156.66666666666669</ele><time>2026-04-19T20:49:27Z</time></trkpt><trkpt lat="35.31515794955911" lon="-120.6494005432187"><ele>156.83333333333334</ele><time>2026-04-19T20:49:29Z</time></trkpt><trkpt lat="35.31518545262822" lon="-120.64932759339254"><ele>157.0</ele><time>2026-04-19T20:49:32Z</time></trkpt><trkpt lat="35.31517756791215" lon="-120.6492459234213"><ele>157.0</ele><time>2026-04-19T20:49:50.999Z</time></trkpt><trkpt lat="35.31519724516323" lon="-120.6491362128204"><ele>157.0</ele><time>2026-04-19T20:49:53.999Z</time></trkpt><trkpt lat="35.31522988001033" lon="-120.64906451090587"><ele>157.0</ele><time>2026-04-19T20:49:55.999Z</time></trkpt><trkpt lat="35.3152754482248" lon="-120.6489923625893"><ele>157.0</ele><time>2026-04-19T20:49:58.999Z</time></trkpt><trkpt lat="35.31534666932868" lon="-120.64892757401165"><ele>157.0</ele><time>2026-04-19T20:50:02.999Z</time></trkpt><trkpt lat="35.31542828493624" lon="-120.64887970922224"><ele>157.0</ele><time>2026-04-19T20:50:05.999Z</time></trkpt><trkpt lat="35.31549230938587" lon="-120.64884547199082"><ele>157.0</ele><time>2026-04-19T20:50:07.999Z</time></trkpt><trkpt lat="35.315556654279064" lon="-120.64880777142177"><ele>157.0</ele><time>2026-04-19T20:50:09.999Z</time></trkpt><trkpt lat="35.31561437837454" lon="-120.64876508254135"><ele>157.0</ele><time>2026-04-19T20:50:11.999Z</time></trkpt><trkpt lat="35.31568890804357" lon="-120.64870317395513"><ele>157.0</ele><time>2026-04-19T20:50:14.999Z</time></trkpt><trkpt lat="35.31574334418241" lon="-120.64865232039044"><ele>157.0</ele><time>2026-04-19T20:50:17.999Z</time></trkpt><trkpt lat="35.31579096823904" lon="-120.64860036725342"><ele>157.0</ele><time>2026-04-19T20:50:20.999Z</time></trkpt><trkpt lat="35.31585698827481" lon="-120.64852441238071"><ele>157.83333333333334</ele><time>2026-04-19T20:50:24.999Z</time></trkpt><trkpt lat="35.31591452915246" lon="-120.64846601513577"><ele>158.66666666666669</ele><time>2026-04-19T20:50:28.999Z</time></trkpt><trkpt lat="35.3159626561268" lon="-120.64840348102264"><ele>159.5</ele><time>2026-04-19T20:50:31.999Z</time></trkpt><trkpt lat="35.31602253213312" lon="-120.64834274997709"><ele>160.33333333333334</ele><time>2026-04-19T20:50:34.999Z</time></trkpt><trkpt lat="35.31606925298632" lon="-120.64828210822489"><ele>161.16666666666666</ele><time>2026-04-19T20:50:37.999Z</time></trkpt><trkpt lat="35.316131603483605" lon="-120.64820356348658"><ele>162.0</ele><time>2026-04-19T20:50:40Z</time></trkpt><trkpt lat="35.3162314822923" lon="-120.64807773125365"><ele>162.0</ele><time>2026-04-19T20:50:43Z</time></trkpt><trkpt lat="35.31627483935248" lon="-120.64801494034731"><ele>162.0</ele><time>2026-04-19T20:50:44Z</time></trkpt><trkpt lat="35.3163207855904" lon="-120.64794844262305"><ele>162.0</ele><time>2026-04-19T20:50:45Z</time></trkpt><trkpt lat="35.316364644831744" lon="-120.64788415338904"><ele>162.0</ele><time>2026-04-19T20:50:46Z</time></trkpt><trkpt lat="35.31640717626039" lon="-120.64781557397367"><ele>162.0</ele><time>2026-04-19T20:50:47Z</time></trkpt><trkpt lat="35.31645309449049" lon="-120.64774759411702"><ele>162.0</ele><time>2026-04-19T20:50:48Z</time></trkpt><trkpt lat="35.31650066393272" lon="-120.64767740261372"><ele>162.0</ele><time>2026-04-19T20:50:49Z</time></trkpt><trkpt lat="35.31654751722283" lon="-120.64760782276792"><ele>162.16666666666666</ele><time>2026-04-19T20:50:50Z</time></trkpt><trkpt lat="35.31659795158107" lon="-120.647539670464"><ele>162.33333333333334</ele><time>2026-04-19T20:50:51Z</time></trkpt><trkpt lat="35.31665143282883" lon="-120.64748145195396"><ele>162.5</ele><time>2026-04-19T20:50:52Z</time></trkpt><trkpt lat="35.316709333922596" lon="-120.64743681937424"><ele>162.66666666666669</ele><time>2026-04-19T20:50:53Z</time></trkpt><trkpt lat="35.316777313043055" lon="-120.6474114344429"><ele>162.83333333333334</ele><time>2026-04-19T20:50:54Z</time></trkpt><trkpt lat="35.3168383651144" lon="-120.64738916910302"><ele>163.0</ele><time>2026-04-19T20:50:55Z</time></trkpt><trkpt lat="35.316950552804215" lon="-120.6473536229114"><ele>163.0</ele><time>2026-04-19T20:50:57Z</time></trkpt><trkpt lat="35.31705125369472" lon="-120.64732991268546"><ele>163.0</ele><time>2026-04-19T20:50:59Z</time></trkpt><trkpt lat="35.317142790011076" lon="-120.64729965682842"><ele>163.0</ele><time>2026-04-19T20:51:01Z</time></trkpt><trkpt lat="35.31720967277278" lon="-120.64727519950554"><ele>163.0</ele><time>2026-04-19T20:51:03Z</time></trkpt><trkpt lat="35.3172696485472" lon="-120.64723307572791"><ele>163.0</ele><time>2026-04-19T20:51:05Z</time></trkpt><trkpt lat="35.31732388574465" lon="-120.6471577700105"><ele>163.0</ele><time>2026-04-19T20:51:07Z</time></trkpt><trkpt lat="35.31733865368105" lon="-120.64705540681766"><ele>163.16666666666669</ele><time>2026-04-19T20:51:09Z</time></trkpt><trkpt lat="35.31731009388152" lon="-120.6469501337351"><ele>163.33333333333334</ele><time>2026-04-19T20:51:11Z</time></trkpt><trkpt lat="35.31726326439347" lon="-120.6468733185584"><ele>163.5</ele><time>2026-04-19T20:51:13Z</time></trkpt><trkpt lat="35.31720932782871" lon="-120.6468064352002"><ele>163.66666666666666</ele><time>2026-04-19T20:51:15Z</time></trkpt><trkpt lat="35.317169553591064" lon="-120.64673245156793"><ele>163.83333333333331</ele><time>2026-04-19T20:51:18Z</time></trkpt><trkpt lat="35.31713772637169" lon="-120.6466583152765"><ele>164.0</ele><time>2026-04-19T20:51:20Z</time></trkpt><trkpt lat="35.31710064386299" lon="-120.6465523592752"><ele>164.0</ele><time>2026-04-19T20:51:22Z</time></trkpt><trkpt lat="35.31710338431572" lon="-120.64644798621258"><ele>164.0</ele><time>2026-04-19T20:51:25Z</time></trkpt><trkpt lat="35.31712356251074" lon="-120.6463267932569"><ele>164.0</ele><time>2026-04-19T20:51:28Z</time></trkpt><trkpt lat="35.31715096431796" lon="-120.6462008032267"><ele>164.0</ele><time>2026-04-19T20:51:30Z</time></trkpt><trkpt lat="35.31717155814977" lon="-120.64612015633973"><ele>164.0</ele><time>2026-04-19T20:51:31Z</time></trkpt><trkpt lat="35.31719257911058" lon="-120.64603920315255"><ele>164.0</ele><time>2026-04-19T20:51:32Z</time></trkpt><trkpt lat="35.31721514004003" lon="-120.64596538405364"><ele>164.66666666666666</ele><time>2026-04-19T20:51:33Z</time></trkpt><trkpt lat="35.31724817952566" lon="-120.64586623464551"><ele>165.33333333333331</ele><time>2026-04-19T20:51:34Z</time></trkpt><trkpt lat="35.317287597677065" lon="-120.64579071477803"><ele>166.0</ele><time>2026-04-19T20:51:35Z</time></trkpt><trkpt lat="35.31734823179729" lon="-120.64571454833722"><ele>166.66666666666666</ele><time>2026-04-19T20:51:36Z</time></trkpt><trkpt lat="35.317414095089426" lon="-120.6456582775426"><ele>167.33333333333334</ele><time>2026-04-19T20:51:37Z</time></trkpt><trkpt lat="35.3174824052408" lon="-120.64561211201206"><ele>168.0</ele><time>2026-04-19T20:51:38Z</time></trkpt><trkpt lat="35.31755152982455" lon="-120.6455767068207"><ele>168.0</ele><time>2026-04-19T20:51:39Z</time></trkpt><trkpt lat="35.31761795882792" lon="-120.64553252711184"><ele>168.0</ele><time>2026-04-19T20:51:40Z</time></trkpt><trkpt lat="35.31769892326679" lon="-120.64546770845219"><ele>168.0</ele><time>2026-04-19T20:51:41Z</time></trkpt><trkpt lat="35.317763706818276" lon="-120.64539792763523"><ele>168.0</ele><time>2026-04-19T20:51:43Z</time></trkpt><trkpt lat="35.317798587798386" lon="-120.64531662445255"><ele>168.0</ele><time>2026-04-19T20:51:46Z</time></trkpt><trkpt lat="35.31784619694574" lon="-120.64524424065576"><ele>168.0</ele><time>2026-04-19T20:52:10.999Z</time></trkpt><trkpt lat="35.317904390529954" lon="-120.64516744833756"><ele>168.42857142857142</ele><time>2026-04-19T20:52:13.999Z</time></trkpt><trkpt lat="35.31794492659363" lon="-120.64510665562956"><ele>168.85714285714286</ele><time>2026-04-19T20:52:19.999Z</time></trkpt><trkpt lat="35.31798309458093" lon="-120.64502552550053"><ele>169.28571428571428</ele><time>2026-04-19T20:52:26.999Z</time></trkpt><trkpt lat="35.31802606802853" lon="-120.64495482969626"><ele>169.71428571428572</ele><time>2026-04-19T20:52:29.999Z</time></trkpt><trkpt lat="35.31807564419085" lon="-120.6449069793546"><ele>170.14285714285714</ele><time>2026-04-19T20:52:33.999Z</time></trkpt><trkpt lat="35.3181164385418" lon="-120.64484219436463"><ele>170.57142857142856</ele><time>2026-04-19T20:52:37.999Z</time></trkpt><trkpt lat="35.31815754128452" lon="-120.64478072706764"><ele>171.0</ele><time>2026-04-19T20:52:40.999Z</time></trkpt><trkpt lat="35.318193943143356" lon="-120.64470103236364"><ele>171.16666666666666</ele><time>2026-04-19T20:52:43.999Z</time></trkpt><trkpt lat="35.31821844420289" lon="-120.64462150008681"><ele>171.33333333333334</ele><time>2026-04-19T20:52:52Z</time></trkpt><trkpt lat="35.318241829223744" lon="-120.64453037149792"><ele>171.5</ele><time>2026-04-19T20:52:55Z</time></trkpt><trkpt lat="35.31826989003029" lon="-120.64442809382304"><ele>171.66666666666669</ele><time>2026-04-19T20:52:58Z</time></trkpt><trkpt lat="35.318282826080164" lon="-120.6443269902661"><ele>171.83333333333334</ele><time>2026-04-19T20:53:00Z</time></trkpt><trkpt lat="35.31831037701752" lon="-120.64420996639379"><ele>172.0</ele><time>2026-04-19T20:53:02Z</time></trkpt><trkpt lat="35.31836482606861" lon="-120.64405904552106"><ele>172.0</ele><time>2026-04-19T20:53:04Z</time></trkpt><trkpt lat="35.318389355876334" lon="-120.64397605258314"><ele>172.0</ele><time>2026-04-19T20:53:05Z</time></trkpt><trkpt lat="35.31839847625905" lon="-120.64389875451492"><ele>172.0</ele><time>2026-04-19T20:53:06Z</time></trkpt><trkpt lat="35.31841509661085" lon="-120.64375048305219"><ele>172.0</ele><time>2026-04-19T20:53:08Z</time></trkpt><trkpt lat="35.318457818879345" lon="-120.64363516653596"><ele>172.0</ele><time>2026-04-19T20:53:10Z</time></trkpt><trkpt lat="35.31851498957333" lon="-120.64352768132224"><ele>173.25</ele><time>2026-04-19T20:53:12Z</time></trkpt><trkpt lat="35.318568385285786" lon="-120.64341959482732"><ele>174.5</ele><time>2026-04-19T20:53:14Z</time></trkpt><trkpt lat="35.31864048580711" lon="-120.64330024579617"><ele>175.75</ele><time>2026-04-19T20:53:16Z</time></trkpt><trkpt lat="35.31870456629782" lon="-120.64318100524544"><ele>177.0</ele><time>2026-04-19T20:53:18Z</time></trkpt><trkpt lat="35.31877185587852" lon="-120.64306509269048"><ele>177.0</ele><time>2026-04-19T20:53:20Z</time></trkpt><trkpt lat="35.31883736251648" lon="-120.64295423259371"><ele>177.0</ele><time>2026-04-19T20:53:22Z</time></trkpt><trkpt lat="35.31889374710549" lon="-120.64284386054791"><ele>177.0</ele><time>2026-04-19T20:53:24Z</time></trkpt><trkpt lat="35.318936116859774" lon="-120.64272662417723"><ele>177.0</ele><time>2026-04-19T20:53:26Z</time></trkpt><trkpt lat="35.31895781449363" lon="-120.6426073086692"><ele>177.0</ele><time>2026-04-19T20:53:28Z</time></trkpt><trkpt lat="35.31898624460057" lon="-120.6424743454467"><ele>177.25</ele><time>2026-04-19T20:53:30Z</time></trkpt><trkpt lat="35.319012410692245" lon="-120.64234795789467"><ele>177.5</ele><time>2026-04-19T20:53:32Z</time></trkpt><trkpt lat="35.31907075203736" lon="-120.64226677057258"><ele>177.75</ele><time>2026-04-19T20:53:34Z</time></trkpt><trkpt lat="35.3192421039793" lon="-120.64217823870105"><ele>178.0</ele><time>2026-04-19T20:53:38Z</time></trkpt><trkpt lat="35.3193175941935" lon="-120.64211872903608"><ele>178.0</ele><time>2026-04-19T20:53:40Z</time></trkpt><trkpt lat="35.3193706614385" lon="-120.64206294154603"><ele>178.0</ele><time>2026-04-19T20:53:42Z</time></trkpt><trkpt lat="35.31942880632986" lon="-120.64200523656456"><ele>178.0</ele><time>2026-04-19T20:53:45Z</time></trkpt><trkpt lat="35.319515927490805" lon="-120.641943421795"><ele>178.0</ele><time>2026-04-19T20:53:48Z</time></trkpt><trkpt lat="35.319587715906614" lon="-120.6419396198893"><ele>178.0</ele><time>2026-04-19T20:53:50Z</time></trkpt><trkpt lat="35.31965787688689" lon="-120.64193604290146"><ele>178.0</ele><time>2026-04-19T20:53:52Z</time></trkpt><trkpt lat="35.319726187701306" lon="-120.64194878502809"><ele>179.0</ele><time>2026-04-19T20:53:54Z</time></trkpt><trkpt lat="35.31979396704148" lon="-120.64192293221922"><ele>180.0</ele><time>2026-04-19T20:53:56Z</time></trkpt><trkpt lat="35.31986174551796" lon="-120.64187338579328"><ele>181.0</ele><time>2026-04-19T20:53:59Z</time></trkpt><trkpt lat="35.31991888355969" lon="-120.64182635817521"><ele>182.0</ele><time>2026-04-19T20:54:02Z</time></trkpt><trkpt lat="35.319981033618376" lon="-120.64177869749855"><ele>183.0</ele><time>2026-04-19T20:54:06Z</time></trkpt><trkpt lat="35.32004626189392" lon="-120.64173706152931"><ele>184.0</ele><time>2026-04-19T20:54:10Z</time></trkpt><trkpt lat="35.32011470425736" lon="-120.64167341028516"><ele>184.0</ele><time>2026-04-19T20:54:14Z</time></trkpt><trkpt lat="35.32018513625001" lon="-120.64159806895991"><ele>184.0</ele><time>2026-04-19T20:54:18Z</time></trkpt><trkpt lat="35.320231144244005" lon="-120.64153337360158"><ele>184.0</ele><time>2026-04-19T20:54:22Z</time></trkpt><trkpt lat="35.32028089960804" lon="-120.64145638797012"><ele>184.0</ele><time>2026-04-19T20:54:26Z</time></trkpt><trkpt lat="35.32033742009895" lon="-120.64139405828024"><ele>184.0</ele><time>2026-04-19T20:54:29Z</time></trkpt><trkpt lat="35.320400871163244" lon="-120.64133936456302"><ele>184.0</ele><time>2026-04-19T20:54:32Z</time></trkpt><trkpt lat="35.320490365679504" lon="-120.64127085597826"><ele>184.0</ele><time>2026-04-19T20:54:34.999Z</time></trkpt><trkpt lat="35.32054540655943" lon="-120.64122991305544"><ele>184.0</ele><time>2026-04-19T20:54:36.999Z</time></trkpt><trkpt lat="35.32061530297885" lon="-120.64117513173524"><ele>184.0</ele><time>2026-04-19T20:54:39.999Z</time></trkpt><trkpt lat="35.3206800495814" lon="-120.64110963808795"><ele>184.0</ele><time>2026-04-19T20:54:42.999Z</time></trkpt><trkpt lat="35.320729958497004" lon="-120.64103528961962"><ele>184.0</ele><time>2026-04-19T20:54:45.999Z</time></trkpt><trkpt lat="35.320774563538635" lon="-120.64096179993795"><ele>184.0</ele><time>2026-04-19T20:54:48.999Z</time></trkpt><trkpt lat="35.32082328559465" lon="-120.64089365606353"><ele>184.71428571428572</ele><time>2026-04-19T20:54:52Z</time></trkpt><trkpt lat="35.32086802032007" lon="-120.64083674678596"><ele>185.42857142857142</ele><time>2026-04-19T20:54:55Z</time></trkpt><trkpt lat="35.320910843444956" lon="-120.64076480835202"><ele>186.14285714285714</ele><time>2026-04-19T20:54:58Z</time></trkpt><trkpt lat="35.3209614811032" lon="-120.6407026757364"><ele>186.85714285714286</ele><time>2026-04-19T20:55:02Z</time></trkpt><trkpt lat="35.32100276769406" lon="-120.6406402904987"><ele>187.57142857142856</ele><time>2026-04-19T20:55:05Z</time></trkpt><trkpt lat="35.32104968469572" lon="-120.64058267452307"><ele>188.28571428571428</ele><time>2026-04-19T20:55:08Z</time></trkpt><trkpt lat="35.32112507489516" lon="-120.64053951147719"><ele>189.0</ele><time>2026-04-19T20:55:12Z</time></trkpt><trkpt lat="35.321195607765006" lon="-120.64054566575172"><ele>189.0</ele><time>2026-04-19T20:55:15Z</time></trkpt><trkpt lat="35.321311830478884" lon="-120.64059029094886"><ele>189.0</ele><time>2026-04-19T20:55:18Z</time></trkpt><trkpt lat="35.32137510553014" lon="-120.64061381681492"><ele>189.0</ele><time>2026-04-19T20:55:21Z</time></trkpt><trkpt lat="35.32144229102035" lon="-120.64063529991404"><ele>189.0</ele><time>2026-04-19T20:55:25Z</time></trkpt><trkpt lat="35.32150423096992" lon="-120.64065618738225"><ele>189.0</ele><time>2026-04-19T20:55:28Z</time></trkpt><trkpt lat="35.321571708869136" lon="-120.64068208890424"><ele>189.0</ele><time>2026-04-19T20:55:31Z</time></trkpt><trkpt lat="35.321643153926104" lon="-120.6407126764401"><ele>189.5</ele><time>2026-04-19T20:55:34Z</time></trkpt><trkpt lat="35.32172638825692" lon="-120.6407414211104"><ele>190.0</ele><time>2026-04-19T20:55:37Z</time></trkpt><trkpt lat="35.32179901128566" lon="-120.64076901244545"><ele>190.5</ele><time>2026-04-19T20:55:40Z</time></trkpt><trkpt lat="35.321881764271026" lon="-120.6407992003926"><ele>191.0</ele><time>2026-04-19T20:55:42Z</time></trkpt><trkpt lat="35.32195524702961" lon="-120.64083453488968"><ele>191.5</ele><time>2026-04-19T20:55:46Z</time></trkpt><trkpt lat="35.32202810025837" lon="-120.64086455791535"><ele>192.0</ele><time>2026-04-19T20:55:49Z</time></trkpt><trkpt lat="35.322096208927036" lon="-120.64089498526256"><ele>192.0</ele><time>2026-04-19T20:55:52Z</time></trkpt><trkpt lat="35.322163074458395" lon="-120.64092300053623"><ele>192.0</ele><time>2026-04-19T20:55:54Z</time></trkpt><trkpt lat="35.322237984461246" lon="-120.64096197694158"><ele>192.0</ele><time>2026-04-19T20:55:57Z</time></trkpt><trkpt lat="35.32230311563898" lon="-120.6410131451062"><ele>192.0</ele><time>2026-04-19T20:56:01Z</time></trkpt><trkpt lat="35.3223744537358" lon="-120.64102070950815"><ele>192.0</ele><time>2026-04-19T20:56:26Z</time></trkpt><trkpt lat="35.32244362306137" lon="-120.64102425296626"><ele>192.0</ele><time>2026-04-19T20:56:30Z</time></trkpt><trkpt lat="35.322533761864854" lon="-120.64102612134334"><ele>193.42857142857142</ele><time>2026-04-19T20:56:33Z</time></trkpt><trkpt lat="35.32259935110995" lon="-120.64102358431647"><ele>194.85714285714286</ele><time>2026-04-19T20:56:35Z</time></trkpt><trkpt lat="35.322666952557285" lon="-120.64101811739103"><ele>196.28571428571428</ele><time>2026-04-19T20:56:37Z</time></trkpt><trkpt lat="35.32275362782202" lon="-120.6409985832612"><ele>197.71428571428572</ele><time>2026-04-19T20:56:40Z</time></trkpt><trkpt lat="35.32282475547858" lon="-120.64098517225536"><ele>199.14285714285714</ele><time>2026-04-19T20:56:42Z</time></trkpt><trkpt lat="35.32288873673349" lon="-120.64097999641089"><ele>200.57142857142856</ele><time>2026-04-19T20:56:44Z</time></trkpt><trkpt lat="35.32297803417654" lon="-120.64096058353006"><ele>202.0</ele><time>2026-04-19T20:56:47Z</time></trkpt><trkpt lat="35.323052860257505" lon="-120.64092130053632"><ele>202.49999999999997</ele><time>2026-04-19T20:56:50Z</time></trkpt><trkpt lat="35.32311176238382" lon="-120.64086341493255"><ele>203.0</ele><time>2026-04-19T20:56:53Z</time></trkpt><trkpt lat="35.32316298740497" lon="-120.6407863413584"><ele>203.5</ele><time>2026-04-19T20:56:56Z</time></trkpt><trkpt lat="35.323204971157374" lon="-120.640717307378"><ele>204.0</ele><time>2026-04-19T20:56:59Z</time></trkpt><trkpt lat="35.32325312150796" lon="-120.64063639889962"><ele>204.49999999999997</ele><time>2026-04-19T20:57:03Z</time></trkpt><trkpt lat="35.32331085701325" lon="-120.64054790906309"><ele>205.0</ele><time>2026-04-19T20:57:06Z</time></trkpt><trkpt lat="35.32335377290655" lon="-120.64047958360426"><ele>204.99999999999997</ele><time>2026-04-19T20:57:09Z</time></trkpt><trkpt lat="35.3233955406458" lon="-120.64039392330783"><ele>205.0</ele><time>2026-04-19T20:57:13Z</time></trkpt><trkpt lat="35.32342137422781" lon="-120.64030034650654"><ele>205.0</ele><time>2026-04-19T20:57:17Z</time></trkpt><trkpt lat="35.32342793292248" lon="-120.64021492323918"><ele>205.0</ele><time>2026-04-19T20:57:20Z</time></trkpt><trkpt lat="35.323436900820404" lon="-120.64010345445203"><ele>204.99999999999997</ele><time>2026-04-19T20:57:23Z</time></trkpt><trkpt lat="35.3234611623385" lon="-120.64001522439008"><ele>205.0</ele><time>2026-04-19T20:57:26Z</time></trkpt><trkpt lat="35.32348359469228" lon="-120.63993177370205"><ele>205.83333333333331</ele><time>2026-04-19T20:57:30Z</time></trkpt><trkpt lat="35.32350786008065" lon="-120.6398413968256"><ele>206.66666666666666</ele><time>2026-04-19T20:57:35Z</time></trkpt><trkpt lat="35.32353671247319" lon="-120.63976214993549"><ele>207.5</ele><time>2026-04-19T20:57:38Z</time></trkpt><trkpt lat="35.323580151399206" lon="-120.6396787937606"><ele>208.33333333333331</ele><time>2026-04-19T20:57:41Z</time></trkpt><trkpt lat="35.323630266400315" lon="-120.63960847781802"><ele>209.16666666666666</ele><time>2026-04-19T20:57:44Z</time></trkpt><trkpt lat="35.32368849515276" lon="-120.63953163018078"><ele>210.0</ele><time>2026-04-19T20:57:47Z</time></trkpt><trkpt lat="35.32374076983405" lon="-120.63945593624223"><ele>210.0</ele><time>2026-04-19T20:57:50Z</time></trkpt><trkpt lat="35.32377476062185" lon="-120.63939061737186"><ele>210.0</ele><time>2026-04-19T20:57:54Z</time></trkpt><trkpt lat="35.32384025569328" lon="-120.63938379590728"><ele>210.0</ele><time>2026-04-19T20:57:57Z</time></trkpt><trkpt lat="35.323848778971296" lon="-120.63946245497655"><ele>210.0</ele><time>2026-04-19T20:58:01Z</time></trkpt><trkpt lat="35.32387274771722" lon="-120.63953508546544"><ele>210.0</ele><time>2026-04-19T20:58:04Z</time></trkpt><trkpt lat="35.32386372981428" lon="-120.63962358740274"><ele>210.0</ele><time>2026-04-19T20:58:08Z</time></trkpt><trkpt lat="35.323857290814395" lon="-120.63971383767989"><ele>210.0</ele><time>2026-04-19T20:58:12Z</time></trkpt><trkpt lat="35.32385852012084" lon="-120.63979454081877"><ele>210.0</ele><time>2026-04-19T20:58:15Z</time></trkpt><trkpt lat="35.3238819539133" lon="-120.63988245627834"><ele>210.0</ele><time>2026-04-19T20:58:18Z</time></trkpt><trkpt lat="35.323934089023695" lon="-120.63993984796357"><ele>210.0</ele><time>2026-04-19T20:58:22Z</time></trkpt><trkpt lat="35.32398891678084" lon="-120.63998196669276"><ele>210.0</ele><time>2026-04-19T20:58:25Z</time></trkpt><trkpt lat="35.32405431282431" lon="-120.640032883242"><ele>210.0</ele><time>2026-04-19T20:58:29Z</time></trkpt><trkpt lat="35.32407989755354" lon="-120.64011361214611"><ele>210.0</ele><time>2026-04-19T21:00:34Z</time></trkpt><trkpt lat="35.32414576947412" lon="-120.6401396603722"><ele>210.0</ele><time>2026-04-19T21:01:09Z</time></trkpt><trkpt lat="35.324205044057514" lon="-120.64016982561063"><ele>211.14285714285714</ele><time>2026-04-19T21:01:15Z</time></trkpt><trkpt lat="35.32426058657024" lon="-120.64020775846714"><ele>212.28571428571428</ele><time>2026-04-19T21:01:21Z</time></trkpt><trkpt lat="35.324317309212404" lon="-120.64024766498474"><ele>213.42857142857144</ele><time>2026-04-19T21:01:27Z</time></trkpt><trkpt lat="35.32438295599499" lon="-120.6402903795611"><ele>214.57142857142856</ele><time>2026-04-19T21:01:34Z</time></trkpt><trkpt lat="35.32443259764108" lon="-120.64033922685239"><ele>215.71428571428572</ele><time>2026-04-19T21:01:40Z</time></trkpt><trkpt lat="35.324477930431854" lon="-120.64040174631808"><ele>216.85714285714286</ele><time>2026-04-19T21:01:46Z</time></trkpt><trkpt lat="35.32451904639862" lon="-120.64047192084371"><ele>218.0</ele><time>2026-04-19T21:01:52Z</time></trkpt><trkpt lat="35.32455895757079" lon="-120.6405508237477"><ele>218.0</ele><time>2026-04-19T21:01:58Z</time></trkpt><trkpt lat="35.324597987245454" lon="-120.64062469858378"><ele>218.0</ele><time>2026-04-19T21:02:04Z</time></trkpt><trkpt lat="35.32464680048702" lon="-120.6406803296577"><ele>218.0</ele><time>2026-04-19T21:02:10Z</time></trkpt><trkpt lat="35.3247001790769" lon="-120.64072614072924"><ele>218.0</ele><time>2026-04-19T21:02:16Z</time></trkpt><trkpt lat="35.32476176791151" lon="-120.64076300939578"><ele>218.0</ele><time>2026-04-19T21:02:22Z</time></trkpt><trkpt lat="35.324824550376306" lon="-120.64080590895381"><ele>218.0</ele><time>2026-04-19T21:02:29Z</time></trkpt><trkpt lat="35.324883832943414" lon="-120.64085749558356"><ele>218.0</ele><time>2026-04-19T21:02:36Z</time></trkpt><trkpt lat="35.324940843844296" lon="-120.6409090385881"><ele>220.28571428571428</ele><time>2026-04-19T21:02:43Z</time></trkpt><trkpt lat="35.32500690315686" lon="-120.64095306728574"><ele>222.57142857142858</ele><time>2026-04-19T21:02:52Z</time></trkpt><trkpt lat="35.32506548988067" lon="-120.64100664008"><ele>224.85714285714286</ele><time>2026-04-19T21:02:56Z</time></trkpt><trkpt lat="35.32512939668421" lon="-120.64103670170579"><ele>227.14285714285717</ele><time>2026-04-19T21:02:59Z</time></trkpt><trkpt lat="35.32519486356283" lon="-120.64106204863667"><ele>229.42857142857144</ele><time>2026-04-19T21:03:03Z</time></trkpt><trkpt lat="35.32526704349565" lon="-120.64107069617951"><ele>231.71428571428572</ele><time>2026-04-19T21:03:08Z</time></trkpt><trkpt lat="35.32534824860141" lon="-120.64107178362907"><ele>234.0</ele><time>2026-04-19T21:03:13Z</time></trkpt><trkpt lat="35.32541953340995" lon="-120.64106857819498"><ele>234.0</ele><time>2026-04-19T21:03:18Z</time></trkpt><trkpt lat="35.325482211903264" lon="-120.64106132004588"><ele>234.00000000000003</ele><time>2026-04-19T21:03:27Z</time></trkpt><trkpt lat="35.325550326580604" lon="-120.6410505064482"><ele>234.0</ele><time>2026-04-19T21:03:37Z</time></trkpt><trkpt lat="35.3256168265968" lon="-120.64104095880023"><ele>234.0</ele><time>2026-04-19T21:03:47Z</time></trkpt><trkpt lat="35.32568035836008" lon="-120.64103057817864"><ele>234.00000000000003</ele><time>2026-04-19T21:03:58Z</time></trkpt><trkpt lat="35.32574992288825" lon="-120.64100150350086"><ele>234.0</ele><time>2026-04-19T21:04:05Z</time></trkpt><trkpt lat="35.32581159526032" lon="-120.64097585398834"><ele>234.0</ele><time>2026-04-19T21:04:11Z</time></trkpt><trkpt lat="35.325890040016006" lon="-120.64095228543295"><ele>236.33333333333334</ele><time>2026-04-19T21:04:28Z</time></trkpt><trkpt lat="35.32595064849718" lon="-120.64090618057851"><ele>238.66666666666669</ele><time>2026-04-19T21:04:32Z</time></trkpt><trkpt lat="35.32602116936949" lon="-120.64088139035222"><ele>241.0</ele><time>2026-04-19T21:04:36Z</time></trkpt><trkpt lat="35.32608939166521" lon="-120.64085556614953"><ele>243.33333333333334</ele><time>2026-04-19T21:04:39Z</time></trkpt><trkpt lat="35.32618538085343" lon="-120.64083920460594"><ele>245.66666666666669</ele><time>2026-04-19T21:04:42Z</time></trkpt><trkpt lat="35.326258215190336" lon="-120.64082668420824"><ele>248.0</ele><time>2026-04-19T21:04:44Z</time></trkpt><trkpt lat="35.32633223044348" lon="-120.64084500382535"><ele>248.00000000000003</ele><time>2026-04-19T21:04:46Z</time></trkpt><trkpt lat="35.32636196433102" lon="-120.6409427521073"><ele>248.0</ele><time>2026-04-19T21:04:48Z</time></trkpt><trkpt lat="35.32632884208999" lon="-120.64103044887945"><ele>248.0</ele><time>2026-04-19T21:04:50Z</time></trkpt><trkpt lat="35.32630781417858" lon="-120.64113149064079"><ele>248.0</ele><time>2026-04-19T21:04:53Z</time></trkpt><trkpt lat="35.32629241977081" lon="-120.64122756420062"><ele>248.00000000000003</ele><time>2026-04-19T21:04:56Z</time></trkpt><trkpt lat="35.32628396720393" lon="-120.64132561895875"><ele>248.0</ele><time>2026-04-19T21:04:59Z</time></trkpt><trkpt lat="35.32628452503419" lon="-120.64140327665342"><ele>249.14285714285717</ele><time>2026-04-19T21:05:02Z</time></trkpt><trkpt lat="35.32630414229779" lon="-120.6414848594806"><ele>250.2857142857143</ele><time>2026-04-19T21:05:04Z</time></trkpt><trkpt lat="35.326344209334366" lon="-120.64156842396811"><ele>251.42857142857144</ele><time>2026-04-19T21:05:07Z</time></trkpt><trkpt lat="35.32640259409292" lon="-120.64161605891907"><ele>252.57142857142856</ele><time>2026-04-19T21:05:10Z</time></trkpt><trkpt lat="35.32646591700144" lon="-120.64164183235778"><ele>253.7142857142857</ele><time>2026-04-19T21:05:13Z</time></trkpt><trkpt lat="35.326535011094336" lon="-120.64167245990159"><ele>254.85714285714283</ele><time>2026-04-19T21:05:17Z</time></trkpt><trkpt lat="35.326591655957316" lon="-120.64162396075517"><ele>256.0</ele><time>2026-04-19T21:05:21Z</time></trkpt><trkpt lat="35.3266656824261" lon="-120.64164602293772"><ele>256.0</ele><time>2026-04-19T21:05:26Z</time></trkpt><trkpt lat="35.326747247813024" lon="-120.64161960912222"><ele>255.99999999999997</ele><time>2026-04-19T21:05:30Z</time></trkpt><trkpt lat="35.32681793841411" lon="-120.64158183524975"><ele>256.0</ele><time>2026-04-19T21:05:34Z</time></trkpt><trkpt lat="35.32687802457018" lon="-120.64155257789646"><ele>256.0</ele><time>2026-04-19T21:05:43Z</time></trkpt><trkpt lat="35.326942085143486" lon="-120.64152230464774"><ele>255.99999999999997</ele><time>2026-04-19T21:05:53Z</time></trkpt><trkpt lat="35.3270050001478" lon="-120.64149716820408"><ele>256.0</ele><time>2026-04-19T21:06:03Z</time></trkpt><trkpt lat="35.32707296820573" lon="-120.64148112793866"><ele>256.0</ele><time>2026-04-19T21:06:12Z</time></trkpt><trkpt lat="35.32714345451549" lon="-120.64147974857171"><ele>256.0</ele><time>2026-04-19T21:06:19Z</time></trkpt><trkpt lat="35.32720673025387" lon="-120.6415096708524"><ele>255.99999999999997</ele><time>2026-04-19T21:06:25Z</time></trkpt><trkpt lat="35.3272666727813" lon="-120.64155607965445"><ele>256.0</ele><time>2026-04-19T21:06:31Z</time></trkpt><trkpt lat="35.327312017256034" lon="-120.64161439383139"><ele>256.0</ele><time>2026-04-19T21:06:36Z</time></trkpt><trkpt lat="35.32732496907385" lon="-120.64169527783088"><ele>255.99999999999997</ele><time>2026-04-19T21:06:41Z</time></trkpt><trkpt lat="35.327306446997056" lon="-120.64177495447375"><ele>256.0</ele><time>2026-04-19T21:06:46Z</time></trkpt><trkpt lat="35.32728713728694" lon="-120.6418529241172"><ele>256.0</ele><time>2026-04-19T21:06:51Z</time></trkpt><trkpt lat="35.32727687037767" lon="-120.64193562157676"><ele>257.2857142857143</ele><time>2026-04-19T21:06:57Z</time></trkpt><trkpt lat="35.327289668247595" lon="-120.64201985687153"><ele>258.57142857142856</ele><time>2026-04-19T21:07:02Z</time></trkpt><trkpt lat="35.32731832932711" lon="-120.6420898922154"><ele>259.85714285714283</ele><time>2026-04-19T21:07:07Z</time></trkpt><trkpt lat="35.32734994099213" lon="-120.64216570455855"><ele>261.1428571428571</ele><time>2026-04-19T21:07:13Z</time></trkpt><trkpt lat="35.327401124783464" lon="-120.64222137658727"><ele>262.42857142857144</ele><time>2026-04-19T21:07:19Z</time></trkpt><trkpt lat="35.327452759866375" lon="-120.64226704829841"><ele>263.71428571428567</ele><time>2026-04-19T21:07:25Z</time></trkpt><trkpt lat="35.32751359656849" lon="-120.64230133293593"><ele>265.0</ele><time>2026-04-19T21:07:31Z</time></trkpt><trkpt lat="35.32757890781815" lon="-120.64232062810926"><ele>264.99999999999994</ele><time>2026-04-19T21:07:37Z</time></trkpt><trkpt lat="35.32764507783447" lon="-120.64232477200159"><ele>265.0</ele><time>2026-04-19T21:07:43Z</time></trkpt><trkpt lat="35.32771415027369" lon="-120.64231488530046"><ele>265.0</ele><time>2026-04-19T21:07:50Z</time></trkpt><trkpt lat="35.32777955361283" lon="-120.6422980018932"><ele>265.0</ele><time>2026-04-19T21:07:57Z</time></trkpt><trkpt lat="35.32784169051459" lon="-120.6422790178374"><ele>265.0</ele><time>2026-04-19T21:08:03Z</time></trkpt><trkpt lat="35.327907451516054" lon="-120.64225792942278"><ele>264.99999999999994</ele><time>2026-04-19T21:08:10Z</time></trkpt><trkpt lat="35.32797523703947" lon="-120.6422371429412"><ele>265.0</ele><time>2026-04-19T21:08:16Z</time></trkpt><trkpt lat="35.32805194692152" lon="-120.64220467289664"><ele>266.2857142857143</ele><time>2026-04-19T21:08:20Z</time></trkpt><trkpt lat="35.32812801802684" lon="-120.64217404405399"><ele>267.57142857142856</ele><time>2026-04-19T21:08:24Z</time></trkpt><trkpt lat="35.32820439953524" lon="-120.64214078918846"><ele>268.8571428571429</ele><time>2026-04-19T21:08:28Z</time></trkpt><trkpt lat="35.32826364610449" lon="-120.64211438960311"><ele>270.1428571428571</ele><time>2026-04-19T21:08:31Z</time></trkpt><trkpt lat="35.328327749699355" lon="-120.64208798345906"><ele>271.42857142857144</ele><time>2026-04-19T21:08:33Z</time></trkpt><trkpt lat="35.32841123566959" lon="-120.64205285966281"><ele>272.7142857142857</ele><time>2026-04-19T21:08:36Z</time></trkpt><trkpt lat="35.32847251065173" lon="-120.64202936142104"><ele>274.0</ele><time>2026-04-19T21:08:39Z</time></trkpt><trkpt lat="35.32853475064182" lon="-120.64200572278087"><ele>274.00000000000006</ele><time>2026-04-19T21:08:42Z</time></trkpt><trkpt lat="35.32859527364604" lon="-120.64198222508757"><ele>274.0</ele><time>2026-04-19T21:08:45Z</time></trkpt><trkpt lat="35.32866252346845" lon="-120.64194937712386"><ele>274.0</ele><time>2026-04-19T21:08:48Z</time></trkpt><trkpt lat="35.32872823996465" lon="-120.6419041270083"><ele>274.0</ele><time>2026-04-19T21:08:51Z</time></trkpt><trkpt lat="35.32879310924453" lon="-120.64186953157352"><ele>274.0</ele><time>2026-04-19T21:08:54Z</time></trkpt><trkpt lat="35.328859957631146" lon="-120.64183136523128"><ele>274.00000000000006</ele><time>2026-04-19T21:08:57Z</time></trkpt><trkpt lat="35.328924619479594" lon="-120.64182261713252"><ele>274.0</ele><time>2026-04-19T21:09:00Z</time></trkpt><trkpt lat="35.328996355796356" lon="-120.64184927579542"><ele>274.0</ele><time>2026-04-19T21:09:03Z</time></trkpt><trkpt lat="35.32899063680548" lon="-120.6419415888597"><ele>274.0</ele><time>2026-04-19T21:09:07Z</time></trkpt><trkpt lat="35.328953144879286" lon="-120.6420298659762"><ele>274.0</ele><time>2026-04-19T21:09:10Z</time></trkpt><trkpt lat="35.3289414476438" lon="-120.6421532673868"><ele>274.0</ele><time>2026-04-19T21:09:12Z</time></trkpt><trkpt lat="35.328900599562" lon="-120.64224552158674"><ele>274.0</ele><time>2026-04-19T21:09:13Z</time></trkpt><trkpt lat="35.3288904809893" lon="-120.64234264041367"><ele>274.0</ele><time>2026-04-19T21:09:15Z</time></trkpt><trkpt lat="35.32888714522386" lon="-120.64244228557607"><ele>276.16666666666663</ele><time>2026-04-19T21:09:18Z</time></trkpt><trkpt lat="35.3289057608086" lon="-120.64253161538377"><ele>278.3333333333333</ele><time>2026-04-19T21:09:21Z</time></trkpt><trkpt lat="35.32892895318863" lon="-120.64261811335629"><ele>280.5</ele><time>2026-04-19T21:09:24Z</time></trkpt><trkpt lat="35.32894642290215" lon="-120.64270264866596"><ele>282.6666666666667</ele><time>2026-04-19T21:09:27Z</time></trkpt><trkpt lat="35.328976858781616" lon="-120.64277778350711"><ele>284.83333333333337</ele><time>2026-04-19T21:09:29Z</time></trkpt><trkpt lat="35.32899839211792" lon="-120.64288224898577"><ele>287.0</ele><time>2026-04-19T21:09:32Z</time></trkpt><trkpt lat="35.32903537586096" lon="-120.64296139738438"><ele>287.0</ele><time>2026-04-19T21:09:36Z</time></trkpt><trkpt lat="35.32904058306179" lon="-120.64305632066957"><ele>287.0</ele><time>2026-04-19T21:09:40Z</time></trkpt><trkpt lat="35.32905237313114" lon="-120.64315516387059"><ele>287.0</ele><time>2026-04-19T21:09:44Z</time></trkpt><trkpt lat="35.32910613332061" lon="-120.64311372982122"><ele>287.0</ele><time>2026-04-19T21:09:51Z</time></trkpt><trkpt lat="35.32913467570323" lon="-120.64302108597404"><ele>287.0</ele><time>2026-04-19T21:09:55Z</time></trkpt><trkpt lat="35.329158997203415" lon="-120.64294723307326"><ele>287.0</ele><time>2026-04-19T21:09:58Z</time></trkpt><trkpt lat="35.329208040000424" lon="-120.64285855515344"><ele>287.42857142857144</ele><time>2026-04-19T21:10:02Z</time></trkpt><trkpt lat="35.32924266955722" lon="-120.64277047897362"><ele>287.8571428571429</ele><time>2026-04-19T21:10:07Z</time></trkpt><trkpt lat="35.32926592699633" lon="-120.64269084757444"><ele>288.2857142857143</ele><time>2026-04-19T21:10:12Z</time></trkpt><trkpt lat="35.32930385341068" lon="-120.64262326293189"><ele>288.7142857142857</ele><time>2026-04-19T21:10:30Z</time></trkpt><trkpt lat="35.32935186600283" lon="-120.6425663659796"><ele>289.14285714285717</ele><time>2026-04-19T21:10:39Z</time></trkpt><trkpt lat="35.32940349903993" lon="-120.64252126042277"><ele>289.57142857142856</ele><time>2026-04-19T21:10:48Z</time></trkpt><trkpt lat="35.32944854489605" lon="-120.64245781302361"><ele>290.0</ele><time>2026-04-19T21:10:57Z</time></trkpt><trkpt lat="35.32949421543096" lon="-120.64239421825295"><ele>290.0</ele><time>2026-04-19T21:11:05Z</time></trkpt><trkpt lat="35.32953464250731" lon="-120.64233292784985"><ele>290.0</ele><time>2026-04-19T21:11:12Z</time></trkpt><trkpt lat="35.329581769162935" lon="-120.64226411710537"><ele>290.0</ele><time>2026-04-19T21:11:19Z</time></trkpt><trkpt lat="35.329630910684614" lon="-120.64221559984087"><ele>290.0</ele><time>2026-04-19T21:11:25Z</time></trkpt><trkpt lat="35.32968813738353" lon="-120.64216228973912"><ele>290.0</ele><time>2026-04-19T21:11:32Z</time></trkpt><trkpt lat="35.32971595824919" lon="-120.6420881665996"><ele>290.0</ele><time>2026-04-19T21:11:39Z</time></trkpt><trkpt lat="35.329799405222964" lon="-120.64196667212974"><ele>293.0</ele><time>2026-04-19T21:14:28Z</time></trkpt><trkpt lat="35.32985283092622" lon="-120.64201300209523"><ele>296.0</ele><time>2026-04-19T21:14:31Z</time></trkpt><trkpt lat="35.32989646832452" lon="-120.64208154474898"><ele>299.0</ele><time>2026-04-19T21:14:34Z</time></trkpt><trkpt lat="35.32995947646872" lon="-120.64214043795647"><ele>302.0</ele><time>2026-04-19T21:14:37Z</time></trkpt><trkpt lat="35.33001148412346" lon="-120.64222549273188"><ele>305.0</ele><time>2026-04-19T21:14:40Z</time></trkpt><trkpt lat="35.33004984568757" lon="-120.64228785329423"><ele>308.0</ele><time>2026-04-19T21:14:42Z</time></trkpt><trkpt lat="35.33009911423543" lon="-120.64236083561764"><ele>311.0</ele><time>2026-04-19T21:14:44Z</time></trkpt><trkpt lat="35.330149354001676" lon="-120.64244709988282"><ele>311.0</ele><time>2026-04-19T21:14:46Z</time></trkpt><trkpt lat="35.330208798860056" lon="-120.64252895936244"><ele>311.0</ele><time>2026-04-19T21:14:48Z</time></trkpt><trkpt lat="35.330266139832844" lon="-120.64260705123698"><ele>311.0</ele><time>2026-04-19T21:14:50Z</time></trkpt><trkpt lat="35.33032803852446" lon="-120.6426789504871"><ele>311.0</ele><time>2026-04-19T21:14:52Z</time></trkpt><trkpt lat="35.33037763921093" lon="-120.64274635764558"><ele>311.0</ele><time>2026-04-19T21:14:54Z</time></trkpt><trkpt lat="35.33042147957188" lon="-120.6428256233916"><ele>311.0</ele><time>2026-04-19T21:14:56Z</time></trkpt><trkpt lat="35.33047736436213" lon="-120.64290749697561"><ele>309.6</ele><time>2026-04-19T21:14:58Z</time></trkpt><trkpt lat="35.33052917099296" lon="-120.64299563774759"><ele>308.20000000000005</ele><time>2026-04-19T21:15:00Z</time></trkpt><trkpt lat="35.33058709897568" lon="-120.6430820716296"><ele>306.79999999999995</ele><time>2026-04-19T21:15:02Z</time></trkpt><trkpt lat="35.33064033293256" lon="-120.64316813430173"><ele>305.4</ele><time>2026-04-19T21:15:04Z</time></trkpt><trkpt lat="35.330699687793995" lon="-120.64325408291809"><ele>304.0</ele><time>2026-04-19T21:15:06Z</time></trkpt><trkpt lat="35.3307512682128" lon="-120.64334609072219"><ele>304.0</ele><time>2026-04-19T21:15:08Z</time></trkpt><trkpt lat="35.33081077294182" lon="-120.64344845027927"><ele>304.0</ele><time>2026-04-19T21:15:10Z</time></trkpt><trkpt lat="35.33087103981546" lon="-120.64355079088479"><ele>304.0</ele><time>2026-04-19T21:15:12Z</time></trkpt><trkpt lat="35.33092513432921" lon="-120.64365134534067"><ele>304.0</ele><time>2026-04-19T21:15:14Z</time></trkpt><trkpt lat="35.330976984862176" lon="-120.64375202187047"><ele>304.0</ele><time>2026-04-19T21:15:16Z</time></trkpt><trkpt lat="35.33101774536215" lon="-120.64383883555355"><ele>302.2</ele><time>2026-04-19T21:15:18Z</time></trkpt><trkpt lat="35.33106506370255" lon="-120.64393208217676"><ele>300.4</ele><time>2026-04-19T21:15:20Z</time></trkpt><trkpt lat="35.33111366545887" lon="-120.6440396929469"><ele>298.6</ele><time>2026-04-19T21:15:22Z</time></trkpt><trkpt lat="35.33116026121824" lon="-120.64415458863316"><ele>296.8</ele><time>2026-04-19T21:15:24Z</time></trkpt><trkpt lat="35.33120783006578" lon="-120.64427026823887"><ele>295.0</ele><time>2026-04-19T21:15:26Z</time></trkpt><trkpt lat="35.331257590601616" lon="-120.64438443625667"><ele>294.0</ele><time>2026-04-19T21:15:28Z</time></trkpt><trkpt lat="35.33129076784372" lon="-120.64451059987759"><ele>293.0</ele><time>2026-04-19T21:15:30Z</time></trkpt><trkpt lat="35.331268709390194" lon="-120.64463341972531"><ele>292.0</ele><time>2026-04-19T21:15:32Z</time></trkpt><trkpt lat="35.33126784990282" lon="-120.64472095684346"><ele>291.0</ele><time>2026-04-19T21:15:34Z</time></trkpt><trkpt lat="35.331359856247666" lon="-120.64478510116375"><ele>290.0</ele><time>2026-04-19T21:15:36Z</time></trkpt><trkpt lat="35.33144457693228" lon="-120.64485615079656"><ele>292.0</ele><time>2026-04-19T21:15:38Z</time></trkpt><trkpt lat="35.33149030085975" lon="-120.64496331063062"><ele>294.0</ele><time>2026-04-19T21:15:40Z</time></trkpt><trkpt lat="35.331549992637676" lon="-120.6450702578502"><ele>296.0</ele><time>2026-04-19T21:15:42Z</time></trkpt><trkpt lat="35.33161464802409" lon="-120.64512894436622"><ele>298.0</ele><time>2026-04-19T21:15:44Z</time></trkpt><trkpt lat="35.33167717071366" lon="-120.64514239196386"><ele>300.0</ele><time>2026-04-19T21:15:47Z</time></trkpt><trkpt lat="35.33175218891922" lon="-120.64518371773477"><ele>302.0</ele><time>2026-04-19T21:15:50Z</time></trkpt><trkpt lat="35.33180731415977" lon="-120.64525767594496"><ele>300.8</ele><time>2026-04-19T21:15:52Z</time></trkpt><trkpt lat="35.33183588072171" lon="-120.64536602488435"><ele>299.6</ele><time>2026-04-19T21:15:54Z</time></trkpt><trkpt lat="35.331878337666545" lon="-120.64548380521734"><ele>298.40000000000003</ele><time>2026-04-19T21:15:56.001Z</time></trkpt><trkpt lat="35.33191998724851" lon="-120.64560988681889"><ele>297.2</ele><time>2026-04-19T21:15:58.001Z</time></trkpt><trkpt lat="35.331974288172844" lon="-120.64573064353552"><ele>296.0</ele><time>2026-04-19T21:16:00.001Z</time></trkpt><trkpt lat="35.33202865870425" lon="-120.64586383441217"><ele>296.0</ele><time>2026-04-19T21:16:02.001Z</time></trkpt><trkpt lat="35.332050936329225" lon="-120.645936846508"><ele>296.0</ele><time>2026-04-19T21:16:03.001Z</time></trkpt><trkpt lat="35.33207317076089" lon="-120.64600988922345"><ele>296.0</ele><time>2026-04-19T21:16:04.001Z</time></trkpt><trkpt lat="35.33213773859338" lon="-120.64613876789103"><ele>296.0</ele><time>2026-04-19T21:16:06.001Z</time></trkpt><trkpt lat="35.33216795474345" lon="-120.64621189772632"><ele>296.0</ele><time>2026-04-19T21:16:07.001Z</time></trkpt><trkpt lat="35.33219619959869" lon="-120.646285806797"><ele>296.0</ele><time>2026-04-19T21:16:08Z</time></trkpt><trkpt lat="35.33222096729676" lon="-120.64636038435867"><ele>297.1666666666667</ele><time>2026-04-19T21:16:09Z</time></trkpt><trkpt lat="35.332248253586734" lon="-120.64643544137873"><ele>298.33333333333337</ele><time>2026-04-19T21:16:10Z</time></trkpt><trkpt lat="35.33227684820908" lon="-120.64650481171356"><ele>299.5</ele><time>2026-04-19T21:16:11Z</time></trkpt><trkpt lat="35.33232537071505" lon="-120.64662517209645"><ele>300.6666666666667</ele><time>2026-04-19T21:16:13Z</time></trkpt><trkpt lat="35.33234102001902" lon="-120.64673946289946"><ele>301.8333333333333</ele><time>2026-04-19T21:16:15Z</time></trkpt><trkpt lat="35.33233205251233" lon="-120.64682777433757"><ele>303.0</ele><time>2026-04-19T21:16:17Z</time></trkpt><trkpt lat="35.33232415910809" lon="-120.64692384055462"><ele>302.1666666666667</ele><time>2026-04-19T21:16:19Z</time></trkpt><trkpt lat="35.33233344865159" lon="-120.6470399980935"><ele>301.3333333333333</ele><time>2026-04-19T21:16:21Z</time></trkpt><trkpt lat="35.33234883999229" lon="-120.6471159737535"><ele>300.5</ele><time>2026-04-19T21:16:22Z</time></trkpt><trkpt lat="35.33235957064536" lon="-120.64719796144722"><ele>299.66666666666663</ele><time>2026-04-19T21:16:23Z</time></trkpt><trkpt lat="35.332366176933625" lon="-120.6472841087897"><ele>298.8333333333333</ele><time>2026-04-19T21:16:24Z</time></trkpt><trkpt lat="35.332373623560784" lon="-120.64737260325803"><ele>298.0</ele><time>2026-04-19T21:16:25Z</time></trkpt><trkpt lat="35.33241382098472" lon="-120.64747386146215"><ele>298.0</ele><time>2026-04-19T21:16:27Z</time></trkpt><trkpt lat="35.33244178170055" lon="-120.64754416667039"><ele>298.0</ele><time>2026-04-19T21:16:29Z</time></trkpt><trkpt lat="35.33248729629968" lon="-120.64764522779548"><ele>298.0</ele><time>2026-04-19T21:16:31Z</time></trkpt><trkpt lat="35.332524582219705" lon="-120.64773879907997"><ele>298.0</ele><time>2026-04-19T21:16:33Z</time></trkpt><trkpt lat="35.332557681399436" lon="-120.64782542004693"><ele>298.0</ele><time>2026-04-19T21:16:34.999Z</time></trkpt><trkpt lat="35.33259129975751" lon="-120.64791382118425"><ele>298.0</ele><time>2026-04-19T21:16:36.999Z</time></trkpt><trkpt lat="35.33261693041721" lon="-120.64800700765734"><ele>296.16666666666663</ele><time>2026-04-19T21:16:38.999Z</time></trkpt><trkpt lat="35.33265938032969" lon="-120.64810155853924"><ele>294.3333333333333</ele><time>2026-04-19T21:16:41.999Z</time></trkpt><trkpt lat="35.332701902236685" lon="-120.64816796292166"><ele>292.5</ele><time>2026-04-19T21:16:45.999Z</time></trkpt><trkpt lat="35.3327383265777" lon="-120.64824040459537"><ele>290.6666666666667</ele><time>2026-04-19T21:16:48.999Z</time></trkpt><trkpt lat="35.33278832595678" lon="-120.64831125477865"><ele>288.83333333333337</ele><time>2026-04-19T21:16:50.999Z</time></trkpt><trkpt lat="35.332840107956294" lon="-120.64839096144676"><ele>287.0</ele><time>2026-04-19T21:16:52.999Z</time></trkpt><trkpt lat="35.332880832313116" lon="-120.64850214385658"><ele>285.25</ele><time>2026-04-19T21:16:54.999Z</time></trkpt><trkpt lat="35.33293021840928" lon="-120.64862800819348"><ele>283.5</ele><time>2026-04-19T21:16:56.999Z</time></trkpt><trkpt lat="35.33297376764594" lon="-120.64876457381871"><ele>281.75</ele><time>2026-04-19T21:16:58.999Z</time></trkpt><trkpt lat="35.333011664402264" lon="-120.648900963357"><ele>280.0</ele><time>2026-04-19T21:17:00.999Z</time></trkpt><trkpt lat="35.333034806077514" lon="-120.64903302299311"><ele>280.0</ele><time>2026-04-19T21:17:02.999Z</time></trkpt><trkpt lat="35.333051238757804" lon="-120.64916886434746"><ele>280.0</ele><time>2026-04-19T21:17:04.999Z</time></trkpt><trkpt lat="35.3330610507817" lon="-120.64924768100002"><ele>280.0</ele><time>2026-04-19T21:17:05.999Z</time></trkpt><trkpt lat="35.333073348516585" lon="-120.64939453913773"><ele>280.0</ele><time>2026-04-19T21:17:07.999Z</time></trkpt><trkpt lat="35.33307172204089" lon="-120.64953079053147"><ele>280.0</ele><time>2026-04-19T21:17:09.999Z</time></trkpt><trkpt lat="35.3330671807003" lon="-120.64966482557556"><ele>279.5</ele><time>2026-04-19T21:17:11.999Z</time></trkpt><trkpt lat="35.33305635230969" lon="-120.64978997332885"><ele>279.0</ele><time>2026-04-19T21:17:13.999Z</time></trkpt><trkpt lat="35.333036533625105" lon="-120.64993224620967"><ele>278.5</ele><time>2026-04-19T21:17:15.999Z</time></trkpt><trkpt lat="35.3330340540304" lon="-120.65001074361017"><ele>278.0</ele><time>2026-04-19T21:17:16.999Z</time></trkpt><trkpt lat="35.3330330458832" lon="-120.65009007290801"><ele>277.5</ele><time>2026-04-19T21:17:17.999Z</time></trkpt><trkpt lat="35.3330289834343" lon="-120.6501678641936"><ele>277.0</ele><time>2026-04-19T21:17:18.999Z</time></trkpt><trkpt lat="35.333018351771905" lon="-120.65024739440906"><ele>277.66666666666663</ele><time>2026-04-19T21:17:19.999Z</time></trkpt><trkpt lat="35.33300801113909" lon="-120.6503242393568"><ele>278.3333333333333</ele><time>2026-04-19T21:17:20.999Z</time></trkpt><trkpt lat="35.33299823207899" lon="-120.650402010436"><ele>279.0</ele><time>2026-04-19T21:17:21.999Z</time></trkpt><trkpt lat="35.332986453292605" lon="-120.6504789598105"><ele>279.6666666666667</ele><time>2026-04-19T21:17:22.999Z</time></trkpt><trkpt lat="35.332974353863065" lon="-120.65055524078055"><ele>280.33333333333337</ele><time>2026-04-19T21:17:23.999Z</time></trkpt><trkpt lat="35.33295822010458" lon="-120.65070317010436"><ele>281.0</ele><time>2026-04-19T21:17:25.999Z</time></trkpt><trkpt lat="35.33292520532661" lon="-120.65082919281774"><ele>281.0</ele><time>2026-04-19T21:17:27.999Z</time></trkpt><trkpt lat="35.33290217700325" lon="-120.65091444976125"><ele>281.0</ele><time>2026-04-19T21:17:29.999Z</time></trkpt><trkpt lat="35.332871443155746" lon="-120.6510051660516"><ele>281.0</ele><time>2026-04-19T21:17:31.999Z</time></trkpt><trkpt lat="35.332848662452925" lon="-120.6511117263325"><ele>281.0</ele><time>2026-04-19T21:17:34.999Z</time></trkpt><trkpt lat="35.33283825512133" lon="-120.65121565198416"><ele>281.0</ele><time>2026-04-19T21:17:37.999Z</time></trkpt><trkpt lat="35.33283138056982" lon="-120.65113247930702"><ele>281.0</ele><time>2026-04-19T21:19:03.999Z</time></trkpt><trkpt lat="35.33284105053136" lon="-120.65105381871005"><ele>281.00000000000006</ele><time>2026-04-19T21:19:08.999Z</time></trkpt><trkpt lat="35.33285956450708" lon="-120.65097663206325"><ele>281.0</ele><time>2026-04-19T21:19:13.999Z</time></trkpt><trkpt lat="35.332901898032205" lon="-120.65091450541836"><ele>281.0</ele><time>2026-04-19T21:19:18.999Z</time></trkpt><trkpt lat="35.3329730351577" lon="-120.65093056517944"><ele>281.0</ele><time>2026-04-19T21:19:23.999Z</time></trkpt><trkpt lat="35.33299586427566" lon="-120.65102743349792"><ele>281.0</ele><time>2026-04-19T21:19:30.999Z</time></trkpt><trkpt lat="35.33300683617302" lon="-120.651110327815"><ele>281.00000000000006</ele><time>2026-04-19T21:19:33.999Z</time></trkpt><trkpt lat="35.33301665643317" lon="-120.65120997988151"><ele>281.0</ele><time>2026-04-19T21:19:34.999Z</time></trkpt><trkpt lat="35.33302483714124" lon="-120.65133486654557"><ele>280.6</ele><time>2026-04-19T21:19:36.999Z</time></trkpt><trkpt lat="35.333013909922165" lon="-120.65146666558539"><ele>280.20000000000005</ele><time>2026-04-19T21:19:37.999Z</time></trkpt><trkpt lat="35.33303112679695" lon="-120.65161067829668"><ele>279.79999999999995</ele><time>2026-04-19T21:19:39.999Z</time></trkpt><trkpt lat="35.333054156094185" lon="-120.65176557254226"><ele>279.4</ele><time>2026-04-19T21:19:41.999Z</time></trkpt><trkpt lat="35.33306751904079" lon="-120.6518572492836"><ele>279.0</ele><time>2026-04-19T21:19:42.999Z</time></trkpt><trkpt lat="35.33308123813332" lon="-120.65193524152419"><ele>280.2857142857143</ele><time>2026-04-19T21:19:43.999Z</time></trkpt><trkpt lat="35.333097872564906" lon="-120.65201224133965"><ele>281.57142857142856</ele><time>2026-04-19T21:19:44.999Z</time></trkpt><trkpt lat="35.33310954141799" lon="-120.65209073599462"><ele>282.8571428571429</ele><time>2026-04-19T21:19:45.999Z</time></trkpt><trkpt lat="35.333119410044965" lon="-120.65216941701256"><ele>284.1428571428571</ele><time>2026-04-19T21:19:46.999Z</time></trkpt><trkpt lat="35.33313571184455" lon="-120.65224700349309"><ele>285.42857142857144</ele><time>2026-04-19T21:19:47.999Z</time></trkpt><trkpt lat="35.33315935760401" lon="-120.65232206808723"><ele>286.7142857142857</ele><time>2026-04-19T21:19:48.999Z</time></trkpt><trkpt lat="35.33318540408128" lon="-120.65239747970348"><ele>288.0</ele><time>2026-04-19T21:19:49.999Z</time></trkpt><trkpt lat="35.333209372636496" lon="-120.65247404162831"><ele>288.00000000000006</ele><time>2026-04-19T21:19:50.999Z</time></trkpt><trkpt lat="35.333232272753996" lon="-120.65255163574547"><ele>288.0</ele><time>2026-04-19T21:19:51.999Z</time></trkpt><trkpt lat="35.33325557987771" lon="-120.6526292985822"><ele>288.0</ele><time>2026-04-19T21:19:52.999Z</time></trkpt><trkpt lat="35.33328098652622" lon="-120.65270555213588"><ele>288.0</ele><time>2026-04-19T21:19:53.999Z</time></trkpt><trkpt lat="35.33330574484734" lon="-120.65278333562695"><ele>288.0</ele><time>2026-04-19T21:19:54.999Z</time></trkpt><trkpt lat="35.33333583457042" lon="-120.65285961075699"><ele>288.00000000000006</ele><time>2026-04-19T21:19:55.999Z</time></trkpt><trkpt lat="35.333382597701345" lon="-120.65291499549735"><ele>288.0</ele><time>2026-04-19T21:19:56.999Z</time></trkpt><trkpt lat="35.3334129484297" lon="-120.65298972372206"><ele>287.1666666666667</ele><time>2026-04-19T21:19:57.999Z</time></trkpt><trkpt lat="35.333442464649664" lon="-120.65306300011903"><ele>286.3333333333333</ele><time>2026-04-19T21:19:58.999Z</time></trkpt><trkpt lat="35.33347201198408" lon="-120.65314051379876"><ele>285.5</ele><time>2026-04-19T21:19:59.999Z</time></trkpt><trkpt lat="35.33350894816411" lon="-120.6532122751773"><ele>284.66666666666663</ele><time>2026-04-19T21:20:00.999Z</time></trkpt><trkpt lat="35.333553250183705" lon="-120.65327799570983"><ele>283.8333333333333</ele><time>2026-04-19T21:20:01.999Z</time></trkpt><trkpt lat="35.33359758821151" lon="-120.65334688150912"><ele>283.0</ele><time>2026-04-19T21:20:03Z</time></trkpt><trkpt lat="35.33366530610929" lon="-120.6534856564504"><ele>283.0</ele><time>2026-04-19T21:20:05Z</time></trkpt><trkpt lat="35.33370574505365" lon="-120.6535606254486"><ele>283.0</ele><time>2026-04-19T21:20:06Z</time></trkpt><trkpt lat="35.33374252875379" lon="-120.65363039632571"><ele>283.0</ele><time>2026-04-19T21:20:07Z</time></trkpt><trkpt lat="35.33378616719139" lon="-120.65370318534673"><ele>283.0</ele><time>2026-04-19T21:20:08Z</time></trkpt><trkpt lat="35.333829249435304" lon="-120.65377592223886"><ele>283.0</ele><time>2026-04-19T21:20:09Z</time></trkpt><trkpt lat="35.333878912870226" lon="-120.65384598455776"><ele>283.0</ele><time>2026-04-19T21:20:10Z</time></trkpt><trkpt lat="35.33392984495122" lon="-120.65391727275322"><ele>283.0</ele><time>2026-04-19T21:20:11Z</time></trkpt><trkpt lat="35.333979470211794" lon="-120.65398504355711"><ele>282.8333333333333</ele><time>2026-04-19T21:20:12Z</time></trkpt><trkpt lat="35.334032680694534" lon="-120.6540512971464"><ele>282.66666666666663</ele><time>2026-04-19T21:20:13Z</time></trkpt><trkpt lat="35.33408347380023" lon="-120.65412013638873"><ele>282.5</ele><time>2026-04-19T21:20:14Z</time></trkpt><trkpt lat="35.3341355503039" lon="-120.65418541614335"><ele>282.3333333333333</ele><time>2026-04-19T21:20:15Z</time></trkpt><trkpt lat="35.3341902585287" lon="-120.6542500765224"><ele>282.1666666666667</ele><time>2026-04-19T21:20:16Z</time></trkpt><trkpt lat="35.334243399801146" lon="-120.65431490616483"><ele>282.0</ele><time>2026-04-19T21:20:17Z</time></trkpt><trkpt lat="35.33429944939051" lon="-120.65437672445583"><ele>282.0</ele><time>2026-04-19T21:20:18Z</time></trkpt><trkpt lat="35.33435726715678" lon="-120.65444459697629"><ele>282.0</ele><time>2026-04-19T21:20:19Z</time></trkpt><trkpt lat="35.334409230351035" lon="-120.65450909236098"><ele>282.0</ele><time>2026-04-19T21:20:20Z</time></trkpt><trkpt lat="35.334468408982374" lon="-120.65455909330095"><ele>282.0</ele><time>2026-04-19T21:20:21Z</time></trkpt><trkpt lat="35.33452800965179" lon="-120.65461037619833"><ele>282.0</ele><time>2026-04-19T21:20:22Z</time></trkpt><trkpt lat="35.334589122716814" lon="-120.65466331770408"><ele>282.0</ele><time>2026-04-19T21:20:23Z</time></trkpt><trkpt lat="35.334648506001095" lon="-120.65471842268387"><ele>282.0</ele><time>2026-04-19T21:20:24Z</time></trkpt><trkpt lat="35.33471027469347" lon="-120.65476681877946"><ele>282.2857142857143</ele><time>2026-04-19T21:20:25Z</time></trkpt><trkpt lat="35.33477371685948" lon="-120.65480934261116"><ele>282.57142857142856</ele><time>2026-04-19T21:20:26Z</time></trkpt><trkpt lat="35.334838425928744" lon="-120.6548521418464"><ele>282.85714285714283</ele><time>2026-04-19T21:20:27Z</time></trkpt><trkpt lat="35.334903149347845" lon="-120.65489482965404"><ele>283.1428571428571</ele><time>2026-04-19T21:20:28Z</time></trkpt><trkpt lat="35.334968173493984" lon="-120.65493574275028"><ele>283.4285714285714</ele><time>2026-04-19T21:20:29Z</time></trkpt><trkpt lat="35.335034059531225" lon="-120.65497500244206"><ele>283.7142857142857</ele><time>2026-04-19T21:20:30Z</time></trkpt><trkpt lat="35.33510094368983" lon="-120.6550108501039"><ele>284.0</ele><time>2026-04-19T21:20:31Z</time></trkpt><trkpt lat="35.33516841564882" lon="-120.65504314023663"><ele>284.0</ele><time>2026-04-19T21:20:32Z</time></trkpt><trkpt lat="35.33523715756285" lon="-120.65507309158207"><ele>284.0</ele><time>2026-04-19T21:20:33Z</time></trkpt><trkpt lat="35.33530613447702" lon="-120.65509718432396"><ele>284.0</ele><time>2026-04-19T21:20:34Z</time></trkpt><trkpt lat="35.33537844770677" lon="-120.655117041866"><ele>284.0</ele><time>2026-04-19T21:20:35Z</time></trkpt><trkpt lat="35.33545130810816" lon="-120.65513267754805"><ele>284.0</ele><time>2026-04-19T21:20:36Z</time></trkpt><trkpt lat="35.33552147904067" lon="-120.65514505099328"><ele>284.0</ele><time>2026-04-19T21:20:37Z</time></trkpt><trkpt lat="35.33558752363749" lon="-120.65516058196349"><ele>284.0</ele><time>2026-04-19T21:20:38Z</time></trkpt><trkpt lat="35.33564935108576" lon="-120.65517882761417"><ele>283.8</ele><time>2026-04-19T21:20:39Z</time></trkpt><trkpt lat="35.335771947439234" lon="-120.65518900697606"><ele>283.59999999999997</ele><time>2026-04-19T21:20:41Z</time></trkpt><trkpt lat="35.335882543334854" lon="-120.65518768589894"><ele>283.4</ele><time>2026-04-19T21:20:43Z</time></trkpt><trkpt lat="35.33600792978079" lon="-120.65519303353567"><ele>283.2</ele><time>2026-04-19T21:20:45Z</time></trkpt><trkpt lat="35.33607138532644" lon="-120.65519422880817"><ele>283.0</ele><time>2026-04-19T21:20:46Z</time></trkpt><trkpt lat="35.33613699831693" lon="-120.65519782054943"><ele>283.0</ele><time>2026-04-19T21:20:47Z</time></trkpt><trkpt lat="35.33620063208585" lon="-120.65519664896533"><ele>283.0</ele><time>2026-04-19T21:20:48Z</time></trkpt><trkpt lat="35.33626679828759" lon="-120.65519028772106"><ele>283.0</ele><time>2026-04-19T21:20:49Z</time></trkpt><trkpt lat="35.33633222738297" lon="-120.65517978982255"><ele>283.0</ele><time>2026-04-19T21:20:50Z</time></trkpt><trkpt lat="35.336396371625376" lon="-120.65516546695969"><ele>283.0</ele><time>2026-04-19T21:20:51Z</time></trkpt><trkpt lat="35.336463460777615" lon="-120.65514805583031"><ele>283.0</ele><time>2026-04-19T21:20:52Z</time></trkpt><trkpt lat="35.33652806933809" lon="-120.655127190534"><ele>283.0</ele><time>2026-04-19T21:20:53Z</time></trkpt><trkpt lat="35.336594499459586" lon="-120.65510589346339"><ele>283.0</ele><time>2026-04-19T21:20:54Z</time></trkpt><trkpt lat="35.33666258173635" lon="-120.6550860182535"><ele>283.0</ele><time>2026-04-19T21:20:55Z</time></trkpt><trkpt lat="35.336732435840446" lon="-120.65506381441969"><ele>283.0</ele><time>2026-04-19T21:20:56Z</time></trkpt><trkpt lat="35.33680187535692" lon="-120.65503981619456"><ele>283.0</ele><time>2026-04-19T21:20:57Z</time></trkpt><trkpt lat="35.33686985879138" lon="-120.6550102230858"><ele>283.0</ele><time>2026-04-19T21:20:58Z</time></trkpt><trkpt lat="35.3369359946908" lon="-120.65498095395682"><ele>283.0</ele><time>2026-04-19T21:20:59Z</time></trkpt><trkpt lat="35.33700247741195" lon="-120.65495273798959"><ele>283.0</ele><time>2026-04-19T21:21:00Z</time></trkpt><trkpt lat="35.33707537936973" lon="-120.65492208851272"><ele>283.0</ele><time>2026-04-19T21:21:01Z</time></trkpt><trkpt lat="35.337146483746395" lon="-120.6548884321486"><ele>283.0</ele><time>2026-04-19T21:21:02Z</time></trkpt><trkpt lat="35.33721628541797" lon="-120.6548451611448"><ele>283.0</ele><time>2026-04-19T21:21:02.999Z</time></trkpt><trkpt lat="35.33727983434278" lon="-120.65479995614804"><ele>283.0</ele><time>2026-04-19T21:21:03.999Z</time></trkpt><trkpt lat="35.33734110660324" lon="-120.6547582040331"><ele>283.0</ele><time>2026-04-19T21:21:04.999Z</time></trkpt><trkpt lat="35.33740293015344" lon="-120.65472446447198"><ele>283.0</ele><time>2026-04-19T21:21:05.999Z</time></trkpt><trkpt lat="35.33746551879132" lon="-120.65469378940605"><ele>283.0</ele><time>2026-04-19T21:21:06.999Z</time></trkpt><trkpt lat="35.33753401868395" lon="-120.65466043888401"><ele>283.8571428571429</ele><time>2026-04-19T21:21:07.999Z</time></trkpt><trkpt lat="35.33760023146141" lon="-120.6546278114509"><ele>284.7142857142857</ele><time>2026-04-19T21:21:08.999Z</time></trkpt><trkpt lat="35.33766428480648" lon="-120.65459411746967"><ele>285.57142857142856</ele><time>2026-04-19T21:21:09.999Z</time></trkpt><trkpt lat="35.3377296022479" lon="-120.6545569250985"><ele>286.42857142857144</ele><time>2026-04-19T21:21:10.999Z</time></trkpt><trkpt lat="35.337798277057836" lon="-120.65451761560622"><ele>287.2857142857143</ele><time>2026-04-19T21:21:11.999Z</time></trkpt><trkpt lat="35.337872413088704" lon="-120.65447989960107"><ele>288.14285714285717</ele><time>2026-04-19T21:21:12.999Z</time></trkpt><trkpt lat="35.33794428864896" lon="-120.65444332671794"><ele>289.0</ele><time>2026-04-19T21:21:13.999Z</time></trkpt><trkpt lat="35.338014971836216" lon="-120.65440650211212"><ele>287.57142857142856</ele><time>2026-04-19T21:21:14.999Z</time></trkpt><trkpt lat="35.33808468889511" lon="-120.65437066831986"><ele>286.1428571428571</ele><time>2026-04-19T21:21:15.999Z</time></trkpt><trkpt lat="35.33815266872358" lon="-120.6543369958008"><ele>284.71428571428567</ele><time>2026-04-19T21:21:16.999Z</time></trkpt><trkpt lat="35.338222899835486" lon="-120.65430446266286"><ele>283.2857142857143</ele><time>2026-04-19T21:21:17.999Z</time></trkpt><trkpt lat="35.338292019836" lon="-120.6542727968398"><ele>281.85714285714283</ele><time>2026-04-19T21:21:18.999Z</time></trkpt><trkpt lat="35.338359263527636" lon="-120.65424001485788"><ele>280.4285714285714</ele><time>2026-04-19T21:21:19.999Z</time></trkpt><trkpt lat="35.33842497853138" lon="-120.65420340306333"><ele>279.0</ele><time>2026-04-19T21:21:20.999Z</time></trkpt><trkpt lat="35.33848887488042" lon="-120.6541684425265"><ele>278.99999999999994</ele><time>2026-04-19T21:21:21.999Z</time></trkpt><trkpt lat="35.3385536186151" lon="-120.65413996464336"><ele>279.0</ele><time>2026-04-19T21:21:22.999Z</time></trkpt><trkpt lat="35.33861930441085" lon="-120.65411318875391"><ele>279.0</ele><time>2026-04-19T21:21:23.999Z</time></trkpt><trkpt lat="35.33868220598821" lon="-120.65409055174354"><ele>279.0</ele><time>2026-04-19T21:21:24.999Z</time></trkpt><trkpt lat="35.33874521806547" lon="-120.65406767654207"><ele>279.0</ele><time>2026-04-19T21:21:25.999Z</time></trkpt><trkpt lat="35.33881312090967" lon="-120.65405234533411"><ele>278.99999999999994</ele><time>2026-04-19T21:21:26.999Z</time></trkpt><trkpt lat="35.33888261920866" lon="-120.654043609252"><ele>279.0</ele><time>2026-04-19T21:21:27.999Z</time></trkpt><trkpt lat="35.33895086797363" lon="-120.65403868326682"><ele>277.59999999999997</ele><time>2026-04-19T21:21:28.999Z</time></trkpt><trkpt lat="35.339016268997675" lon="-120.65403071525057"><ele>276.2</ele><time>2026-04-19T21:21:29.999Z</time></trkpt><trkpt lat="35.339079053811986" lon="-120.65402434191716"><ele>274.79999999999995</ele><time>2026-04-19T21:21:30.999Z</time></trkpt><trkpt lat="35.3391989738484" lon="-120.65402441864438"><ele>273.4</ele><time>2026-04-19T21:21:32.999Z</time></trkpt><trkpt lat="35.339308302510766" lon="-120.65404319160385"><ele>272.0</ele><time>2026-04-19T21:21:34.999Z</time></trkpt><trkpt lat="35.33941550262327" lon="-120.65408033836142"><ele>272.0</ele><time>2026-04-19T21:21:36.999Z</time></trkpt><trkpt lat="35.33953674424221" lon="-120.65410129262457"><ele>272.0</ele><time>2026-04-19T21:21:38.999Z</time></trkpt><trkpt lat="35.33966056836427" lon="-120.65413011283326"><ele>272.0</ele><time>2026-04-19T21:21:40.999Z</time></trkpt><trkpt lat="35.339766200758625" lon="-120.6541805264745"><ele>272.0</ele><time>2026-04-19T21:21:42.999Z</time></trkpt><trkpt lat="35.339862062702935" lon="-120.65424391533101"><ele>272.2</ele><time>2026-04-19T21:21:44.999Z</time></trkpt><trkpt lat="35.33995191790986" lon="-120.65427944022477"><ele>272.4</ele><time>2026-04-19T21:21:46.999Z</time></trkpt><trkpt lat="35.340025409236304" lon="-120.65433944945569"><ele>272.6</ele><time>2026-04-19T21:21:48.999Z</time></trkpt><trkpt lat="35.34010945705807" lon="-120.65440077764775"><ele>272.8</ele><time>2026-04-19T21:21:50.999Z</time></trkpt><trkpt lat="35.34020522852341" lon="-120.6544712235523"><ele>273.0</ele><time>2026-04-19T21:21:52.999Z</time></trkpt><trkpt lat="35.340288620117036" lon="-120.65454116178695"><ele>273.0</ele><time>2026-04-19T21:21:54.999Z</time></trkpt><trkpt lat="35.34036406833478" lon="-120.65461031641024"><ele>273.0</ele><time>2026-04-19T21:21:56.999Z</time></trkpt><trkpt lat="35.34042689877941" lon="-120.65467997515377"><ele>273.0</ele><time>2026-04-19T21:21:58.999Z</time></trkpt><trkpt lat="35.340501496634" lon="-120.65475606608287"><ele>273.0</ele><time>2026-04-19T21:22:00.999Z</time></trkpt><trkpt lat="35.34057447267874" lon="-120.65482236571548"><ele>273.0</ele><time>2026-04-19T21:22:02.999Z</time></trkpt><trkpt lat="35.34064484255838" lon="-120.65488881733638"><ele>273.6666666666667</ele><time>2026-04-19T21:22:04.999Z</time></trkpt><trkpt lat="35.340713402694185" lon="-120.65495179435298"><ele>274.3333333333333</ele><time>2026-04-19T21:22:06.999Z</time></trkpt><trkpt lat="35.34077130893693" lon="-120.65500980323793"><ele>275.0</ele><time>2026-04-19T21:22:09Z</time></trkpt><trkpt lat="35.34081944495703" lon="-120.65507911203883"><ele>275.66666666666663</ele><time>2026-04-19T21:22:11Z</time></trkpt><trkpt lat="35.340879035561166" lon="-120.65514893042855"><ele>276.3333333333333</ele><time>2026-04-19T21:22:13Z</time></trkpt><trkpt lat="35.3409516394133" lon="-120.65521709178115"><ele>277.0</ele><time>2026-04-19T21:22:15Z</time></trkpt><trkpt lat="35.341004598560076" lon="-120.655271354786"><ele>275.3333333333333</ele><time>2026-04-19T21:22:23Z</time></trkpt><trkpt lat="35.341050593342565" lon="-120.65533478967313"><ele>273.66666666666663</ele><time>2026-04-19T21:22:28Z</time></trkpt><trkpt lat="35.341079658823745" lon="-120.65540834178903"><ele>272.0</ele><time>2026-04-19T21:22:35Z</time></trkpt><trkpt lat="35.3411189715541" lon="-120.65547430935314"><ele>270.3333333333333</ele><time>2026-04-19T21:22:38Z</time></trkpt><trkpt lat="35.3411779535018" lon="-120.65561864701803"><ele>268.6666666666667</ele><time>2026-04-19T21:22:40Z</time></trkpt><trkpt lat="35.34121779103861" lon="-120.65570431269232"><ele>267.0</ele><time>2026-04-19T21:22:42Z</time></trkpt><trkpt lat="35.341254225395055" lon="-120.65578434382424"><ele>267.00000000000006</ele><time>2026-04-19T21:22:44Z</time></trkpt><trkpt lat="35.34128596250631" lon="-120.65586016567127"><ele>267.0</ele><time>2026-04-19T21:22:52Z</time></trkpt><trkpt lat="35.341321554027544" lon="-120.65593623784578"><ele>267.0</ele><time>2026-04-19T21:22:58Z</time></trkpt><trkpt lat="35.34135051857179" lon="-120.65601770240306"><ele>267.0</ele><time>2026-04-19T21:23:04Z</time></trkpt><trkpt lat="35.34136439325909" lon="-120.65610097168037"><ele>267.0</ele><time>2026-04-19T21:23:09Z</time></trkpt><trkpt lat="35.34137294261064" lon="-120.65620238303636"><ele>267.00000000000006</ele><time>2026-04-19T21:23:15Z</time></trkpt><trkpt lat="35.341384063025714" lon="-120.65628178813608"><ele>267.0</ele><time>2026-04-19T21:23:17Z</time></trkpt><trkpt lat="35.341401163743015" lon="-120.65637138572811"><ele>268.0</ele><time>2026-04-19T21:23:18Z</time></trkpt><trkpt lat="35.34140823078541" lon="-120.65648748251722"><ele>269.0</ele><time>2026-04-19T21:23:21Z</time></trkpt><trkpt lat="35.34140480893824" lon="-120.65658572157538"><ele>270.0</ele><time>2026-04-19T21:23:24Z</time></trkpt><trkpt lat="35.34139785316627" lon="-120.65668290445211"><ele>271.0</ele><time>2026-04-19T21:23:26Z</time></trkpt><trkpt lat="35.34138608904764" lon="-120.65676292558523"><ele>272.0</ele><time>2026-04-19T21:23:29Z</time></trkpt><trkpt lat="35.34138471576821" lon="-120.65685302453818"><ele>273.0</ele><time>2026-04-19T21:23:33Z</time></trkpt><trkpt lat="35.34135192275004" lon="-120.656922000367"><ele>270.85714285714283</ele><time>2026-04-19T21:23:36Z</time></trkpt><trkpt lat="35.34128500363948" lon="-120.65698984714778"><ele>268.7142857142857</ele><time>2026-04-19T21:23:41Z</time></trkpt><trkpt lat="35.341281522862" lon="-120.65707262537333"><ele>266.57142857142856</ele><time>2026-04-19T21:23:45Z</time></trkpt><trkpt lat="35.34122329144839" lon="-120.65704002813888"><ele>264.42857142857144</ele><time>2026-04-19T21:24:14Z</time></trkpt><trkpt lat="35.34114973378952" lon="-120.65707880717328"><ele>262.2857142857143</ele><time>2026-04-19T21:24:19Z</time></trkpt><trkpt lat="35.34108525133724" lon="-120.65710518842351"><ele>260.1428571428571</ele><time>2026-04-19T21:24:24Z</time></trkpt><trkpt lat="35.34101445602502" lon="-120.65709260519108"><ele>258.0</ele><time>2026-04-19T21:24:29Z</time></trkpt><trkpt lat="35.34095456327183" lon="-120.65712126516108"><ele>258.0</ele><time>2026-04-19T21:24:32Z</time></trkpt><trkpt lat="35.34088463742167" lon="-120.65708880519776"><ele>258.0</ele><time>2026-04-19T21:24:36Z</time></trkpt><trkpt lat="35.340812237939275" lon="-120.65708705899952"><ele>258.0</ele><time>2026-04-19T21:24:41Z</time></trkpt><trkpt lat="35.34073076202721" lon="-120.65708026503573"><ele>258.0</ele><time>2026-04-19T21:24:44Z</time></trkpt><trkpt lat="35.34065100125857" lon="-120.65705142900939"><ele>258.0</ele><time>2026-04-19T21:24:47Z</time></trkpt><trkpt lat="35.34055616163594" lon="-120.6570433597567"><ele>258.0</ele><time>2026-04-19T21:24:50Z</time></trkpt><trkpt lat="35.34046600313326" lon="-120.65703101720592"><ele>256.85714285714283</ele><time>2026-04-19T21:24:53Z</time></trkpt><trkpt lat="35.34040445355779" lon="-120.65700956401321"><ele>255.71428571428572</ele><time>2026-04-19T21:24:56Z</time></trkpt><trkpt lat="35.3403348351778" lon="-120.65702209941946"><ele>254.57142857142856</ele><time>2026-04-19T21:24:59Z</time></trkpt><trkpt lat="35.34025019754799" lon="-120.65699106632091"><ele>253.42857142857142</ele><time>2026-04-19T21:25:02Z</time></trkpt><trkpt lat="35.34017589840642" lon="-120.65696286648492"><ele>252.28571428571428</ele><time>2026-04-19T21:25:04Z</time></trkpt><trkpt lat="35.34012474608776" lon="-120.65689356384317"><ele>251.14285714285714</ele><time>2026-04-19T21:25:07Z</time></trkpt><trkpt lat="35.34007195402713" lon="-120.65684785157477"><ele>250.0</ele><time>2026-04-19T21:25:11Z</time></trkpt><trkpt lat="35.3400036840609" lon="-120.65684057079604"><ele>250.0</ele><time>2026-04-19T21:25:32Z</time></trkpt><trkpt lat="35.33994294774568" lon="-120.65687424861662"><ele>250.0</ele><time>2026-04-19T21:25:38.999Z</time></trkpt><trkpt lat="35.33988023807349" lon="-120.65691599524921"><ele>250.0</ele><time>2026-04-19T21:25:42.999Z</time></trkpt><trkpt lat="35.33982895201311" lon="-120.65696940111606"><ele>250.0</ele><time>2026-04-19T21:25:45.999Z</time></trkpt><trkpt lat="35.339768945409915" lon="-120.65701933269709"><ele>250.0</ele><time>2026-04-19T21:25:48.999Z</time></trkpt><trkpt lat="35.33970216074543" lon="-120.65707313078775"><ele>250.0</ele><time>2026-04-19T21:25:51.999Z</time></trkpt><trkpt lat="35.33963630176119" lon="-120.65710330256991"><ele>250.0</ele><time>2026-04-19T21:25:53.999Z</time></trkpt><trkpt lat="35.33954052609145" lon="-120.65712516380651"><ele>247.0</ele><time>2026-04-19T21:25:55.999Z</time></trkpt><trkpt lat="35.33944324962272" lon="-120.65717762556639"><ele>244.0</ele><time>2026-04-19T21:25:57.999Z</time></trkpt><trkpt lat="35.33934403069345" lon="-120.65721294569691"><ele>241.0</ele><time>2026-04-19T21:25:59.999Z</time></trkpt><trkpt lat="35.339278174225875" lon="-120.65725363920627"><ele>238.0</ele><time>2026-04-19T21:26:02.999Z</time></trkpt><trkpt lat="35.33916196379339" lon="-120.65731703092334"><ele>235.0</ele><time>2026-04-19T21:26:03.999Z</time></trkpt><trkpt lat="35.33907600514347" lon="-120.65737861736471"><ele>234.99999999999997</ele><time>2026-04-19T21:26:05.999Z</time></trkpt><trkpt lat="35.33898310415618" lon="-120.65741647422688"><ele>235.0</ele><time>2026-04-19T21:26:07.999Z</time></trkpt><trkpt lat="35.33887682629182" lon="-120.65743464020196"><ele>235.0</ele><time>2026-04-19T21:26:09.999Z</time></trkpt><trkpt lat="35.33881155793823" lon="-120.65743094246443"><ele>235.0</ele><time>2026-04-19T21:26:10.999Z</time></trkpt><trkpt lat="35.3387329418808" lon="-120.65742340645183"><ele>234.99999999999997</ele><time>2026-04-19T21:26:12.999Z</time></trkpt><trkpt lat="35.3386531215103" lon="-120.65738298680435"><ele>235.0</ele><time>2026-04-19T21:26:14.999Z</time></trkpt><trkpt lat="35.338561364269005" lon="-120.65734180630766"><ele>234.66666666666666</ele><time>2026-04-19T21:26:16.999Z</time></trkpt><trkpt lat="35.33847939559859" lon="-120.65733267503839"><ele>234.33333333333331</ele><time>2026-04-19T21:26:21Z</time></trkpt><trkpt lat="35.338398222733794" lon="-120.65734828253743"><ele>234.0</ele><time>2026-04-19T21:26:26Z</time></trkpt><trkpt lat="35.338342401923455" lon="-120.65741466869929"><ele>233.66666666666669</ele><time>2026-04-19T21:26:31Z</time></trkpt><trkpt lat="35.338307314270565" lon="-120.65750630470285"><ele>233.33333333333334</ele><time>2026-04-19T21:26:33Z</time></trkpt><trkpt lat="35.33823947351008" lon="-120.65760496871796"><ele>233.0</ele><time>2026-04-19T21:26:35Z</time></trkpt><trkpt lat="35.33815650306079" lon="-120.65768476707984"><ele>233.00000000000003</ele><time>2026-04-19T21:26:37Z</time></trkpt><trkpt lat="35.338081142049866" lon="-120.65776898906462"><ele>233.0</ele><time>2026-04-19T21:26:39Z</time></trkpt><trkpt lat="35.33799616876643" lon="-120.65785331212756"><ele>233.0</ele><time>2026-04-19T21:26:41Z</time></trkpt><trkpt lat="35.33792801165249" lon="-120.65789863957671"><ele>233.0</ele><time>2026-04-19T21:26:44Z</time></trkpt><trkpt lat="35.33785664823842" lon="-120.65794293818743"><ele>233.00000000000003</ele><time>2026-04-19T21:26:59Z</time></trkpt><trkpt lat="35.3377872040291" lon="-120.65798630713029"><ele>233.0</ele><time>2026-04-19T21:27:02Z</time></trkpt><trkpt lat="35.33771480575785" lon="-120.65801504137127"><ele>231.33333333333334</ele><time>2026-04-19T21:27:05Z</time></trkpt><trkpt lat="35.33762468317951" lon="-120.65804081312858"><ele>229.66666666666669</ele><time>2026-04-19T21:27:08Z</time></trkpt><trkpt lat="35.33756942071298" lon="-120.65808530997374"><ele>228.0</ele><time>2026-04-19T21:27:11Z</time></trkpt><trkpt lat="35.33751083295375" lon="-120.65811648487323"><ele>226.33333333333331</ele><time>2026-04-19T21:27:13Z</time></trkpt><trkpt lat="35.33744070629295" lon="-120.6581357742604"><ele>224.66666666666666</ele><time>2026-04-19T21:27:15Z</time></trkpt><trkpt lat="35.337373886400655" lon="-120.65815069505844"><ele>223.0</ele><time>2026-04-19T21:27:17Z</time></trkpt><trkpt lat="35.33728646848858" lon="-120.65817434991408"><ele>222.49999999999997</ele><time>2026-04-19T21:27:19Z</time></trkpt><trkpt lat="35.33720258529979" lon="-120.65824423671634"><ele>222.0</ele><time>2026-04-19T21:27:21Z</time></trkpt><trkpt lat="35.33710787203133" lon="-120.65828053975076"><ele>221.5</ele><time>2026-04-19T21:27:23Z</time></trkpt><trkpt lat="35.337036494508624" lon="-120.65827088059939"><ele>221.0</ele><time>2026-04-19T21:27:25Z</time></trkpt><trkpt lat="35.33694694553008" lon="-120.65827116790737"><ele>220.49999999999997</ele><time>2026-04-19T21:27:28Z</time></trkpt><trkpt lat="35.33688429094951" lon="-120.65829146375631"><ele>220.0</ele><time>2026-04-19T21:27:30Z</time></trkpt><trkpt lat="35.33684122398696" lon="-120.65835071252332"><ele>220.0</ele><time>2026-04-19T21:27:32Z</time></trkpt><trkpt lat="35.33678144036809" lon="-120.65845174621147"><ele>220.0</ele><time>2026-04-19T21:27:34Z</time></trkpt><trkpt lat="35.33669930141547" lon="-120.65853514319988"><ele>220.0</ele><time>2026-04-19T21:27:36Z</time></trkpt><trkpt lat="35.336631585318514" lon="-120.65859600540892"><ele>220.0</ele><time>2026-04-19T21:27:38Z</time></trkpt><trkpt lat="35.3365598762196" lon="-120.6586176959417"><ele>220.0</ele><time>2026-04-19T21:27:40Z</time></trkpt><trkpt lat="35.336470710746994" lon="-120.6586053180953"><ele>220.0</ele><time>2026-04-19T21:27:42Z</time></trkpt><trkpt lat="35.336407105749075" lon="-120.65858537585032"><ele>220.0</ele><time>2026-04-19T21:27:44Z</time></trkpt><trkpt lat="35.336343071073415" lon="-120.65851426838617"><ele>220.0</ele><time>2026-04-19T21:27:47Z</time></trkpt><trkpt lat="35.33627945272419" lon="-120.6585046557062"><ele>220.0</ele><time>2026-04-19T21:27:49Z</time></trkpt><trkpt lat="35.33615863498952" lon="-120.65846909086967"><ele>220.0</ele><time>2026-04-19T21:27:51Z</time></trkpt><trkpt lat="35.336050937336864" lon="-120.65849894556226"><ele>219.49999999999997</ele><time>2026-04-19T21:27:52Z</time></trkpt><trkpt lat="35.335980964351535" lon="-120.65852781610927"><ele>219.0</ele><time>2026-04-19T21:27:53Z</time></trkpt><trkpt lat="35.33588283478082" lon="-120.65851384071797"><ele>218.5</ele><time>2026-04-19T21:27:55Z</time></trkpt><trkpt lat="35.335796585497945" lon="-120.65856623724554"><ele>218.0</ele><time>2026-04-19T21:28:05.999Z</time></trkpt><trkpt lat="35.33573453161456" lon="-120.65860410792462"><ele>217.49999999999997</ele><time>2026-04-19T21:28:08.999Z</time></trkpt><trkpt lat="35.33566386714163" lon="-120.65864261018189"><ele>217.0</ele><time>2026-04-19T21:28:10.999Z</time></trkpt><trkpt lat="35.33557355088474" lon="-120.65866178868278"><ele>215.6</ele><time>2026-04-19T21:28:12.999Z</time></trkpt><trkpt lat="35.33550142571231" lon="-120.65871778160154"><ele>214.2</ele><time>2026-04-19T21:28:13.999Z</time></trkpt><trkpt lat="35.335416172830016" lon="-120.6587989163115"><ele>212.8</ele><time>2026-04-19T21:28:15.999Z</time></trkpt><trkpt lat="35.33531867361329" lon="-120.65886697403955"><ele>211.4</ele><time>2026-04-19T21:28:17.999Z</time></trkpt><trkpt lat="35.335218658524894" lon="-120.65891912708275"><ele>210.0</ele><time>2026-04-19T21:28:19.999Z</time></trkpt><trkpt lat="35.33515628346477" lon="-120.65896219343173"><ele>210.0</ele><time>2026-04-19T21:28:22.999Z</time></trkpt><trkpt lat="35.3350946461987" lon="-120.65900213855774"><ele>210.0</ele><time>2026-04-19T21:28:24.999Z</time></trkpt><trkpt lat="35.335023176263725" lon="-120.65903490578643"><ele>210.0</ele><time>2026-04-19T21:28:27Z</time></trkpt><trkpt lat="35.33495148306205" lon="-120.65907336661893"><ele>210.0</ele><time>2026-04-19T21:28:29Z</time></trkpt><trkpt lat="35.33488610550863" lon="-120.65907698665947"><ele>210.0</ele><time>2026-04-19T21:28:40Z</time></trkpt><trkpt lat="35.33483217154671" lon="-120.65911703135345"><ele>210.0</ele><time>2026-04-19T21:28:58Z</time></trkpt><trkpt lat="35.33476605464789" lon="-120.65915355835872"><ele>210.0</ele><time>2026-04-19T21:29:01Z</time></trkpt><trkpt lat="35.334690102821654" lon="-120.6591806550885"><ele>211.16666666666666</ele><time>2026-04-19T21:29:04Z</time></trkpt><trkpt lat="35.334630613541" lon="-120.65920689773873"><ele>212.33333333333331</ele><time>2026-04-19T21:29:06Z</time></trkpt><trkpt lat="35.33456283465121" lon="-120.65923924812127"><ele>213.5</ele><time>2026-04-19T21:29:08Z</time></trkpt><trkpt lat="35.33448733881282" lon="-120.6592592824604"><ele>214.66666666666666</ele><time>2026-04-19T21:29:10Z</time></trkpt><trkpt lat="35.33441377610712" lon="-120.65928445093361"><ele>215.83333333333331</ele><time>2026-04-19T21:29:12Z</time></trkpt><trkpt lat="35.33433822662475" lon="-120.65931982613893"><ele>217.0</ele><time>2026-04-19T21:29:14Z</time></trkpt><trkpt lat="35.334263605050076" lon="-120.65935993352548"><ele>217.0</ele><time>2026-04-19T21:29:16Z</time></trkpt><trkpt lat="35.334200574986475" lon="-120.65943664379203"><ele>217.0</ele><time>2026-04-19T21:29:18Z</time></trkpt><trkpt lat="35.33415474998161" lon="-120.6595217037688"><ele>217.0</ele><time>2026-04-19T21:29:20Z</time></trkpt><trkpt lat="35.33410583814372" lon="-120.65961510672398"><ele>217.0</ele><time>2026-04-19T21:29:22Z</time></trkpt><trkpt lat="35.334041733809315" lon="-120.65974532938156"><ele>217.0</ele><time>2026-04-19T21:29:24Z</time></trkpt><trkpt lat="35.333990107674836" lon="-120.65983447356135"><ele>215.85714285714286</ele><time>2026-04-19T21:29:26Z</time></trkpt><trkpt lat="35.33394962074021" lon="-120.65991364812166"><ele>214.71428571428572</ele><time>2026-04-19T21:29:28Z</time></trkpt><trkpt lat="35.33395768619412" lon="-120.65999313113483"><ele>213.57142857142856</ele><time>2026-04-19T21:29:30Z</time></trkpt><trkpt lat="35.333998549459416" lon="-120.66006621461162"><ele>212.42857142857144</ele><time>2026-04-19T21:29:33Z</time></trkpt><trkpt lat="35.33401707458917" lon="-120.66014120057186"><ele>211.28571428571428</ele><time>2026-04-19T21:29:35Z</time></trkpt><trkpt lat="35.33403737222478" lon="-120.66023108707536"><ele>210.14285714285714</ele><time>2026-04-19T21:29:37Z</time></trkpt><trkpt lat="35.33402266127017" lon="-120.66033954788018"><ele>209.0</ele><time>2026-04-19T21:29:39Z</time></trkpt><trkpt lat="35.333962758818245" lon="-120.6604475327726"><ele>207.75</ele><time>2026-04-19T21:29:41Z</time></trkpt><trkpt lat="35.333880246557655" lon="-120.66053770440921"><ele>206.5</ele><time>2026-04-19T21:29:43Z</time></trkpt><trkpt lat="35.333779337853166" lon="-120.66059833200525"><ele>205.25</ele><time>2026-04-19T21:29:45Z</time></trkpt><trkpt lat="35.3336694231712" lon="-120.66063999157221"><ele>204.0</ele><time>2026-04-19T21:29:47Z</time></trkpt><trkpt lat="35.333558334982484" lon="-120.6606858915327"><ele>204.0</ele><time>2026-04-19T21:29:49Z</time></trkpt><trkpt lat="35.33349704897982" lon="-120.66070935240617"><ele>204.0</ele><time>2026-04-19T21:29:50Z</time></trkpt><trkpt lat="35.3333774662336" lon="-120.66075523531637"><ele>204.0</ele><time>2026-04-19T21:29:52Z</time></trkpt><trkpt lat="35.3333190603445" lon="-120.66078489579897"><ele>204.0</ele><time>2026-04-19T21:29:53Z</time></trkpt><trkpt lat="35.33325961385931" lon="-120.66081385347998"><ele>204.0</ele><time>2026-04-19T21:29:54Z</time></trkpt><trkpt lat="35.33320189578962" lon="-120.66084885342345"><ele>204.0</ele><time>2026-04-19T21:29:55Z</time></trkpt><trkpt lat="35.333145677275496" lon="-120.66088432092991"><ele>204.0</ele><time>2026-04-19T21:29:56Z</time></trkpt><trkpt lat="35.333089690783375" lon="-120.66092239204187"><ele>204.25</ele><time>2026-04-19T21:29:57Z</time></trkpt><trkpt lat="35.33297598218338" lon="-120.660988620539"><ele>204.5</ele><time>2026-04-19T21:29:59Z</time></trkpt><trkpt lat="35.33287058563141" lon="-120.66105969464721"><ele>204.75</ele><time>2026-04-19T21:30:01Z</time></trkpt><trkpt lat="35.33276721620007" lon="-120.66112878011765"><ele>205.0</ele><time>2026-04-19T21:30:03Z</time></trkpt><trkpt lat="35.33267278546437" lon="-120.66119919667253"><ele>205.0</ele><time>2026-04-19T21:30:05Z</time></trkpt><trkpt lat="35.33258399751283" lon="-120.66126574679014"><ele>205.0</ele><time>2026-04-19T21:30:07Z</time></trkpt><trkpt lat="35.33249729892931" lon="-120.66132943003197"><ele>205.0</ele><time>2026-04-19T21:30:09Z</time></trkpt><trkpt lat="35.33241879898833" lon="-120.66140179060474"><ele>205.0</ele><time>2026-04-19T21:30:11Z</time></trkpt><trkpt lat="35.33234253448962" lon="-120.661473281288"><ele>205.0</ele><time>2026-04-19T21:30:13Z</time></trkpt><trkpt lat="35.332264972222035" lon="-120.66153792723456"><ele>203.4</ele><time>2026-04-19T21:30:15Z</time></trkpt><trkpt lat="35.33218625932634" lon="-120.66161053721679"><ele>201.8</ele><time>2026-04-19T21:30:17Z</time></trkpt><trkpt lat="35.332093398864025" lon="-120.66168212825443"><ele>200.2</ele><time>2026-04-19T21:30:19Z</time></trkpt><trkpt lat="35.331985116119874" lon="-120.66176746393165"><ele>198.6</ele><time>2026-04-19T21:30:21Z</time></trkpt><trkpt lat="35.33192333914513" lon="-120.66181719372416"><ele>197.0</ele><time>2026-04-19T21:30:22Z</time></trkpt><trkpt lat="35.33185624670116" lon="-120.6618606607334"><ele>197.00000000000003</ele><time>2026-04-19T21:30:23Z</time></trkpt><trkpt lat="35.33178306005728" lon="-120.66190069438909"><ele>197.0</ele><time>2026-04-19T21:30:24Z</time></trkpt><trkpt lat="35.331705615925785" lon="-120.66195048093829"><ele>197.0</ele><time>2026-04-19T21:30:25Z</time></trkpt><trkpt lat="35.33162951015458" lon="-120.66200159793289"><ele>197.0</ele><time>2026-04-19T21:30:26Z</time></trkpt><trkpt lat="35.33155106816879" lon="-120.66205538830161"><ele>197.00000000000003</ele><time>2026-04-19T21:30:27Z</time></trkpt><trkpt lat="35.33147068924026" lon="-120.66211128031613"><ele>197.0</ele><time>2026-04-19T21:30:28Z</time></trkpt><trkpt lat="35.331389212327494" lon="-120.66217176193216"><ele>196.2</ele><time>2026-04-19T21:30:29Z</time></trkpt><trkpt lat="35.33130717797245" lon="-120.66223164649541"><ele>195.39999999999998</ele><time>2026-04-19T21:30:30Z</time></trkpt><trkpt lat="35.33122420005371" lon="-120.66228607649029"><ele>194.60000000000002</ele><time>2026-04-19T21:30:31Z</time></trkpt><trkpt lat="35.33113749213984" lon="-120.66233608864876"><ele>193.8</ele><time>2026-04-19T21:30:32Z</time></trkpt><trkpt lat="35.3310520878315" lon="-120.66238366983501"><ele>193.0</ele><time>2026-04-19T21:30:33Z</time></trkpt><trkpt lat="35.33096537195964" lon="-120.66243140263036"><ele>193.0</ele><time>2026-04-19T21:30:34Z</time></trkpt><trkpt lat="35.33088152533365" lon="-120.66248325438735"><ele>193.0</ele><time>2026-04-19T21:30:35Z</time></trkpt><trkpt lat="35.33079704118571" lon="-120.66253583498916"><ele>193.0</ele><time>2026-04-19T21:30:36Z</time></trkpt><trkpt lat="35.33071039575523" lon="-120.66258778276118"><ele>193.0</ele><time>2026-04-19T21:30:37Z</time></trkpt><trkpt lat="35.33062424372709" lon="-120.66264246011104"><ele>193.0</ele><time>2026-04-19T21:30:38Z</time></trkpt><trkpt lat="35.33054677276153" lon="-120.66270095131323"><ele>192.33333333333331</ele><time>2026-04-19T21:30:39Z</time></trkpt><trkpt lat="35.33048306672584" lon="-120.66275629605036"><ele>191.66666666666666</ele><time>2026-04-19T21:30:40Z</time></trkpt><trkpt lat="35.33042700149858" lon="-120.66280932010692"><ele>191.0</ele><time>2026-04-19T21:30:41Z</time></trkpt><trkpt lat="35.33037539740685" lon="-120.6628600609286"><ele>190.33333333333331</ele><time>2026-04-19T21:30:42Z</time></trkpt><trkpt lat="35.33029028350718" lon="-120.66294545879929"><ele>189.66666666666666</ele><time>2026-04-19T21:30:44Z</time></trkpt><trkpt lat="35.33022147434282" lon="-120.66299802082005"><ele>189.0</ele><time>2026-04-19T21:30:46Z</time></trkpt><trkpt lat="35.33017925009793" lon="-120.66307224748095"><ele>189.0</ele><time>2026-04-19T21:30:56Z</time></trkpt><trkpt lat="35.33015164662236" lon="-120.66314434760365"><ele>189.0</ele><time>2026-04-19T21:30:59Z</time></trkpt><trkpt lat="35.33010489216909" lon="-120.66320972920353"><ele>189.0</ele><time>2026-04-19T21:31:01Z</time></trkpt><trkpt lat="35.330033711695954" lon="-120.66328305296764"><ele>189.0</ele><time>2026-04-19T21:31:03Z</time></trkpt><trkpt lat="35.32995531846326" lon="-120.66337543580295"><ele>189.0</ele><time>2026-04-19T21:31:05Z</time></trkpt><trkpt lat="35.32986948094075" lon="-120.66347252134122"><ele>189.0</ele><time>2026-04-19T21:31:07Z</time></trkpt><trkpt lat="35.3297765892551" lon="-120.66356402703838"><ele>189.0</ele><time>2026-04-19T21:31:09Z</time></trkpt><trkpt lat="35.329674775748515" lon="-120.6636477473099"><ele>189.0</ele><time>2026-04-19T21:31:11Z</time></trkpt><trkpt lat="35.32957554623379" lon="-120.66374015444161"><ele>189.0</ele><time>2026-04-19T21:31:13Z</time></trkpt><trkpt lat="35.329522480330745" lon="-120.66378553818518"><ele>189.0</ele><time>2026-04-19T21:31:14Z</time></trkpt><trkpt lat="35.32946906767415" lon="-120.66383149034411"><ele>187.85714285714286</ele><time>2026-04-19T21:31:15Z</time></trkpt><trkpt lat="35.329415655045636" lon="-120.66388267877392"><ele>186.71428571428572</ele><time>2026-04-19T21:31:16Z</time></trkpt><trkpt lat="35.3293609288113" lon="-120.66393581322963"><ele>185.57142857142856</ele><time>2026-04-19T21:31:17Z</time></trkpt><trkpt lat="35.32930621773665" lon="-120.66398955814213"><ele>184.42857142857144</ele><time>2026-04-19T21:31:18Z</time></trkpt><trkpt lat="35.32925136352355" lon="-120.66404611820575"><ele>183.28571428571428</ele><time>2026-04-19T21:31:19Z</time></trkpt><trkpt lat="35.32919553803741" lon="-120.66410651215455"><ele>182.14285714285714</ele><time>2026-04-19T21:31:20Z</time></trkpt><trkpt lat="35.32913965407066" lon="-120.66416733792695"><ele>181.0</ele><time>2026-04-19T21:31:21Z</time></trkpt><trkpt lat="35.329081880372875" lon="-120.66422734885349"><ele>181.0</ele><time>2026-04-19T21:31:22Z</time></trkpt><trkpt lat="35.329021309273976" lon="-120.66428973219028"><ele>181.0</ele><time>2026-04-19T21:31:23Z</time></trkpt><trkpt lat="35.32895711704586" lon="-120.66435311103479"><ele>181.0</ele><time>2026-04-19T21:31:24Z</time></trkpt><trkpt lat="35.32889149223214" lon="-120.66441765568297"><ele>181.0</ele><time>2026-04-19T21:31:25Z</time></trkpt><trkpt lat="35.32882924346545" lon="-120.66449416530882"><ele>181.0</ele><time>2026-04-19T21:31:26Z</time></trkpt><trkpt lat="35.32876428401667" lon="-120.66457317747278"><ele>181.0</ele><time>2026-04-19T21:31:27Z</time></trkpt><trkpt lat="35.32870545185078" lon="-120.66464515423402"><ele>181.4</ele><time>2026-04-19T21:31:28Z</time></trkpt><trkpt lat="35.32863926672421" lon="-120.66472036615565"><ele>181.8</ele><time>2026-04-19T21:31:29Z</time></trkpt><trkpt lat="35.32857432963822" lon="-120.66479557840914"><ele>182.20000000000002</ele><time>2026-04-19T21:31:30Z</time></trkpt><trkpt lat="35.32850832712149" lon="-120.6648723290269"><ele>182.60000000000002</ele><time>2026-04-19T21:31:31Z</time></trkpt><trkpt lat="35.32844355439427" lon="-120.6649509125096"><ele>183.0</ele><time>2026-04-19T21:31:32Z</time></trkpt><trkpt lat="35.328376491060865" lon="-120.66502704849077"><ele>183.0</ele><time>2026-04-19T21:31:33Z</time></trkpt><trkpt lat="35.328311056053785" lon="-120.66510377695974"><ele>183.0</ele><time>2026-04-19T21:31:34Z</time></trkpt><trkpt lat="35.32824649763555" lon="-120.66517743698772"><ele>183.0</ele><time>2026-04-19T21:31:35Z</time></trkpt><trkpt lat="35.32818189362232" lon="-120.66525370348123"><ele>183.0</ele><time>2026-04-19T21:31:36Z</time></trkpt><trkpt lat="35.32811711928475" lon="-120.665325264653"><ele>183.0</ele><time>2026-04-19T21:31:37Z</time></trkpt><trkpt lat="35.32805556439524" lon="-120.66539804026687"><ele>183.0</ele><time>2026-04-19T21:31:38Z</time></trkpt><trkpt lat="35.327993238434" lon="-120.6654688869113"><ele>181.0</ele><time>2026-04-19T21:31:39Z</time></trkpt><trkpt lat="35.32793280432007" lon="-120.66553302791822"><ele>179.0</ele><time>2026-04-19T21:31:40Z</time></trkpt><trkpt lat="35.32787095605366" lon="-120.66559550782873"><ele>177.0</ele><time>2026-04-19T21:31:41Z</time></trkpt><trkpt lat="35.3278048512937" lon="-120.6656571288951"><ele>175.0</ele><time>2026-04-19T21:31:42Z</time></trkpt><trkpt lat="35.32774463519637" lon="-120.66572786761066"><ele>173.0</ele><time>2026-04-19T21:31:43Z</time></trkpt><trkpt lat="35.32768845800685" lon="-120.665806569003"><ele>171.0</ele><time>2026-04-19T21:31:44Z</time></trkpt><trkpt lat="35.32763127263601" lon="-120.6658842200084"><ele>171.0</ele><time>2026-04-19T21:31:45Z</time></trkpt><trkpt lat="35.32758067441279" lon="-120.66597127487371"><ele>171.0</ele><time>2026-04-19T21:31:46Z</time></trkpt><trkpt lat="35.32754261865393" lon="-120.6660615154469"><ele>171.0</ele><time>2026-04-19T21:31:47Z</time></trkpt><trkpt lat="35.32751324673933" lon="-120.66616255213728"><ele>171.0</ele><time>2026-04-19T21:31:48Z</time></trkpt><trkpt lat="35.32749085351857" lon="-120.66627350574836"><ele>171.0</ele><time>2026-04-19T21:31:49Z</time></trkpt><trkpt lat="35.327476865765775" lon="-120.66639309101464"><ele>171.0</ele><time>2026-04-19T21:31:50Z</time></trkpt><trkpt lat="35.3274722874347" lon="-120.66651834759384"><ele>170.60000000000002</ele><time>2026-04-19T21:31:51Z</time></trkpt><trkpt lat="35.32747714673551" lon="-120.66664276379458"><ele>170.2</ele><time>2026-04-19T21:31:52Z</time></trkpt><trkpt lat="35.32748784490222" lon="-120.66676752684408"><ele>169.8</ele><time>2026-04-19T21:31:53Z</time></trkpt><trkpt lat="35.327508137950176" lon="-120.66688861558808"><ele>169.39999999999998</ele><time>2026-04-19T21:31:54Z</time></trkpt><trkpt lat="35.327532059883076" lon="-120.66700766740227"><ele>169.0</ele><time>2026-04-19T21:31:55Z</time></trkpt><trkpt lat="35.32754823641135" lon="-120.66712295772089"><ele>168.83333333333334</ele><time>2026-04-19T21:31:56Z</time></trkpt><trkpt lat="35.327570220645605" lon="-120.66723528261105"><ele>168.66666666666669</ele><time>2026-04-19T21:31:57Z</time></trkpt><trkpt lat="35.327596673385834" lon="-120.66734627076046"><ele>168.5</ele><time>2026-04-19T21:31:58Z</time></trkpt><trkpt lat="35.32761635953808" lon="-120.66745418395955"><ele>168.33333333333334</ele><time>2026-04-19T21:31:59Z</time></trkpt><trkpt lat="35.327628157986425" lon="-120.6675559653942"><ele>168.16666666666666</ele><time>2026-04-19T21:32:00Z</time></trkpt><trkpt lat="35.32764415129278" lon="-120.66765465503387"><ele>168.0</ele><time>2026-04-19T21:32:01Z</time></trkpt><trkpt lat="35.32766911423201" lon="-120.66774850457439"><ele>168.16666666666666</ele><time>2026-04-19T21:32:02Z</time></trkpt><trkpt lat="35.32769841494289" lon="-120.66784238080525"><ele>168.33333333333334</ele><time>2026-04-19T21:32:03Z</time></trkpt><trkpt lat="35.3277298382581" lon="-120.66793584383146"><ele>168.5</ele><time>2026-04-19T21:32:04Z</time></trkpt><trkpt lat="35.32776701231099" lon="-120.66802564391739"><ele>168.66666666666669</ele><time>2026-04-19T21:32:05Z</time></trkpt><trkpt lat="35.327807603648004" lon="-120.66811063389679"><ele>168.83333333333334</ele><time>2026-04-19T21:32:06Z</time></trkpt><trkpt lat="35.327855236002556" lon="-120.66818825848702"><ele>169.0</ele><time>2026-04-19T21:32:07Z</time></trkpt><trkpt lat="35.32790571902215" lon="-120.66825908225243"><ele>169.0</ele><time>2026-04-19T21:32:08Z</time></trkpt><trkpt lat="35.32795169617995" lon="-120.66833345107642"><ele>169.0</ele><time>2026-04-19T21:32:09Z</time></trkpt><trkpt lat="35.32799399708052" lon="-120.66841007786786"><ele>169.0</ele><time>2026-04-19T21:32:10Z</time></trkpt><trkpt lat="35.32802711706665" lon="-120.6684891317764"><ele>169.0</ele><time>2026-04-19T21:32:11Z</time></trkpt><trkpt lat="35.32805231398289" lon="-120.66857123635147"><ele>169.0</ele><time>2026-04-19T21:32:12Z</time></trkpt><trkpt lat="35.32807072528464" lon="-120.66865892385415"><ele>169.0</ele><time>2026-04-19T21:32:13Z</time></trkpt><trkpt lat="35.328087865456325" lon="-120.66874275370692"><ele>169.0</ele><time>2026-04-19T21:32:14Z</time></trkpt><trkpt lat="35.32810910953014" lon="-120.66882437209809"><ele>169.33333333333334</ele><time>2026-04-19T21:32:15Z</time></trkpt><trkpt lat="35.328127857465965" lon="-120.66890601656392"><ele>169.66666666666669</ele><time>2026-04-19T21:32:16Z</time></trkpt><trkpt lat="35.32814219236755" lon="-120.66898533852438"><ele>170.0</ele><time>2026-04-19T21:32:17Z</time></trkpt><trkpt lat="35.32814801565886" lon="-120.66906373316834"><ele>170.33333333333334</ele><time>2026-04-19T21:32:18Z</time></trkpt><trkpt lat="35.32815661581311" lon="-120.6692081179767"><ele>170.66666666666666</ele><time>2026-04-19T21:32:20Z</time></trkpt><trkpt lat="35.328111131535096" lon="-120.6693383438471"><ele>171.0</ele><time>2026-04-19T21:32:22Z</time></trkpt><trkpt lat="35.32803700308837" lon="-120.66943615454245"><ele>170.0</ele><time>2026-04-19T21:32:24Z</time></trkpt><trkpt lat="35.32796896992066" lon="-120.66952069299568"><ele>169.0</ele><time>2026-04-19T21:32:26Z</time></trkpt><trkpt lat="35.327939132925046" lon="-120.66961471342172"><ele>168.0</ele><time>2026-04-19T21:32:28Z</time></trkpt><trkpt lat="35.327944770706864" lon="-120.66972056339195"><ele>167.0</ele><time>2026-04-19T21:32:31Z</time></trkpt><trkpt lat="35.327979885817605" lon="-120.66981132792768"><ele>166.0</ele><time>2026-04-19T21:32:34Z</time></trkpt><trkpt lat="35.32800129725063" lon="-120.66988945517821"><ele>165.0</ele><time>2026-04-19T21:32:36Z</time></trkpt><trkpt lat="35.32803435045888" lon="-120.66997157173647"><ele>165.0</ele><time>2026-04-19T21:32:38Z</time></trkpt><trkpt lat="35.32805899033792" lon="-120.67007125359677"><ele>165.0</ele><time>2026-04-19T21:32:40Z</time></trkpt><trkpt lat="35.328086724630374" lon="-120.67018622376017"><ele>165.0</ele><time>2026-04-19T21:32:42Z</time></trkpt><trkpt lat="35.32809326784757" lon="-120.67032366780919"><ele>165.0</ele><time>2026-04-19T21:32:44Z</time></trkpt><trkpt lat="35.32809489812103" lon="-120.67040191494104"><ele>165.0</ele><time>2026-04-19T21:32:45Z</time></trkpt><trkpt lat="35.32809299484313" lon="-120.67048836696512"><ele>165.0</ele><time>2026-04-19T21:32:46Z</time></trkpt><trkpt lat="35.32808217043574" lon="-120.67057761390022"><ele>164.33333333333334</ele><time>2026-04-19T21:32:47Z</time></trkpt><trkpt lat="35.32805994641771" lon="-120.67066895044968"><ele>163.66666666666666</ele><time>2026-04-19T21:32:48Z</time></trkpt><trkpt lat="35.32802764493121" lon="-120.67076043889308"><ele>163.0</ele><time>2026-04-19T21:32:49Z</time></trkpt><trkpt lat="35.32798528624841" lon="-120.67085590742589"><ele>162.33333333333331</ele><time>2026-04-19T21:32:50Z</time></trkpt><trkpt lat="35.32794048967596" lon="-120.67095422546303"><ele>161.66666666666666</ele><time>2026-04-19T21:32:51Z</time></trkpt><trkpt lat="35.32789775929748" lon="-120.67106078124687"><ele>161.0</ele><time>2026-04-19T21:32:52Z</time></trkpt><trkpt lat="35.327854856792634" lon="-120.67117105335396"><ele>160.60000000000002</ele><time>2026-04-19T21:32:53Z</time></trkpt><trkpt lat="35.3278072340393" lon="-120.67128720957349"><ele>160.20000000000002</ele><time>2026-04-19T21:32:54Z</time></trkpt><trkpt lat="35.3277537858653" lon="-120.67140669941335"><ele>159.8</ele><time>2026-04-19T21:32:55Z</time></trkpt><trkpt lat="35.32769758892517" lon="-120.67152863690075"><ele>159.4</ele><time>2026-04-19T21:32:56Z</time></trkpt><trkpt lat="35.327642340630874" lon="-120.67165021432324"><ele>159.0</ele><time>2026-04-19T21:32:57Z</time></trkpt><trkpt lat="35.327586689519876" lon="-120.67176788467697"><ele>159.0</ele><time>2026-04-19T21:32:58Z</time></trkpt><trkpt lat="35.32753523617113" lon="-120.6718730023462"><ele>159.0</ele><time>2026-04-19T21:32:59Z</time></trkpt><trkpt lat="35.32748420641364" lon="-120.67196730143047"><ele>159.0</ele><time>2026-04-19T21:33:00Z</time></trkpt><trkpt lat="35.327426833878086" lon="-120.6720556699095"><ele>159.0</ele><time>2026-04-19T21:33:01Z</time></trkpt><trkpt lat="35.32737124318744" lon="-120.67214118969967"><ele>159.0</ele><time>2026-04-19T21:33:02Z</time></trkpt><trkpt lat="35.327317562069204" lon="-120.67223783003311"><ele>159.0</ele><time>2026-04-19T21:33:03Z</time></trkpt><trkpt lat="35.32727007119057" lon="-120.6723370173081"><ele>159.0</ele><time>2026-04-19T21:33:04Z</time></trkpt><trkpt lat="35.327227407265376" lon="-120.67244157254494"><ele>159.0</ele><time>2026-04-19T21:33:05Z</time></trkpt><trkpt lat="35.32718257480421" lon="-120.67254370495637"><ele>159.0</ele><time>2026-04-19T21:33:06Z</time></trkpt><trkpt lat="35.32713279709828" lon="-120.67264522211295"><ele>159.0</ele><time>2026-04-19T21:33:07Z</time></trkpt><trkpt lat="35.32708124789299" lon="-120.67274451052616"><ele>158.2</ele><time>2026-04-19T21:33:08Z</time></trkpt><trkpt lat="35.32702663342082" lon="-120.67284290763824"><ele>157.4</ele><time>2026-04-19T21:33:09Z</time></trkpt><trkpt lat="35.3269633847133" lon="-120.67294016259498"><ele>156.6</ele><time>2026-04-19T21:33:10Z</time></trkpt><trkpt lat="35.326903775214475" lon="-120.6730392708719"><ele>155.8</ele><time>2026-04-19T21:33:11Z</time></trkpt><trkpt lat="35.32684568022659" lon="-120.6731353111954"><ele>155.0</ele><time>2026-04-19T21:33:12Z</time></trkpt><trkpt lat="35.32678107021671" lon="-120.67322155027132"><ele>155.0</ele><time>2026-04-19T21:33:13Z</time></trkpt><trkpt lat="35.326711250008344" lon="-120.6732974373702"><ele>155.0</ele><time>2026-04-19T21:33:14Z</time></trkpt><trkpt lat="35.3266368516021" lon="-120.67336153952355"><ele>155.0</ele><time>2026-04-19T21:33:15Z</time></trkpt><trkpt lat="35.32656272827274" lon="-120.67342112089946"><ele>155.0</ele><time>2026-04-19T21:33:16Z</time></trkpt><trkpt lat="35.32648430927476" lon="-120.67347699729737"><ele>155.0</ele><time>2026-04-19T21:33:17Z</time></trkpt><trkpt lat="35.32640181876451" lon="-120.67352883642965"><ele>156.2</ele><time>2026-04-19T21:33:18Z</time></trkpt><trkpt lat="35.32631802730056" lon="-120.67357448363174"><ele>157.4</ele><time>2026-04-19T21:33:19Z</time></trkpt><trkpt lat="35.32623072025849" lon="-120.6736184386314"><ele>158.60000000000002</ele><time>2026-04-19T21:33:20Z</time></trkpt><trkpt lat="35.32614396296523" lon="-120.67365362893918"><ele>159.8</ele><time>2026-04-19T21:33:21Z</time></trkpt><trkpt lat="35.32606164033046" lon="-120.67369471715872"><ele>161.0</ele><time>2026-04-19T21:33:22Z</time></trkpt><trkpt lat="35.325982568999706" lon="-120.67373793031138"><ele>162.0</ele><time>2026-04-19T21:33:23Z</time></trkpt><trkpt lat="35.32590676884316" lon="-120.67378025683466"><ele>163.0</ele><time>2026-04-19T21:33:24Z</time></trkpt><trkpt lat="35.325836014316266" lon="-120.67381904090607"><ele>164.0</ele><time>2026-04-19T21:33:25Z</time></trkpt><trkpt lat="35.32576659433245" lon="-120.67385351238656"><ele>165.0</ele><time>2026-04-19T21:33:26Z</time></trkpt><trkpt lat="35.32569507949199" lon="-120.67388044205161"><ele>166.0</ele><time>2026-04-19T21:33:27Z</time></trkpt><trkpt lat="35.32561451920044" lon="-120.67390061228026"><ele>167.0</ele><time>2026-04-19T21:33:28Z</time></trkpt><trkpt lat="35.3255257096348" lon="-120.67391328104036"><ele>164.6</ele><time>2026-04-19T21:33:29Z</time></trkpt><trkpt lat="35.325433167120046" lon="-120.67393681493145"><ele>162.2</ele><time>2026-04-19T21:33:30Z</time></trkpt><trkpt lat="35.325342118946885" lon="-120.67398214555179"><ele>159.8</ele><time>2026-04-19T21:33:31Z</time></trkpt><trkpt lat="35.325249304042885" lon="-120.6740340941835"><ele>157.4</ele><time>2026-04-19T21:33:32Z</time></trkpt><trkpt lat="35.325161323132065" lon="-120.67409235518946"><ele>155.0</ele><time>2026-04-19T21:33:33Z</time></trkpt><trkpt lat="35.325071366914294" lon="-120.67414714416033"><ele>155.0</ele><time>2026-04-19T21:33:34Z</time></trkpt><trkpt lat="35.32498248896931" lon="-120.67419870037642"><ele>155.0</ele><time>2026-04-19T21:33:35Z</time></trkpt><trkpt lat="35.3248918423127" lon="-120.6742386365616"><ele>155.0</ele><time>2026-04-19T21:33:36Z</time></trkpt><trkpt lat="35.32480300272922" lon="-120.67427064615416"><ele>155.0</ele><time>2026-04-19T21:33:37Z</time></trkpt><trkpt lat="35.32471779705753" lon="-120.67429620281014"><ele>155.0</ele><time>2026-04-19T21:33:38Z</time></trkpt><trkpt lat="35.32463870333155" lon="-120.67433638756509"><ele>154.2</ele><time>2026-04-19T21:33:39Z</time></trkpt><trkpt lat="35.32456838416751" lon="-120.67439379035756"><ele>153.4</ele><time>2026-04-19T21:33:40Z</time></trkpt><trkpt lat="35.32451027466924" lon="-120.67446911536145"><ele>152.6</ele><time>2026-04-19T21:33:41Z</time></trkpt><trkpt lat="35.32447599114456" lon="-120.67457491738914"><ele>151.8</ele><time>2026-04-19T21:33:42Z</time></trkpt><trkpt lat="35.32446314538491" lon="-120.67468992714043"><ele>151.0</ele><time>2026-04-19T21:33:43Z</time></trkpt><trkpt lat="35.32446219975682" lon="-120.67480989813282"><ele>151.0</ele><time>2026-04-19T21:33:44Z</time></trkpt><trkpt lat="35.32445149617542" lon="-120.67492550435855"><ele>151.0</ele><time>2026-04-19T21:33:45Z</time></trkpt><trkpt lat="35.32442270401097" lon="-120.67503813493119"><ele>151.0</ele><time>2026-04-19T21:33:46Z</time></trkpt><trkpt lat="35.32439203451785" lon="-120.67514048759014"><ele>151.0</ele><time>2026-04-19T21:33:47Z</time></trkpt><trkpt lat="35.324401855556786" lon="-120.67524263910838"><ele>151.0</ele><time>2026-04-19T21:33:48Z</time></trkpt><trkpt lat="35.32442793944542" lon="-120.67533861570122"><ele>151.0</ele><time>2026-04-19T21:33:49Z</time></trkpt><trkpt lat="35.324461654126075" lon="-120.67543416434123"><ele>151.0</ele><time>2026-04-19T21:33:50Z</time></trkpt><trkpt lat="35.32448059281467" lon="-120.67552903109329"><ele>151.0</ele><time>2026-04-19T21:33:51Z</time></trkpt><trkpt lat="35.32448514603775" lon="-120.67563347321259"><ele>151.0</ele><time>2026-04-19T21:33:52Z</time></trkpt><trkpt lat="35.32447475738117" lon="-120.67573895850276"><ele>151.0</ele><time>2026-04-19T21:33:53Z</time></trkpt><trkpt lat="35.324446720949126" lon="-120.67584195098182"><ele>151.0</ele><time>2026-04-19T21:33:54Z</time></trkpt><trkpt lat="35.32441160661098" lon="-120.67593574477844"><ele>151.0</ele><time>2026-04-19T21:33:55Z</time></trkpt><trkpt lat="35.32437607833691" lon="-120.67602999663535"><ele>149.83333333333334</ele><time>2026-04-19T21:33:56Z</time></trkpt><trkpt lat="35.32433099297825" lon="-120.67612190406128"><ele>148.66666666666669</ele><time>2026-04-19T21:33:57Z</time></trkpt><trkpt lat="35.324283406461355" lon="-120.67620698775205"><ele>147.5</ele><time>2026-04-19T21:33:58Z</time></trkpt><trkpt lat="35.324232468376145" lon="-120.67628754583072"><ele>146.33333333333334</ele><time>2026-04-19T21:33:59Z</time></trkpt><trkpt lat="35.3241711281097" lon="-120.67635504815964"><ele>145.16666666666666</ele><time>2026-04-19T21:34:00Z</time></trkpt><trkpt lat="35.324123380786354" lon="-120.67642638439277"><ele>144.0</ele><time>2026-04-19T21:34:01Z</time></trkpt><trkpt lat="35.32408264484887" lon="-120.67649646119278"><ele>144.0</ele><time>2026-04-19T21:34:02Z</time></trkpt><trkpt lat="35.32404686247097" lon="-120.67656071037192"><ele>144.0</ele><time>2026-04-19T21:34:03Z</time></trkpt><trkpt lat="35.323987103621484" lon="-120.67666426756726"><ele>144.0</ele><time>2026-04-19T21:34:05Z</time></trkpt><trkpt lat="35.323950973234375" lon="-120.67672900553593"><ele>144.0</ele><time>2026-04-19T21:34:06Z</time></trkpt><trkpt lat="35.32388475520624" lon="-120.67686583778301"><ele>144.0</ele><time>2026-04-19T21:34:08Z</time></trkpt><trkpt lat="35.32385149418947" lon="-120.67694458842463"><ele>144.0</ele><time>2026-04-19T21:34:09Z</time></trkpt><trkpt lat="35.3238183421342" lon="-120.67703542544052"><ele>145.8</ele><time>2026-04-19T21:34:10Z</time></trkpt><trkpt lat="35.32377692461837" lon="-120.67712954068546"><ele>147.60000000000002</ele><time>2026-04-19T21:34:11Z</time></trkpt><trkpt lat="35.323734590232434" lon="-120.6772352452219"><ele>149.4</ele><time>2026-04-19T21:34:12Z</time></trkpt><trkpt lat="35.323692908002734" lon="-120.67734447078186"><ele>151.20000000000002</ele><time>2026-04-19T21:34:13Z</time></trkpt><trkpt lat="35.32365218454349" lon="-120.6774585849882"><ele>153.0</ele><time>2026-04-19T21:34:14Z</time></trkpt><trkpt lat="35.32361648456723" lon="-120.67756845020102"><ele>153.0</ele><time>2026-04-19T21:34:15Z</time></trkpt><trkpt lat="35.32357931408422" lon="-120.67767341898568"><ele>153.0</ele><time>2026-04-19T21:34:16Z</time></trkpt><trkpt lat="35.3235407436246" lon="-120.67777420860332"><ele>153.0</ele><time>2026-04-19T21:34:17Z</time></trkpt><trkpt lat="35.323494080644416" lon="-120.67786527475299"><ele>153.0</ele><time>2026-04-19T21:34:18Z</time></trkpt><trkpt lat="35.323436292381544" lon="-120.67794986896098"><ele>153.0</ele><time>2026-04-19T21:34:19Z</time></trkpt><trkpt lat="35.32337160435371" lon="-120.67802928811926"><ele>152.66666666666666</ele><time>2026-04-19T21:34:20Z</time></trkpt><trkpt lat="35.32330963738671" lon="-120.67810751831385"><ele>152.33333333333334</ele><time>2026-04-19T21:34:21Z</time></trkpt><trkpt lat="35.3232525955457" lon="-120.67818457165475"><ele>152.0</ele><time>2026-04-19T21:34:22Z</time></trkpt><trkpt lat="35.323192511414" lon="-120.67824752229879"><ele>151.66666666666669</ele><time>2026-04-19T21:34:23Z</time></trkpt><trkpt lat="35.32312892935654" lon="-120.67830661276587"><ele>151.33333333333334</ele><time>2026-04-19T21:34:24Z</time></trkpt><trkpt lat="35.32306808583399" lon="-120.67836264995223"><ele>151.0</ele><time>2026-04-19T21:34:25Z</time></trkpt><trkpt lat="35.32300647028927" lon="-120.67841164470187"><ele>151.0</ele><time>2026-04-19T21:34:26Z</time></trkpt><trkpt lat="35.32294445637595" lon="-120.67845123115379"><ele>151.0</ele><time>2026-04-19T21:34:27Z</time></trkpt><trkpt lat="35.32288855472675" lon="-120.6784942668937"><ele>151.0</ele><time>2026-04-19T21:34:28Z</time></trkpt><trkpt lat="35.32280254615313" lon="-120.6785892041098"><ele>151.0</ele><time>2026-04-19T21:34:30Z</time></trkpt><trkpt lat="35.322723923716644" lon="-120.67866961479868"><ele>151.0</ele><time>2026-04-19T21:34:32Z</time></trkpt><trkpt lat="35.32265838397522" lon="-120.67874212900097"><ele>151.0</ele><time>2026-04-19T21:34:34Z</time></trkpt><trkpt lat="35.32260137770905" lon="-120.67880268924704"><ele>148.5</ele><time>2026-04-19T21:34:36Z</time></trkpt><trkpt lat="35.3225466356315" lon="-120.6788592636063"><ele>146.0</ele><time>2026-04-19T21:34:38Z</time></trkpt><trkpt lat="35.322489027905426" lon="-120.67891734112169"><ele>143.5</ele><time>2026-04-19T21:34:40Z</time></trkpt><trkpt lat="35.32243103804556" lon="-120.6789785573833"><ele>141.0</ele><time>2026-04-19T21:34:42Z</time></trkpt><trkpt lat="35.322369652937404" lon="-120.67904228555649"><ele>138.5</ele><time>2026-04-19T21:34:44Z</time></trkpt><trkpt lat="35.322293627096776" lon="-120.67911028467941"><ele>136.0</ele><time>2026-04-19T21:34:46Z</time></trkpt><trkpt lat="35.3222002584434" lon="-120.67917821645436"><ele>136.0</ele><time>2026-04-19T21:34:48Z</time></trkpt><trkpt lat="35.32208692188895" lon="-120.67924233254728"><ele>136.0</ele><time>2026-04-19T21:34:50Z</time></trkpt><trkpt lat="35.322023296309105" lon="-120.67927314469432"><ele>136.0</ele><time>2026-04-19T21:34:51Z</time></trkpt><trkpt lat="35.32195669450374" lon="-120.6793105925871"><ele>136.0</ele><time>2026-04-19T21:34:52Z</time></trkpt><trkpt lat="35.32188425499025" lon="-120.67934755825576"><ele>136.0</ele><time>2026-04-19T21:34:53Z</time></trkpt><trkpt lat="35.32180430606076" lon="-120.679382837296"><ele>136.0</ele><time>2026-04-19T21:34:54Z</time></trkpt><trkpt lat="35.32172207452081" lon="-120.67941627827538"><ele>134.2</ele><time>2026-04-19T21:34:55Z</time></trkpt><trkpt lat="35.321634491415885" lon="-120.6794520590349"><ele>132.39999999999998</ele><time>2026-04-19T21:34:56Z</time></trkpt><trkpt lat="35.321545783743176" lon="-120.6794929640373"><ele>130.6</ele><time>2026-04-19T21:34:57Z</time></trkpt><trkpt lat="35.32145568951411" lon="-120.67953459293092"><ele>128.79999999999998</ele><time>2026-04-19T21:34:58Z</time></trkpt><trkpt lat="35.32136216266863" lon="-120.67956802524823"><ele>127.0</ele><time>2026-04-19T21:34:59Z</time></trkpt><trkpt lat="35.32126501419499" lon="-120.67959825955134"><ele>126.0</ele><time>2026-04-19T21:35:00Z</time></trkpt><trkpt lat="35.32116635021466" lon="-120.67963183767937"><ele>124.99999999999999</ele><time>2026-04-19T21:35:01Z</time></trkpt><trkpt lat="35.321068475893725" lon="-120.67966749522203"><ele>123.99999999999999</ele><time>2026-04-19T21:35:02Z</time></trkpt><trkpt lat="35.32097004587785" lon="-120.67970285097996"><ele>123.0</ele><time>2026-04-19T21:35:03Z</time></trkpt><trkpt lat="35.32087295782425" lon="-120.67973950001976"><ele>122.0</ele><time>2026-04-19T21:35:04Z</time></trkpt><trkpt lat="35.320776581201564" lon="-120.6797754987467"><ele>122.0</ele><time>2026-04-19T21:35:05Z</time></trkpt><trkpt lat="35.320681989097366" lon="-120.67981301812361"><ele>121.99999999999999</ele><time>2026-04-19T21:35:06Z</time></trkpt><trkpt lat="35.32058725934584" lon="-120.67985429346088"><ele>121.99999999999999</ele><time>2026-04-19T21:35:07Z</time></trkpt><trkpt lat="35.32049585111057" lon="-120.67989676944075"><ele>122.0</ele><time>2026-04-19T21:35:08Z</time></trkpt><trkpt lat="35.320404921281934" lon="-120.67994186455996"><ele>122.0</ele><time>2026-04-19T21:35:09Z</time></trkpt><trkpt lat="35.32031597622274" lon="-120.67998015769574"><ele>121.83333333333333</ele><time>2026-04-19T21:35:10Z</time></trkpt><trkpt lat="35.320229751277274" lon="-120.6800239645553"><ele>121.66666666666666</ele><time>2026-04-19T21:35:11Z</time></trkpt><trkpt lat="35.32014779421331" lon="-120.68007199017005"><ele>121.5</ele><time>2026-04-19T21:35:12Z</time></trkpt><trkpt lat="35.3200665190752" lon="-120.68012009594302"><ele>121.33333333333334</ele><time>2026-04-19T21:35:13Z</time></trkpt><trkpt lat="35.31998567254658" lon="-120.68016216804449"><ele>121.16666666666667</ele><time>2026-04-19T21:35:14Z</time></trkpt><trkpt lat="35.31990832437671" lon="-120.6802101654069"><ele>121.0</ele><time>2026-04-19T21:35:15Z</time></trkpt><trkpt lat="35.31983437241154" lon="-120.68026041619221"><ele>121.00000000000001</ele><time>2026-04-19T21:35:16Z</time></trkpt><trkpt lat="35.31976085459095" lon="-120.68030683811953"><ele>121.0</ele><time>2026-04-19T21:35:17Z</time></trkpt><trkpt lat="35.31968917923595" lon="-120.68035378367898"><ele>121.0</ele><time>2026-04-19T21:35:18Z</time></trkpt><trkpt lat="35.31962205053626" lon="-120.6804065904713"><ele>121.0</ele><time>2026-04-19T21:35:19Z</time></trkpt><trkpt lat="35.31955251803993" lon="-120.68045778117616"><ele>121.00000000000001</ele><time>2026-04-19T21:35:20Z</time></trkpt><trkpt lat="35.31948386255907" lon="-120.68051024880646"><ele>121.0</ele><time>2026-04-19T21:35:21Z</time></trkpt><trkpt lat="35.31941507708188" lon="-120.68056448321087"><ele>121.00000000000001</ele><time>2026-04-19T21:35:22Z</time></trkpt><trkpt lat="35.319346696945544" lon="-120.68061642970768"><ele>121.0</ele><time>2026-04-19T21:35:23Z</time></trkpt><trkpt lat="35.31927763323325" lon="-120.6806686459078"><ele>121.0</ele><time>2026-04-19T21:35:24Z</time></trkpt><trkpt lat="35.31920960746931" lon="-120.68071637058159"><ele>121.0</ele><time>2026-04-19T21:35:25Z</time></trkpt><trkpt lat="35.319143626243076" lon="-120.68076826310514"><ele>121.00000000000001</ele><time>2026-04-19T21:35:26Z</time></trkpt><trkpt lat="35.319077893853" lon="-120.68081601986589"><ele>121.0</ele><time>2026-04-19T21:35:27Z</time></trkpt><trkpt lat="35.31901200272616" lon="-120.68086133282569"><ele>121.0</ele><time>2026-04-19T21:35:28Z</time></trkpt><trkpt lat="35.31894647681635" lon="-120.68090505716522"><ele>120.99999999999999</ele><time>2026-04-19T21:35:29Z</time></trkpt><trkpt lat="35.3188802705816" lon="-120.68094296882234"><ele>121.0</ele><time>2026-04-19T21:35:30Z</time></trkpt><trkpt lat="35.318816441901504" lon="-120.68098472250671"><ele>121.0</ele><time>2026-04-19T21:35:31Z</time></trkpt><trkpt lat="35.31875129116001" lon="-120.68102512124524"><ele>120.99999999999999</ele><time>2026-04-19T21:35:32Z</time></trkpt><trkpt lat="35.31868330698453" lon="-120.68106091906947"><ele>121.0</ele><time>2026-04-19T21:35:33Z</time></trkpt><trkpt lat="35.31861607787605" lon="-120.68109917008873"><ele>121.0</ele><time>2026-04-19T21:35:34Z</time></trkpt><trkpt lat="35.31854994067929" lon="-120.68113922324173"><ele>120.33333333333334</ele><time>2026-04-19T21:35:35Z</time></trkpt><trkpt lat="35.31848275151253" lon="-120.68117845989292"><ele>119.66666666666667</ele><time>2026-04-19T21:35:36Z</time></trkpt><trkpt lat="35.31841694637421" lon="-120.68121399526555"><ele>119.0</ele><time>2026-04-19T21:35:37Z</time></trkpt><trkpt lat="35.31835133217902" lon="-120.68124682272203"><ele>118.33333333333334</ele><time>2026-04-19T21:35:38Z</time></trkpt><trkpt lat="35.318288778173766" lon="-120.68127211491989"><ele>117.66666666666667</ele><time>2026-04-19T21:35:39Z</time></trkpt><trkpt lat="35.3181766416187" lon="-120.68130736764121"><ele>117.0</ele><time>2026-04-19T21:35:41Z</time></trkpt><trkpt lat="35.318065571681174" lon="-120.6813235296969"><ele>116.19999999999999</ele><time>2026-04-19T21:35:43Z</time></trkpt><trkpt lat="35.31794447950606" lon="-120.68134262409863"><ele>115.39999999999999</ele><time>2026-04-19T21:35:45Z</time></trkpt><trkpt lat="35.31781889373147" lon="-120.6813580717423"><ele>114.60000000000001</ele><time>2026-04-19T21:35:47Z</time></trkpt><trkpt lat="35.31775212761827" lon="-120.6813645034433"><ele>113.80000000000001</ele><time>2026-04-19T21:35:48Z</time></trkpt><trkpt lat="35.31768290792664" lon="-120.68136738003477"><ele>113.0</ele><time>2026-04-19T21:35:49Z</time></trkpt><trkpt lat="35.317611212350286" lon="-120.68137227134334"><ele>112.99999999999999</ele><time>2026-04-19T21:35:50Z</time></trkpt><trkpt lat="35.31753777718347" lon="-120.68138096216714"><ele>113.0</ele><time>2026-04-19T21:35:51Z</time></trkpt><trkpt lat="35.31746085458162" lon="-120.68139139810059"><ele>113.0</ele><time>2026-04-19T21:35:52Z</time></trkpt><trkpt lat="35.31738389914973" lon="-120.68140055884159"><ele>113.0</ele><time>2026-04-19T21:35:53Z</time></trkpt><trkpt lat="35.317304480088275" lon="-120.68140729083764"><ele>112.99999999999999</ele><time>2026-04-19T21:35:54Z</time></trkpt><trkpt lat="35.31722491966598" lon="-120.68141552191373"><ele>113.0</ele><time>2026-04-19T21:35:55Z</time></trkpt><trkpt lat="35.317142332633665" lon="-120.6814234665765"><ele>112.66666666666666</ele><time>2026-04-19T21:35:56Z</time></trkpt><trkpt lat="35.3170608652858" lon="-120.68142750618688"><ele>112.33333333333333</ele><time>2026-04-19T21:35:57Z</time></trkpt><trkpt lat="35.31697813235569" lon="-120.68143037667419"><ele>112.0</ele><time>2026-04-19T21:35:58Z</time></trkpt><trkpt lat="35.316896643472916" lon="-120.68143218967593"><ele>111.66666666666666</ele><time>2026-04-19T21:35:59Z</time></trkpt><trkpt lat="35.31681847559634" lon="-120.68143014952348"><ele>111.33333333333333</ele><time>2026-04-19T21:36:00Z</time></trkpt><trkpt lat="35.31674342772282" lon="-120.68141675280829"><ele>111.0</ele><time>2026-04-19T21:36:01Z</time></trkpt><trkpt lat="35.31667127208493" lon="-120.68138735288709"><ele>111.0</ele><time>2026-04-19T21:36:02Z</time></trkpt><trkpt lat="35.316602325947095" lon="-120.68135043774429"><ele>111.0</ele><time>2026-04-19T21:36:03Z</time></trkpt><trkpt lat="35.31653683807339" lon="-120.6813096342619"><ele>111.0</ele><time>2026-04-19T21:36:04Z</time></trkpt><trkpt lat="35.31647314585221" lon="-120.68126905245529"><ele>111.0</ele><time>2026-04-19T21:36:05Z</time></trkpt><trkpt lat="35.316410998301286" lon="-120.68122575592615"><ele>111.0</ele><time>2026-04-19T21:36:06Z</time></trkpt><trkpt lat="35.31634901389464" lon="-120.68118350402914"><ele>111.0</ele><time>2026-04-19T21:36:07Z</time></trkpt><trkpt lat="35.31628789823666" lon="-120.68114483308352"><ele>111.0</ele><time>2026-04-19T21:36:08Z</time></trkpt><trkpt lat="35.31622960262711" lon="-120.68110915444464"><ele>112.4</ele><time>2026-04-19T21:36:09Z</time></trkpt><trkpt lat="35.316172406676976" lon="-120.68107240577332"><ele>113.8</ele><time>2026-04-19T21:36:10Z</time></trkpt><trkpt lat="35.316117470464384" lon="-120.68103341118227"><ele>115.20000000000002</ele><time>2026-04-19T21:36:11Z</time></trkpt><trkpt lat="35.31601040375" lon="-120.68096193139316"><ele>116.60000000000001</ele><time>2026-04-19T21:36:13Z</time></trkpt><trkpt lat="35.31590750044932" lon="-120.68089580865713"><ele>118.0</ele><time>2026-04-19T21:36:15Z</time></trkpt><trkpt lat="35.315813009828815" lon="-120.6808326021732"><ele>118.00000000000001</ele><time>2026-04-19T21:36:17Z</time></trkpt><trkpt lat="35.31573133469368" lon="-120.68077210528837"><ele>118.0</ele><time>2026-04-19T21:36:19Z</time></trkpt><trkpt lat="35.3156568968751" lon="-120.68072536377797"><ele>118.0</ele><time>2026-04-19T21:36:21Z</time></trkpt><trkpt lat="35.31559163598514" lon="-120.68067621188843"><ele>118.0</ele><time>2026-04-19T21:36:23Z</time></trkpt><trkpt lat="35.315524405950626" lon="-120.68062744110091"><ele>118.00000000000001</ele><time>2026-04-19T21:36:25Z</time></trkpt><trkpt lat="35.315452303346255" lon="-120.68058228956858"><ele>118.0</ele><time>2026-04-19T21:36:27Z</time></trkpt><trkpt lat="35.31537843232626" lon="-120.68053587483854"><ele>118.42857142857142</ele><time>2026-04-19T21:36:29Z</time></trkpt><trkpt lat="35.31530849511439" lon="-120.68049103146518"><ele>118.85714285714286</ele><time>2026-04-19T21:36:31Z</time></trkpt><trkpt lat="35.315240675058696" lon="-120.68045432825414"><ele>119.28571428571428</ele><time>2026-04-19T21:36:33Z</time></trkpt><trkpt lat="35.31517539346715" lon="-120.68041920313152"><ele>119.71428571428571</ele><time>2026-04-19T21:36:35Z</time></trkpt><trkpt lat="35.31510687148517" lon="-120.68039858393874"><ele>120.14285714285714</ele><time>2026-04-19T21:36:37Z</time></trkpt><trkpt lat="35.31502786985534" lon="-120.68040025790862"><ele>120.57142857142857</ele><time>2026-04-19T21:36:39Z</time></trkpt><trkpt lat="35.314957682534974" lon="-120.68039822054268"><ele>121.0</ele><time>2026-04-19T21:36:41Z</time></trkpt><trkpt lat="35.31488726770457" lon="-120.68039889473896"><ele>121.0</ele><time>2026-04-19T21:36:43Z</time></trkpt><trkpt lat="35.31480525761147" lon="-120.68040224662246"><ele>121.0</ele><time>2026-04-19T21:36:46Z</time></trkpt><trkpt lat="35.314738801036384" lon="-120.68040607899124"><ele>121.0</ele><time>2026-04-19T21:36:48Z</time></trkpt><trkpt lat="35.314661430762165" lon="-120.6804101132712"><ele>121.0</ele><time>2026-04-19T21:36:49Z</time></trkpt><trkpt lat="35.31450321655653" lon="-120.68042887308685"><ele>121.0</ele><time>2026-04-19T21:36:52Z</time></trkpt><trkpt lat="35.314405489868555" lon="-120.68043007755159"><ele>121.0</ele><time>2026-04-19T21:36:54Z</time></trkpt><trkpt lat="35.314301981587164" lon="-120.68042216481399"><ele>121.0</ele><time>2026-04-19T21:36:56Z</time></trkpt><trkpt lat="35.314194319366806" lon="-120.68042631621746"><ele>121.0</ele><time>2026-04-19T21:36:58Z</time></trkpt><trkpt lat="35.31409029601937" lon="-120.68043046597708"><ele>121.0</ele><time>2026-04-19T21:37:00Z</time></trkpt><trkpt lat="35.313981002103986" lon="-120.68042687527328"><ele>121.0</ele><time>2026-04-19T21:37:02Z</time></trkpt><trkpt lat="35.313865413394396" lon="-120.68042687464407"><ele>120.83333333333334</ele><time>2026-04-19T21:37:04Z</time></trkpt><trkpt lat="35.31373754383242" lon="-120.68043322189924"><ele>120.66666666666667</ele><time>2026-04-19T21:37:06Z</time></trkpt><trkpt lat="35.31366450193637" lon="-120.68043777165714"><ele>120.5</ele><time>2026-04-19T21:37:07Z</time></trkpt><trkpt lat="35.313592063794516" lon="-120.68043285684456"><ele>120.33333333333334</ele><time>2026-04-19T21:37:08Z</time></trkpt><trkpt lat="35.313519235762556" lon="-120.68043102429081"><ele>120.16666666666667</ele><time>2026-04-19T21:37:09Z</time></trkpt><trkpt lat="35.313450368400815" lon="-120.68042312799534"><ele>120.0</ele><time>2026-04-19T21:37:10Z</time></trkpt><trkpt lat="35.313368609446215" lon="-120.68042635661634"><ele>120.0</ele><time>2026-04-19T21:37:11Z</time></trkpt><trkpt lat="35.313286395806706" lon="-120.68042176545737"><ele>120.0</ele><time>2026-04-19T21:37:12Z</time></trkpt><trkpt lat="35.313205504340296" lon="-120.68041785886066"><ele>120.0</ele><time>2026-04-19T21:37:13Z</time></trkpt><trkpt lat="35.31312188542265" lon="-120.68042020982438"><ele>120.0</ele><time>2026-04-19T21:37:14Z</time></trkpt><trkpt lat="35.313041450984294" lon="-120.68042349468492"><ele>120.0</ele><time>2026-04-19T21:37:15Z</time></trkpt><trkpt lat="35.31296177083005" lon="-120.6804209064977"><ele>120.0</ele><time>2026-04-19T21:37:16Z</time></trkpt><trkpt lat="35.31288283101761" lon="-120.68042291930608"><ele>119.5</ele><time>2026-04-19T21:37:17Z</time></trkpt><trkpt lat="35.312797869408186" lon="-120.68042859904293"><ele>119.0</ele><time>2026-04-19T21:37:18Z</time></trkpt><trkpt lat="35.31271624210766" lon="-120.68042750387868"><ele>118.5</ele><time>2026-04-19T21:37:19Z</time></trkpt><trkpt lat="35.31263415215858" lon="-120.68042748394937"><ele>118.0</ele><time>2026-04-19T21:37:20Z</time></trkpt><trkpt lat="35.31254928691133" lon="-120.68042792177343"><ele>117.5</ele><time>2026-04-19T21:37:21Z</time></trkpt><trkpt lat="35.31246745128247" lon="-120.68042648925041"><ele>117.0</ele><time>2026-04-19T21:37:22Z</time></trkpt><trkpt lat="35.31238294798452" lon="-120.68042651081335"><ele>117.0</ele><time>2026-04-19T21:37:23Z</time></trkpt><trkpt lat="35.31229548407034" lon="-120.6804239090767"><ele>117.0</ele><time>2026-04-19T21:37:24Z</time></trkpt><trkpt lat="35.312208608841324" lon="-120.68042047092221"><ele>117.0</ele><time>2026-04-19T21:37:25Z</time></trkpt><trkpt lat="35.312122485831395" lon="-120.68042087228726"><ele>117.0</ele><time>2026-04-19T21:37:26Z</time></trkpt><trkpt lat="35.312033980015336" lon="-120.68042194272756"><ele>117.0</ele><time>2026-04-19T21:37:27Z</time></trkpt><trkpt lat="35.31194481162858" lon="-120.68042707091658"><ele>117.0</ele><time>2026-04-19T21:37:28Z</time></trkpt><trkpt lat="35.311856664901256" lon="-120.68042911170356"><ele>116.83333333333333</ele><time>2026-04-19T21:37:29Z</time></trkpt><trkpt lat="35.31176809061187" lon="-120.6804313485635"><ele>116.66666666666666</ele><time>2026-04-19T21:37:30Z</time></trkpt><trkpt lat="35.31168007996669" lon="-120.68043242476168"><ele>116.5</ele><time>2026-04-19T21:37:31Z</time></trkpt><trkpt lat="35.31159291862845" lon="-120.68043442235737"><ele>116.33333333333333</ele><time>2026-04-19T21:37:32Z</time></trkpt><trkpt lat="35.31150689588061" lon="-120.68043609799928"><ele>116.16666666666666</ele><time>2026-04-19T21:37:33Z</time></trkpt><trkpt lat="35.3114228977276" lon="-120.68043701777782"><ele>116.0</ele><time>2026-04-19T21:37:34Z</time></trkpt><trkpt lat="35.31134091203449" lon="-120.68043915068894"><ele>115.33333333333333</ele><time>2026-04-19T21:37:35Z</time></trkpt><trkpt lat="35.31125979733527" lon="-120.68043890556051"><ele>114.66666666666666</ele><time>2026-04-19T21:37:36Z</time></trkpt><trkpt lat="35.31117941797216" lon="-120.68043135262471"><ele>114.0</ele><time>2026-04-19T21:37:37Z</time></trkpt><trkpt lat="35.311101748063564" lon="-120.6804285241329"><ele>113.33333333333334</ele><time>2026-04-19T21:37:38Z</time></trkpt><trkpt lat="35.31102419744484" lon="-120.68043009015933"><ele>112.66666666666667</ele><time>2026-04-19T21:37:39Z</time></trkpt><trkpt lat="35.31095317830359" lon="-120.68040538646422"><ele>112.0</ele><time>2026-04-19T21:37:40Z</time></trkpt><trkpt lat="35.31088973851233" lon="-120.68034933390827"><ele>112.0</ele><time>2026-04-19T21:37:41Z</time></trkpt><trkpt lat="35.31084265184989" lon="-120.68027593186807"><ele>111.99999999999999</ele><time>2026-04-19T21:37:42Z</time></trkpt><trkpt lat="35.310823325388455" lon="-120.6802006018871"><ele>111.99999999999999</ele><time>2026-04-19T21:37:43Z</time></trkpt><trkpt lat="35.31081283983299" lon="-120.6800633073604"><ele>112.0</ele><time>2026-04-19T21:37:45Z</time></trkpt><trkpt lat="35.31079015395121" lon="-120.6799323909171"><ele>112.0</ele><time>2026-04-19T21:37:47Z</time></trkpt><trkpt lat="35.310739252845146" lon="-120.6798018612684"><ele>112.28571428571428</ele><time>2026-04-19T21:37:49Z</time></trkpt><trkpt lat="35.31070458678218" lon="-120.67973500544889"><ele>112.57142857142857</ele><time>2026-04-19T21:37:50Z</time></trkpt><trkpt lat="35.31066560238923" lon="-120.67966653574955"><ele>112.85714285714286</ele><time>2026-04-19T21:37:51Z</time></trkpt><trkpt lat="35.3106263672948" lon="-120.67959552096033"><ele>113.14285714285714</ele><time>2026-04-19T21:37:52Z</time></trkpt><trkpt lat="35.31058283350976" lon="-120.67952541845285"><ele>113.42857142857142</ele><time>2026-04-19T21:37:53Z</time></trkpt><trkpt lat="35.31053155605908" lon="-120.67945546211712"><ele>113.71428571428571</ele><time>2026-04-19T21:37:54Z</time></trkpt><trkpt lat="35.31047294279858" lon="-120.67938428562525"><ele>114.0</ele><time>2026-04-19T21:37:55Z</time></trkpt><trkpt lat="35.310400925523346" lon="-120.67931562745927"><ele>112.80000000000001</ele><time>2026-04-19T21:37:56Z</time></trkpt><trkpt lat="35.31031692539758" lon="-120.67925399116392"><ele>111.60000000000001</ele><time>2026-04-19T21:37:57Z</time></trkpt><trkpt lat="35.31022936586168" lon="-120.6791934219367"><ele>110.4</ele><time>2026-04-19T21:37:58Z</time></trkpt><trkpt lat="35.31014134093026" lon="-120.67913082201295"><ele>109.2</ele><time>2026-04-19T21:37:59Z</time></trkpt><trkpt lat="35.310055827801044" lon="-120.67906347185466"><ele>108.0</ele><time>2026-04-19T21:38:00Z</time></trkpt><trkpt lat="35.30997291723102" lon="-120.6789920585506"><ele>108.0</ele><time>2026-04-19T21:38:01Z</time></trkpt><trkpt lat="35.30988906510429" lon="-120.6789201029426"><ele>108.00000000000001</ele><time>2026-04-19T21:38:02Z</time></trkpt><trkpt lat="35.30980144022927" lon="-120.6788504203741"><ele>108.00000000000001</ele><time>2026-04-19T21:38:03Z</time></trkpt><trkpt lat="35.30971885665231" lon="-120.67878241856674"><ele>108.0</ele><time>2026-04-19T21:38:04Z</time></trkpt><trkpt lat="35.30963909274591" lon="-120.6787119651306"><ele>108.0</ele><time>2026-04-19T21:38:05Z</time></trkpt><trkpt lat="35.309561392577656" lon="-120.6786434412837"><ele>107.0</ele><time>2026-04-19T21:38:06Z</time></trkpt><trkpt lat="35.30948582950646" lon="-120.67858118880102"><ele>106.00000000000001</ele><time>2026-04-19T21:38:07Z</time></trkpt><trkpt lat="35.309412786458495" lon="-120.6785152321161"><ele>105.0</ele><time>2026-04-19T21:38:08Z</time></trkpt><trkpt lat="35.30932422047169" lon="-120.67848071972772"><ele>104.0</ele><time>2026-04-19T21:38:09Z</time></trkpt><trkpt lat="35.30922715805917" lon="-120.67847640496925"><ele>103.0</ele><time>2026-04-19T21:38:10Z</time></trkpt><trkpt lat="35.309128806850204" lon="-120.67849086167779"><ele>103.0</ele><time>2026-04-19T21:38:11Z</time></trkpt><trkpt lat="35.30903139172896" lon="-120.67850879378902"><ele>103.0</ele><time>2026-04-19T21:38:12Z</time></trkpt><trkpt lat="35.30893264229375" lon="-120.67852499406526"><ele>103.0</ele><time>2026-04-19T21:38:13Z</time></trkpt><trkpt lat="35.308829558424115" lon="-120.67853435053692"><ele>103.0</ele><time>2026-04-19T21:38:14Z</time></trkpt><trkpt lat="35.308720817479866" lon="-120.67853353836831"><ele>103.0</ele><time>2026-04-19T21:38:15Z</time></trkpt><trkpt lat="35.30860878393899" lon="-120.67852659542078"><ele>101.75</ele><time>2026-04-19T21:38:16Z</time></trkpt><trkpt lat="35.30849319198349" lon="-120.67850615638739"><ele>100.5</ele><time>2026-04-19T21:38:17Z</time></trkpt><trkpt lat="35.30837768580827" lon="-120.67846674295917"><ele>99.25</ele><time>2026-04-19T21:38:18Z</time></trkpt><trkpt lat="35.3082653595295" lon="-120.67841167352586"><ele>98.0</ele><time>2026-04-19T21:38:19Z</time></trkpt><trkpt lat="35.308163710220875" lon="-120.67833415879785"><ele>98.0</ele><time>2026-04-19T21:38:20Z</time></trkpt><trkpt lat="35.308072885254404" lon="-120.67824497433448"><ele>98.0</ele><time>2026-04-19T21:38:21Z</time></trkpt><trkpt lat="35.307991766833375" lon="-120.6781534277085"><ele>98.0</ele><time>2026-04-19T21:38:22Z</time></trkpt><trkpt lat="35.30791459470509" lon="-120.67806283601008"><ele>98.0</ele><time>2026-04-19T21:38:23Z</time></trkpt><trkpt lat="35.30783615820986" lon="-120.67797505927254"><ele>98.0</ele><time>2026-04-19T21:38:24Z</time></trkpt><trkpt lat="35.307760799421466" lon="-120.67788746238183"><ele>98.0</ele><time>2026-04-19T21:38:25Z</time></trkpt><trkpt lat="35.3076866227416" lon="-120.67779452186466"><ele>98.0</ele><time>2026-04-19T21:38:26Z</time></trkpt><trkpt lat="35.30761067006753" lon="-120.6777048122694"><ele>98.0</ele><time>2026-04-19T21:38:27Z</time></trkpt><trkpt lat="35.3075345875095" lon="-120.67761756430706"><ele>98.0</ele><time>2026-04-19T21:38:28Z</time></trkpt><trkpt lat="35.307458397423915" lon="-120.67753099371966"><ele>98.0</ele><time>2026-04-19T21:38:29Z</time></trkpt><trkpt lat="35.30737922349193" lon="-120.67745097548195"><ele>98.0</ele><time>2026-04-19T21:38:30Z</time></trkpt><trkpt lat="35.30729456828789" lon="-120.67737710854514"><ele>98.0</ele><time>2026-04-19T21:38:31Z</time></trkpt><trkpt lat="35.30721343536358" lon="-120.6773038559194"><ele>98.0</ele><time>2026-04-19T21:38:32Z</time></trkpt><trkpt lat="35.30713463343268" lon="-120.67723038574051"><ele>98.0</ele><time>2026-04-19T21:38:33Z</time></trkpt><trkpt lat="35.30705754198982" lon="-120.67715821712363"><ele>98.0</ele><time>2026-04-19T21:38:34Z</time></trkpt><trkpt lat="35.30698313234679" lon="-120.67708376023849"><ele>98.0</ele><time>2026-04-19T21:38:35Z</time></trkpt><trkpt lat="35.30690646773319" lon="-120.67701414455944"><ele>98.0</ele><time>2026-04-19T21:38:36Z</time></trkpt><trkpt lat="35.30683351382964" lon="-120.6769430328037"><ele>98.0</ele><time>2026-04-19T21:38:37Z</time></trkpt><trkpt lat="35.30676375437452" lon="-120.67686769570645"><ele>98.0</ele><time>2026-04-19T21:38:38Z</time></trkpt><trkpt lat="35.306702548228586" lon="-120.67679025668939"><ele>98.0</ele><time>2026-04-19T21:38:39Z</time></trkpt><trkpt lat="35.30664625528196" lon="-120.67671189722047"><ele>98.33333333333333</ele><time>2026-04-19T21:38:40Z</time></trkpt><trkpt lat="35.30659416512725" lon="-120.67663114375787"><ele>98.66666666666666</ele><time>2026-04-19T21:38:41Z</time></trkpt><trkpt lat="35.306546756918394" lon="-120.67655093867532"><ele>99.0</ele><time>2026-04-19T21:38:42Z</time></trkpt><trkpt lat="35.30650066675986" lon="-120.67646934107519"><ele>99.33333333333334</ele><time>2026-04-19T21:38:43Z</time></trkpt><trkpt lat="35.306459109142644" lon="-120.67638517840706"><ele>99.66666666666667</ele><time>2026-04-19T21:38:44Z</time></trkpt><trkpt lat="35.30642256449967" lon="-120.67629694712146"><ele>100.0</ele><time>2026-04-19T21:38:45Z</time></trkpt><trkpt lat="35.306387399796655" lon="-120.6762073118787"><ele>99.66666666666667</ele><time>2026-04-19T21:38:46Z</time></trkpt><trkpt lat="35.30635802280034" lon="-120.67611703128581"><ele>99.33333333333334</ele><time>2026-04-19T21:38:47Z</time></trkpt><trkpt lat="35.30632015024558" lon="-120.67604616815647"><ele>99.0</ele><time>2026-04-19T21:38:48Z</time></trkpt><trkpt lat="35.3062437968849" lon="-120.67597494367676"><ele>98.66666666666666</ele><time>2026-04-19T21:38:50Z</time></trkpt><trkpt lat="35.30616706356954" lon="-120.67595574184332"><ele>98.33333333333333</ele><time>2026-04-19T21:38:54Z</time></trkpt><trkpt lat="35.30609829884359" lon="-120.67589667048922"><ele>98.0</ele><time>2026-04-19T21:38:57Z</time></trkpt><trkpt lat="35.30603686505409" lon="-120.67582893596771"><ele>98.0</ele><time>2026-04-19T21:38:59Z</time></trkpt><trkpt lat="35.3059458697404" lon="-120.67578809363475"><ele>98.0</ele><time>2026-04-19T21:39:01Z</time></trkpt><trkpt lat="35.30585045449107" lon="-120.6757380113134"><ele>98.0</ele><time>2026-04-19T21:39:03Z</time></trkpt><trkpt lat="35.30574193417902" lon="-120.67569974279186"><ele>98.0</ele><time>2026-04-19T21:39:05Z</time></trkpt><trkpt lat="35.305628358872674" lon="-120.67567225935679"><ele>98.0</ele><time>2026-04-19T21:39:07Z</time></trkpt><trkpt lat="35.30552148683699" lon="-120.67561923072479"><ele>97.25</ele><time>2026-04-19T21:39:09Z</time></trkpt><trkpt lat="35.305442218197825" lon="-120.67551473775411"><ele>96.5</ele><time>2026-04-19T21:39:11Z</time></trkpt><trkpt lat="35.30537996452069" lon="-120.67539260787652"><ele>95.75</ele><time>2026-04-19T21:39:13Z</time></trkpt><trkpt lat="35.30533760955654" lon="-120.6752534599098"><ele>95.0</ele><time>2026-04-19T21:39:15Z</time></trkpt><trkpt lat="35.30531727101022" lon="-120.6751035196244"><ele>95.0</ele><time>2026-04-19T21:39:17Z</time></trkpt><trkpt lat="35.30530472831249" lon="-120.67494940860459"><ele>95.0</ele><time>2026-04-19T21:39:19Z</time></trkpt><trkpt lat="35.305303957610995" lon="-120.6748692947616"><ele>95.0</ele><time>2026-04-19T21:39:20Z</time></trkpt><trkpt lat="35.30530728993501" lon="-120.67478703749136"><ele>95.0</ele><time>2026-04-19T21:39:21Z</time></trkpt><trkpt lat="35.30530916337077" lon="-120.67470474799839"><ele>95.0</ele><time>2026-04-19T21:39:22Z</time></trkpt><trkpt lat="35.30530858997026" lon="-120.67462142014013"><ele>95.0</ele><time>2026-04-19T21:39:23Z</time></trkpt><trkpt lat="35.305310059549875" lon="-120.67453905081925"><ele>95.0</ele><time>2026-04-19T21:39:24Z</time></trkpt><trkpt lat="35.305313372328975" lon="-120.67445390291176"><ele>95.0</ele><time>2026-04-19T21:39:25Z</time></trkpt><trkpt lat="35.30531728001667" lon="-120.67437092378452"><ele>95.0</ele><time>2026-04-19T21:39:26Z</time></trkpt><trkpt lat="35.30530455756963" lon="-120.67428981836312"><ele>95.0</ele><time>2026-04-19T21:39:27Z</time></trkpt><trkpt lat="35.305266277318985" lon="-120.67421567378679"><ele>95.0</ele><time>2026-04-19T21:39:28Z</time></trkpt><trkpt lat="35.30521854218411" lon="-120.67414886789233"><ele>95.0</ele><time>2026-04-19T21:39:29Z</time></trkpt><trkpt lat="35.30516610750046" lon="-120.67408887864855"><ele>95.0</ele><time>2026-04-19T21:39:30Z</time></trkpt><trkpt lat="35.30511376933209" lon="-120.67403122940182"><ele>95.0</ele><time>2026-04-19T21:39:31Z</time></trkpt><trkpt lat="35.305059530847664" lon="-120.67397675551186"><ele>95.0</ele><time>2026-04-19T21:39:32Z</time></trkpt><trkpt lat="35.30500279756886" lon="-120.6739278016624"><ele>95.0</ele><time>2026-04-19T21:39:33Z</time></trkpt><trkpt lat="35.304942432657725" lon="-120.67388254853726"><ele>95.0</ele><time>2026-04-19T21:39:34Z</time></trkpt><trkpt lat="35.304882406719926" lon="-120.67383898459259"><ele>95.0</ele><time>2026-04-19T21:39:35Z</time></trkpt><trkpt lat="35.30482316855834" lon="-120.67379402372377"><ele>95.0</ele><time>2026-04-19T21:39:36Z</time></trkpt><trkpt lat="35.3047639012621" lon="-120.67374685455518"><ele>95.0</ele><time>2026-04-19T21:39:37Z</time></trkpt><trkpt lat="35.30470447856239" lon="-120.67369890115148"><ele>94.85714285714286</ele><time>2026-04-19T21:39:38Z</time></trkpt><trkpt lat="35.30464627624957" lon="-120.6736519703929"><ele>94.71428571428572</ele><time>2026-04-19T21:39:39Z</time></trkpt><trkpt lat="35.30458441117635" lon="-120.67360994315199"><ele>94.57142857142857</ele><time>2026-04-19T21:39:40Z</time></trkpt><trkpt lat="35.304521656206404" lon="-120.67357186422458"><ele>94.42857142857143</ele><time>2026-04-19T21:39:41Z</time></trkpt><trkpt lat="35.30445475194317" lon="-120.67354059559953"><ele>94.28571428571428</ele><time>2026-04-19T21:39:42Z</time></trkpt><trkpt lat="35.30438410050059" lon="-120.67352243436419"><ele>94.14285714285714</ele><time>2026-04-19T21:39:43Z</time></trkpt><trkpt lat="35.304313179066746" lon="-120.67351324420711"><ele>94.0</ele><time>2026-04-19T21:39:44Z</time></trkpt><trkpt lat="35.30424404275549" lon="-120.67350864781496"><ele>93.85714285714286</ele><time>2026-04-19T21:39:45Z</time></trkpt><trkpt lat="35.3041762641693" lon="-120.67350583048216"><ele>93.71428571428571</ele><time>2026-04-19T21:39:46Z</time></trkpt><trkpt lat="35.30410686619633" lon="-120.67350358181724"><ele>93.57142857142858</ele><time>2026-04-19T21:39:47Z</time></trkpt><trkpt lat="35.304038073958026" lon="-120.67350907435097"><ele>93.42857142857143</ele><time>2026-04-19T21:39:48Z</time></trkpt><trkpt lat="35.30396751893437" lon="-120.67351392342869"><ele>93.28571428571429</ele><time>2026-04-19T21:39:49Z</time></trkpt><trkpt lat="35.30389716081588" lon="-120.67352166255715"><ele>93.14285714285715</ele><time>2026-04-19T21:39:50Z</time></trkpt><trkpt lat="35.30382742145864" lon="-120.67353294602138"><ele>93.0</ele><time>2026-04-19T21:39:51Z</time></trkpt><trkpt lat="35.30375768290605" lon="-120.67354705495475"><ele>93.00000000000001</ele><time>2026-04-19T21:39:52Z</time></trkpt><trkpt lat="35.30368815408937" lon="-120.67356800163067"><ele>93.0</ele><time>2026-04-19T21:39:53Z</time></trkpt><trkpt lat="35.303621686985686" lon="-120.67359788271895"><ele>93.0</ele><time>2026-04-19T21:39:54Z</time></trkpt><trkpt lat="35.30355385217064" lon="-120.67362456797272"><ele>93.0</ele><time>2026-04-19T21:39:55Z</time></trkpt><trkpt lat="35.30348513780645" lon="-120.67364676719339"><ele>93.0</ele><time>2026-04-19T21:39:56Z</time></trkpt><trkpt lat="35.303415729277646" lon="-120.67366524517963"><ele>93.00000000000001</ele><time>2026-04-19T21:39:57Z</time></trkpt><trkpt lat="35.30334400497074" lon="-120.67367400702373"><ele>93.0</ele><time>2026-04-19T21:39:58Z</time></trkpt><trkpt lat="35.30327132015479" lon="-120.67367861002239"><ele>93.14285714285715</ele><time>2026-04-19T21:39:59Z</time></trkpt><trkpt lat="35.3031996090111" lon="-120.67368941003112"><ele>93.28571428571429</ele><time>2026-04-19T21:40:00Z</time></trkpt><trkpt lat="35.30312776326626" lon="-120.67370184194331"><ele>93.42857142857143</ele><time>2026-04-19T21:40:01Z</time></trkpt><trkpt lat="35.30305722436989" lon="-120.67371441672594"><ele>93.57142857142858</ele><time>2026-04-19T21:40:02Z</time></trkpt><trkpt lat="35.30298713979753" lon="-120.67371668773278"><ele>93.71428571428571</ele><time>2026-04-19T21:40:03Z</time></trkpt><trkpt lat="35.302916809281214" lon="-120.67371183151688"><ele>93.85714285714286</ele><time>2026-04-19T21:40:04Z</time></trkpt><trkpt lat="35.302845463013156" lon="-120.67370019086206"><ele>94.0</ele><time>2026-04-19T21:40:05Z</time></trkpt><trkpt lat="35.30277551111726" lon="-120.67367848186137"><ele>95.4</ele><time>2026-04-19T21:40:06Z</time></trkpt><trkpt lat="35.30270796173823" lon="-120.67364834232392"><ele>96.80000000000001</ele><time>2026-04-19T21:40:07Z</time></trkpt><trkpt lat="35.30264067008782" lon="-120.67361162826471"><ele>98.19999999999999</ele><time>2026-04-19T21:40:09Z</time></trkpt><trkpt lat="35.302647408675305" lon="-120.67373615602055"><ele>99.6</ele><time>2026-04-19T21:40:13Z</time></trkpt><trkpt lat="35.3026975513294" lon="-120.67384463283793"><ele>101.0</ele><time>2026-04-19T21:40:15Z</time></trkpt><trkpt lat="35.30274690597876" lon="-120.67396740404814"><ele>101.0</ele><time>2026-04-19T21:40:17Z</time></trkpt><trkpt lat="35.30277345516369" lon="-120.67404319569442"><ele>101.0</ele><time>2026-04-19T21:40:18Z</time></trkpt><trkpt lat="35.30279861656547" lon="-120.67411433844919"><ele>101.0</ele><time>2026-04-19T21:40:19Z</time></trkpt><trkpt lat="35.302830846876155" lon="-120.67422121296734"><ele>101.0</ele><time>2026-04-19T21:40:21Z</time></trkpt><trkpt lat="35.30287352153746" lon="-120.67429115860115"><ele>101.0</ele><time>2026-04-19T21:40:24Z</time></trkpt><trkpt lat="35.30292729745134" lon="-120.67433720214143"><ele>101.0</ele><time>2026-04-19T21:40:27Z</time></trkpt><trkpt lat="35.302993618093716" lon="-120.6743344762165"><ele>101.0</ele><time>2026-04-19T21:40:29Z</time></trkpt><trkpt lat="35.303057086638546" lon="-120.67436243446176"><ele>100.0</ele><time>2026-04-19T21:40:32Z</time></trkpt><trkpt lat="35.3031224777792" lon="-120.67437404085956"><ele>99.0</ele><time>2026-04-19T21:40:41Z</time></trkpt><trkpt lat="35.303184847195894" lon="-120.67439689970603"><ele>98.0</ele><time>2026-04-19T21:40:46Z</time></trkpt><trkpt lat="35.30324854838863" lon="-120.6744125288027"><ele>97.0</ele><time>2026-04-19T21:40:51Z</time></trkpt><trkpt lat="35.30331946195032" lon="-120.67440313156983"><ele>96.0</ele><time>2026-04-19T21:40:57Z</time></trkpt><trkpt lat="35.303389566518575" lon="-120.67440055877968"><ele>95.0</ele><time>2026-04-19T21:41:02Z</time></trkpt><trkpt lat="35.30345748350049" lon="-120.67441035125296"><ele>94.0</ele><time>2026-04-19T21:41:07Z</time></trkpt><trkpt lat="35.30351222973807" lon="-120.67445840308935"><ele>94.0</ele><time>2026-04-19T21:41:12Z</time></trkpt><trkpt lat="35.303547849004836" lon="-120.67452301715542"><ele>94.0</ele><time>2026-04-19T21:41:17Z</time></trkpt><trkpt lat="35.30355561314465" lon="-120.67460584953785"><ele>94.0</ele><time>2026-04-19T21:41:25Z</time></trkpt><trkpt lat="35.30352936398221" lon="-120.67450060998165"><ele>94.0</ele><time>2026-04-19T21:41:38Z</time></trkpt><trkpt lat="35.30346854906552" lon="-120.6744282173123"><ele>94.0</ele><time>2026-04-19T21:41:40Z</time></trkpt><trkpt lat="35.3033863172073" lon="-120.67441236272808"><ele>94.0</ele><time>2026-04-19T21:41:42Z</time></trkpt><trkpt lat="35.30325647136562" lon="-120.6744322244098"><ele>94.0</ele><time>2026-04-19T21:41:44Z</time></trkpt><trkpt lat="35.303192743757336" lon="-120.6744284752192"><ele>94.0</ele><time>2026-04-19T21:41:45Z</time></trkpt><trkpt lat="35.303087436115064" lon="-120.67441238307637"><ele>94.0</ele><time>2026-04-19T21:41:47Z</time></trkpt><trkpt lat="35.303017023141535" lon="-120.6743846591102"><ele>94.0</ele><time>2026-04-19T21:41:49Z</time></trkpt><trkpt lat="35.30294327240273" lon="-120.67435394410785"><ele>94.0</ele><time>2026-04-19T21:41:52Z</time></trkpt><trkpt lat="35.302882907008524" lon="-120.67429399560916"><ele>94.0</ele><time>2026-04-19T21:41:56Z</time></trkpt><trkpt lat="35.3028279493723" lon="-120.67424796761593"><ele>95.16666666666666</ele><time>2026-04-19T21:42:00Z</time></trkpt><trkpt lat="35.30279491565613" lon="-120.67417443313765"><ele>96.33333333333333</ele><time>2026-04-19T21:42:04Z</time></trkpt><trkpt lat="35.302762262621194" lon="-120.67406763441097"><ele>97.5</ele><time>2026-04-19T21:42:08Z</time></trkpt><trkpt lat="35.302741506929024" lon="-120.67397142114251"><ele>98.66666666666666</ele><time>2026-04-19T21:42:12Z</time></trkpt><trkpt lat="35.302702992310806" lon="-120.67389710738401"><ele>99.83333333333333</ele><time>2026-04-19T21:42:15Z</time></trkpt><trkpt lat="35.30267271380173" lon="-120.67379818674533"><ele>101.0</ele><time>2026-04-19T21:42:18Z</time></trkpt><trkpt lat="35.30266183067978" lon="-120.67371571732475"><ele>100.99999999999999</ele><time>2026-04-19T21:42:21Z</time></trkpt><trkpt lat="35.302620581397896" lon="-120.67363916405412"><ele>101.0</ele><time>2026-04-19T21:42:24Z</time></trkpt><trkpt lat="35.302573107590156" lon="-120.67356002309523"><ele>101.0</ele><time>2026-04-19T21:42:26Z</time></trkpt><trkpt lat="35.30252890412001" lon="-120.67349648026126"><ele>101.0</ele><time>2026-04-19T21:42:28Z</time></trkpt><trkpt lat="35.30248010227923" lon="-120.67341805382435"><ele>100.99999999999999</ele><time>2026-04-19T21:42:29Z</time></trkpt><trkpt lat="35.30244645414762" lon="-120.6733234501011"><ele>101.0</ele><time>2026-04-19T21:42:31Z</time></trkpt><trkpt lat="35.30236055830912" lon="-120.67315409175791"><ele>99.25</ele><time>2026-04-19T21:42:34Z</time></trkpt><trkpt lat="35.30234716337201" lon="-120.67302454483469"><ele>97.5</ele><time>2026-04-19T21:42:36Z</time></trkpt><trkpt lat="35.30232443813154" lon="-120.67288774558345"><ele>95.75</ele><time>2026-04-19T21:42:38Z</time></trkpt><trkpt lat="35.30230885850122" lon="-120.67274629544296"><ele>94.0</ele><time>2026-04-19T21:42:40Z</time></trkpt><trkpt lat="35.30229034994679" lon="-120.67260283453662"><ele>93.25</ele><time>2026-04-19T21:42:42Z</time></trkpt><trkpt lat="35.30226866627828" lon="-120.67246652304772"><ele>92.5</ele><time>2026-04-19T21:42:44Z</time></trkpt><trkpt lat="35.30225336347589" lon="-120.67232112948223"><ele>91.75</ele><time>2026-04-19T21:42:46Z</time></trkpt><trkpt lat="35.30223385423218" lon="-120.67216987775332"><ele>91.0</ele><time>2026-04-19T21:42:48Z</time></trkpt><trkpt lat="35.30220732213469" lon="-120.67202493913733"><ele>92.0</ele><time>2026-04-19T21:42:50Z</time></trkpt><trkpt lat="35.30218449746699" lon="-120.6718653638712"><ele>93.0</ele><time>2026-04-19T21:42:52Z</time></trkpt><trkpt lat="35.302146085909385" lon="-120.6717325021806"><ele>94.0</ele><time>2026-04-19T21:42:54Z</time></trkpt><trkpt lat="35.30204552698566" lon="-120.67163489633442"><ele>95.0</ele><time>2026-04-19T21:42:56Z</time></trkpt><trkpt lat="35.3019437993881" lon="-120.67154234101552"><ele>95.0</ele><time>2026-04-19T21:42:58Z</time></trkpt><trkpt lat="35.30189091450236" lon="-120.67149821559079"><ele>95.0</ele><time>2026-04-19T21:42:59Z</time></trkpt><trkpt lat="35.30183625994664" lon="-120.67145642183115"><ele>95.0</ele><time>2026-04-19T21:43:00Z</time></trkpt><trkpt lat="35.301780227362755" lon="-120.67141170055702"><ele>95.0</ele><time>2026-04-19T21:43:01Z</time></trkpt><trkpt lat="35.3017286853065" lon="-120.67136379985291"><ele>95.0</ele><time>2026-04-19T21:43:02Z</time></trkpt><trkpt lat="35.30167883832049" lon="-120.67131380095734"><ele>95.0</ele><time>2026-04-19T21:43:03Z</time></trkpt><trkpt lat="35.30163421718481" lon="-120.67125323711294"><ele>95.0</ele><time>2026-04-19T21:43:04Z</time></trkpt><trkpt lat="35.30159529745081" lon="-120.67118493741157"><ele>95.0</ele><time>2026-04-19T21:43:05Z</time></trkpt><trkpt lat="35.301551121203296" lon="-120.67111764478824"><ele>95.0</ele><time>2026-04-19T21:43:06Z</time></trkpt><trkpt lat="35.30149929832752" lon="-120.6710524254009"><ele>95.0</ele><time>2026-04-19T21:43:07Z</time></trkpt><trkpt lat="35.30144426487387" lon="-120.67099454555513"><ele>95.0</ele><time>2026-04-19T21:43:08Z</time></trkpt><trkpt lat="35.30139440690497" lon="-120.67093132370367"><ele>95.0</ele><time>2026-04-19T21:43:09Z</time></trkpt><trkpt lat="35.30134381712188" lon="-120.67087107547263"><ele>95.0</ele><time>2026-04-19T21:43:10Z</time></trkpt><trkpt lat="35.301282854944525" lon="-120.67082671275534"><ele>95.0</ele><time>2026-04-19T21:43:11Z</time></trkpt><trkpt lat="35.30118106692035" lon="-120.67078534846205"><ele>94.33333333333334</ele><time>2026-04-19T21:43:13Z</time></trkpt><trkpt lat="35.30111962642299" lon="-120.67075957025213"><ele>93.66666666666667</ele><time>2026-04-19T21:43:15Z</time></trkpt><trkpt lat="35.30104232187465" lon="-120.67071289483987"><ele>93.0</ele><time>2026-04-19T21:43:18Z</time></trkpt><trkpt lat="35.300976838992014" lon="-120.67065822889224"><ele>92.33333333333333</ele><time>2026-04-19T21:43:22Z</time></trkpt><trkpt lat="35.30091100285947" lon="-120.67061975611928"><ele>91.66666666666666</ele><time>2026-04-19T21:43:24Z</time></trkpt><trkpt lat="35.30083597096157" lon="-120.67056141370631"><ele>91.0</ele><time>2026-04-19T21:43:26Z</time></trkpt><trkpt lat="35.300736702699965" lon="-120.67050400875613"><ele>91.0</ele><time>2026-04-19T21:43:28Z</time></trkpt><trkpt lat="35.30064759291608" lon="-120.67045649392198"><ele>91.0</ele><time>2026-04-19T21:43:30Z</time></trkpt><trkpt lat="35.30055079895259" lon="-120.67040281677623"><ele>91.0</ele><time>2026-04-19T21:43:32Z</time></trkpt><trkpt lat="35.30048023746293" lon="-120.67034817851359"><ele>91.0</ele><time>2026-04-19T21:43:34Z</time></trkpt><trkpt lat="35.30042750351417" lon="-120.67030112358053"><ele>91.0</ele><time>2026-04-19T21:43:38Z</time></trkpt><trkpt lat="35.300379545241505" lon="-120.67022540733359"><ele>91.0</ele><time>2026-04-19T21:43:44Z</time></trkpt><trkpt lat="35.30042346355744" lon="-120.6701519562307"><ele>90.83333333333333</ele><time>2026-04-19T21:43:47Z</time></trkpt><trkpt lat="35.30047589972043" lon="-120.6700898508916"><ele>90.66666666666666</ele><time>2026-04-19T21:43:51Z</time></trkpt><trkpt lat="35.30052960098875" lon="-120.67004475741487"><ele>90.5</ele><time>2026-04-19T21:43:54Z</time></trkpt><trkpt lat="35.30060210444968" lon="-120.6699645426135"><ele>90.33333333333333</ele><time>2026-04-19T21:43:57Z</time></trkpt><trkpt lat="35.300665251767526" lon="-120.66991114556903"><ele>90.16666666666667</ele><time>2026-04-19T21:43:59Z</time></trkpt><trkpt lat="35.300730376223896" lon="-120.66984260037505"><ele>90.0</ele><time>2026-04-19T21:44:01Z</time></trkpt><trkpt lat="35.30080469401891" lon="-120.66977313566068"><ele>90.0</ele><time>2026-04-19T21:44:03Z</time></trkpt><trkpt lat="35.30088367757422" lon="-120.66969369923689"><ele>90.0</ele><time>2026-04-19T21:44:05Z</time></trkpt><trkpt lat="35.30096948440337" lon="-120.6696132939507"><ele>90.0</ele><time>2026-04-19T21:44:07Z</time></trkpt><trkpt lat="35.30105642588831" lon="-120.66952884918071"><ele>90.0</ele><time>2026-04-19T21:44:09Z</time></trkpt><trkpt lat="35.30113327830114" lon="-120.66945645887584"><ele>90.0</ele><time>2026-04-19T21:44:11Z</time></trkpt><trkpt lat="35.30120387206227" lon="-120.66938807657809"><ele>90.2</ele><time>2026-04-19T21:44:13Z</time></trkpt><trkpt lat="35.3012560904035" lon="-120.66931783280455"><ele>90.4</ele><time>2026-04-19T21:44:15Z</time></trkpt><trkpt lat="35.30112702616473" lon="-120.66918922802778"><ele>90.6</ele><time>2026-04-19T21:44:20Z</time></trkpt><trkpt lat="35.301050306582724" lon="-120.66923628603385"><ele>90.8</ele><time>2026-04-19T21:44:22Z</time></trkpt><trkpt lat="35.300973895611804" lon="-120.66931456549342"><ele>91.0</ele><time>2026-04-19T21:44:24Z</time></trkpt><trkpt lat="35.30089192936041" lon="-120.66939861468028"><ele>90.8</ele><time>2026-04-19T21:44:26Z</time></trkpt><trkpt lat="35.30080350473842" lon="-120.66949223569053"><ele>90.6</ele><time>2026-04-19T21:44:28Z</time></trkpt><trkpt lat="35.30070771104935" lon="-120.66959016183675"><ele>90.4</ele><time>2026-04-19T21:44:30Z</time></trkpt><trkpt lat="35.30065784260894" lon="-120.66963786933766"><ele>90.2</ele><time>2026-04-19T21:44:31Z</time></trkpt><trkpt lat="35.30056572173092" lon="-120.66973523272685"><ele>90.0</ele><time>2026-04-19T21:44:33Z</time></trkpt><trkpt lat="35.30047029623543" lon="-120.66982531300388"><ele>89.8</ele><time>2026-04-19T21:44:35Z</time></trkpt><trkpt lat="35.30037263665245" lon="-120.66991436668627"><ele>89.6</ele><time>2026-04-19T21:44:37Z</time></trkpt><trkpt lat="35.30025812086192" lon="-120.66998250936227"><ele>89.4</ele><time>2026-04-19T21:44:39Z</time></trkpt><trkpt lat="35.30018184608763" lon="-120.66998212449585"><ele>89.2</ele><time>2026-04-19T21:44:40Z</time></trkpt><trkpt lat="35.30012684418358" lon="-120.66992042961834"><ele>89.0</ele><time>2026-04-19T21:44:41Z</time></trkpt><trkpt lat="35.30001082402326" lon="-120.66991092502356"><ele>89.0</ele><time>2026-04-19T21:44:43Z</time></trkpt><trkpt lat="35.2998911429973" lon="-120.66988360424915"><ele>89.0</ele><time>2026-04-19T21:44:45Z</time></trkpt><trkpt lat="35.299775699405224" lon="-120.66987008590962"><ele>89.0</ele><time>2026-04-19T21:44:47Z</time></trkpt><trkpt lat="35.299663607258644" lon="-120.66984827351553"><ele>89.0</ele><time>2026-04-19T21:44:49Z</time></trkpt><trkpt lat="35.29954852191369" lon="-120.66983949916772"><ele>89.16666666666667</ele><time>2026-04-19T21:44:51Z</time></trkpt><trkpt lat="35.299432450017996" lon="-120.66979629394704"><ele>89.33333333333334</ele><time>2026-04-19T21:44:53Z</time></trkpt><trkpt lat="35.299372762688044" lon="-120.66976356786532"><ele>89.5</ele><time>2026-04-19T21:44:54Z</time></trkpt><trkpt lat="35.299312036040995" lon="-120.66971992708949"><ele>89.66666666666667</ele><time>2026-04-19T21:44:55Z</time></trkpt><trkpt lat="35.29925456069529" lon="-120.66966569255476"><ele>89.83333333333333</ele><time>2026-04-19T21:44:56Z</time></trkpt><trkpt lat="35.29916603383215" lon="-120.669585902438"><ele>90.0</ele><time>2026-04-19T21:44:58Z</time></trkpt><trkpt lat="35.29908418908389" lon="-120.66950292404422"><ele>90.0</ele><time>2026-04-19T21:45:00Z</time></trkpt><trkpt lat="35.298999678763764" lon="-120.66941533664459"><ele>90.0</ele><time>2026-04-19T21:45:02Z</time></trkpt><trkpt lat="35.29892212347291" lon="-120.66937152370134"><ele>90.0</ele><time>2026-04-19T21:45:04Z</time></trkpt><trkpt lat="35.298856280073934" lon="-120.66935532014794"><ele>90.0</ele><time>2026-04-19T21:45:06Z</time></trkpt><trkpt lat="35.29877443305269" lon="-120.66932586545364"><ele>90.0</ele><time>2026-04-19T21:45:09Z</time></trkpt><trkpt lat="35.298705350256334" lon="-120.66934185033546"><ele>90.0</ele><time>2026-04-19T21:45:13Z</time></trkpt><trkpt lat="35.29863867734441" lon="-120.66934813567119"><ele>90.0</ele><time>2026-04-19T21:45:16Z</time></trkpt><trkpt lat="35.29857154059993" lon="-120.6693640165428"><ele>90.0</ele><time>2026-04-19T21:45:19Z</time></trkpt><trkpt lat="35.298496937142225" lon="-120.66940270756439"><ele>90.0</ele><time>2026-04-19T21:45:22Z</time></trkpt><trkpt lat="35.29842591498991" lon="-120.6694366762237"><ele>90.0</ele><time>2026-04-19T21:45:25Z</time></trkpt><trkpt lat="35.298360598633" lon="-120.66945512008954"><ele>90.0</ele><time>2026-04-19T21:45:28Z</time></trkpt><trkpt lat="35.29828458437236" lon="-120.66945853623935"><ele>90.0</ele><time>2026-04-19T21:45:32Z</time></trkpt><trkpt lat="35.29821281593844" lon="-120.66946096982764"><ele>90.0</ele><time>2026-04-19T21:45:35Z</time></trkpt><trkpt lat="35.29813885814555" lon="-120.6694583714099"><ele>89.16666666666667</ele><time>2026-04-19T21:45:39Z</time></trkpt><trkpt lat="35.29806269703449" lon="-120.66950068636534"><ele>88.33333333333333</ele><time>2026-04-19T21:45:42Z</time></trkpt><trkpt lat="35.298021241445184" lon="-120.66958056688685"><ele>87.5</ele><time>2026-04-19T21:45:45Z</time></trkpt><trkpt lat="35.297961833019635" lon="-120.6696452592228"><ele>86.66666666666666</ele><time>2026-04-19T21:45:48Z</time></trkpt><trkpt lat="35.297889454885386" lon="-120.669674614376"><ele>85.83333333333333</ele><time>2026-04-19T21:45:50Z</time></trkpt><trkpt lat="35.297813426543975" lon="-120.66966696659041"><ele>85.0</ele><time>2026-04-19T21:45:52Z</time></trkpt><trkpt lat="35.29774336195496" lon="-120.66966610355382"><ele>85.0</ele><time>2026-04-19T21:45:54Z</time></trkpt><trkpt lat="35.29767036839777" lon="-120.66965767631432"><ele>85.0</ele><time>2026-04-19T21:45:56Z</time></trkpt><trkpt lat="35.29758826215953" lon="-120.66965294757476"><ele>85.0</ele><time>2026-04-19T21:45:58Z</time></trkpt><trkpt lat="35.297505093383315" lon="-120.66963665498166"><ele>85.0</ele><time>2026-04-19T21:46:00Z</time></trkpt><trkpt lat="35.297431274999035" lon="-120.66963542384609"><ele>85.0</ele><time>2026-04-19T21:46:02Z</time></trkpt><trkpt lat="35.297352119716024" lon="-120.6696340828003"><ele>85.0</ele><time>2026-04-19T21:46:04Z</time></trkpt><trkpt lat="35.29726121189869" lon="-120.66964022207027"><ele>84.4</ele><time>2026-04-19T21:46:06Z</time></trkpt><trkpt lat="35.29717067571229" lon="-120.66964283596067"><ele>83.8</ele><time>2026-04-19T21:46:08Z</time></trkpt><trkpt lat="35.297072462935084" lon="-120.66964669249676"><ele>83.19999999999999</ele><time>2026-04-19T21:46:10Z</time></trkpt><trkpt lat="35.29697283777031" lon="-120.66964406856357"><ele>82.6</ele><time>2026-04-19T21:46:12Z</time></trkpt><trkpt lat="35.29686890212335" lon="-120.66963717417144"><ele>82.0</ele><time>2026-04-19T21:46:14Z</time></trkpt><trkpt lat="35.29676380889782" lon="-120.66963483563373"><ele>82.0</ele><time>2026-04-19T21:46:16Z</time></trkpt><trkpt lat="35.29665227441761" lon="-120.66964069504216"><ele>82.0</ele><time>2026-04-19T21:46:18Z</time></trkpt><trkpt lat="35.296547678168075" lon="-120.66965128160511"><ele>82.0</ele><time>2026-04-19T21:46:20Z</time></trkpt><trkpt lat="35.296449694480756" lon="-120.66965886880092"><ele>82.0</ele><time>2026-04-19T21:46:22Z</time></trkpt><trkpt lat="35.29639726725196" lon="-120.66971660911739"><ele>82.0</ele><time>2026-04-19T21:46:24Z</time></trkpt><trkpt lat="35.296408443690645" lon="-120.66980293368661"><ele>81.99999999999999</ele><time>2026-04-19T21:46:30Z</time></trkpt><trkpt lat="35.296449806729534" lon="-120.66987990627491"><ele>82.0</ele><time>2026-04-19T21:46:35Z</time></trkpt><trkpt lat="35.296416335412225" lon="-120.66995262040585"><ele>82.0</ele><time>2026-04-19T21:46:44Z</time></trkpt><trkpt lat="35.296351490713235" lon="-120.66997316419895"><ele>82.0</ele><time>2026-04-19T21:47:01Z</time></trkpt><trkpt lat="35.296297759466974" lon="-120.66988494425452"><ele>82.0</ele><time>2026-04-19T21:47:07Z</time></trkpt><trkpt lat="35.296251801577725" lon="-120.66982111056845"><ele>81.99999999999999</ele><time>2026-04-19T21:47:09Z</time></trkpt><trkpt lat="35.29619655379075" lon="-120.66975326903172"><ele>82.0</ele><time>2026-04-19T21:47:11Z</time></trkpt><trkpt lat="35.296127449043425" lon="-120.6697018304369"><ele>82.25</ele><time>2026-04-19T21:47:13Z</time></trkpt><trkpt lat="35.29604523844574" lon="-120.66963582554648"><ele>82.5</ele><time>2026-04-19T21:47:15Z</time></trkpt><trkpt lat="35.29594358263621" lon="-120.66957028334105"><ele>82.75</ele><time>2026-04-19T21:47:17Z</time></trkpt><trkpt lat="35.29584053170381" lon="-120.6694942038663"><ele>83.0</ele><time>2026-04-19T21:47:19Z</time></trkpt><trkpt lat="35.29573110421777" lon="-120.66943266317499"><ele>83.16666666666667</ele><time>2026-04-19T21:47:21Z</time></trkpt><trkpt lat="35.29567310449118" lon="-120.66939858193236"><ele>83.33333333333334</ele><time>2026-04-19T21:47:22Z</time></trkpt><trkpt lat="35.29560988143416" lon="-120.66935012768329"><ele>83.5</ele><time>2026-04-19T21:47:23Z</time></trkpt><trkpt lat="35.29555140170015" lon="-120.66928860919604"><ele>83.66666666666667</ele><time>2026-04-19T21:47:24Z</time></trkpt><trkpt lat="35.295488749412385" lon="-120.6692188071715"><ele>83.83333333333333</ele><time>2026-04-19T21:47:25Z</time></trkpt><trkpt lat="35.29542362439502" lon="-120.6691551434536"><ele>84.0</ele><time>2026-04-19T21:47:26Z</time></trkpt><trkpt lat="35.295343694200675" lon="-120.66909783806544"><ele>83.4</ele><time>2026-04-19T21:47:27Z</time></trkpt><trkpt lat="35.29526768107955" lon="-120.66903587547908"><ele>82.80000000000001</ele><time>2026-04-19T21:47:28Z</time></trkpt><trkpt lat="35.295193580890185" lon="-120.6689599948856"><ele>82.19999999999999</ele><time>2026-04-19T21:47:29Z</time></trkpt><trkpt lat="35.29512153557727" lon="-120.66889201276712"><ele>81.6</ele><time>2026-04-19T21:47:30Z</time></trkpt><trkpt lat="35.295051676783686" lon="-120.66882507673914"><ele>81.0</ele><time>2026-04-19T21:47:31Z</time></trkpt><trkpt lat="35.29497878181831" lon="-120.66875984842703"><ele>81.0</ele><time>2026-04-19T21:47:32Z</time></trkpt><trkpt lat="35.29490729172426" lon="-120.66869912100557"><ele>81.0</ele><time>2026-04-19T21:47:33Z</time></trkpt><trkpt lat="35.29483600480605" lon="-120.66864144908513"><ele>81.0</ele><time>2026-04-19T21:47:34Z</time></trkpt><trkpt lat="35.294766129304634" lon="-120.66858384286807"><ele>81.0</ele><time>2026-04-19T21:47:35Z</time></trkpt><trkpt lat="35.2946967909178" lon="-120.66852923597293"><ele>81.0</ele><time>2026-04-19T21:47:36Z</time></trkpt><trkpt lat="35.29462881092153" lon="-120.66847920781632"><ele>81.0</ele><time>2026-04-19T21:47:37Z</time></trkpt><trkpt lat="35.29455937891395" lon="-120.66843067738309"><ele>81.0</ele><time>2026-04-19T21:47:38Z</time></trkpt><trkpt lat="35.294492796940574" lon="-120.66838285411683"><ele>81.0</ele><time>2026-04-19T21:47:39Z</time></trkpt><trkpt lat="35.29442571554829" lon="-120.6683345282695"><ele>81.0</ele><time>2026-04-19T21:47:40Z</time></trkpt><trkpt lat="35.29436226784805" lon="-120.66829310378462"><ele>81.0</ele><time>2026-04-19T21:47:41Z</time></trkpt><trkpt lat="35.29430435083517" lon="-120.66825884623177"><ele>81.0</ele><time>2026-04-19T21:47:42Z</time></trkpt><trkpt lat="35.2942223040594" lon="-120.66821711574433"><ele>81.0</ele><time>2026-04-19T21:47:44Z</time></trkpt><trkpt lat="35.29414708694781" lon="-120.66827666724114"><ele>81.0</ele><time>2026-04-19T21:47:46Z</time></trkpt><trkpt lat="35.29411834209714" lon="-120.66841173693354"><ele>81.0</ele><time>2026-04-19T21:47:48Z</time></trkpt><trkpt lat="35.29413359260001" lon="-120.66856161073335"><ele>81.0</ele><time>2026-04-19T21:47:50Z</time></trkpt><trkpt lat="35.29413121819398" lon="-120.66871056955388"><ele>81.0</ele><time>2026-04-19T21:47:52Z</time></trkpt><trkpt lat="35.29413567880545" lon="-120.66879104828708"><ele>81.0</ele><time>2026-04-19T21:47:53Z</time></trkpt><trkpt lat="35.294135940237084" lon="-120.6688700619215"><ele>81.0</ele><time>2026-04-19T21:47:54Z</time></trkpt><trkpt lat="35.29413719290914" lon="-120.6690245299079"><ele>81.0</ele><time>2026-04-19T21:47:56Z</time></trkpt><trkpt lat="35.29413945115063" lon="-120.66910427521708"><ele>81.0</ele><time>2026-04-19T21:47:57Z</time></trkpt><trkpt lat="35.29414010720453" lon="-120.66918316212703"><ele>81.0</ele><time>2026-04-19T21:47:58Z</time></trkpt><trkpt lat="35.29414344140835" lon="-120.66926384114113"><ele>81.0</ele><time>2026-04-19T21:47:59Z</time></trkpt><trkpt lat="35.29414702675617" lon="-120.6694171690494"><ele>81.0</ele><time>2026-04-19T21:48:01Z</time></trkpt><trkpt lat="35.2941509484351" lon="-120.66949444608181"><ele>81.0</ele><time>2026-04-19T21:48:02Z</time></trkpt><trkpt lat="35.2941504017556" lon="-120.66964193479757"><ele>81.0</ele><time>2026-04-19T21:48:04Z</time></trkpt><trkpt lat="35.29415286870373" lon="-120.66978734572771"><ele>81.0</ele><time>2026-04-19T21:48:06Z</time></trkpt><trkpt lat="35.29415464135822" lon="-120.66992580942927"><ele>81.0</ele><time>2026-04-19T21:48:08Z</time></trkpt><trkpt lat="35.294155807127794" lon="-120.67006445474559"><ele>81.0</ele><time>2026-04-19T21:48:10Z</time></trkpt><trkpt lat="35.29415541561948" lon="-120.6701969495191"><ele>81.0</ele><time>2026-04-19T21:48:12Z</time></trkpt><trkpt lat="35.294159056803935" lon="-120.67032450255861"><ele>81.0</ele><time>2026-04-19T21:48:14Z</time></trkpt><trkpt lat="35.29415655270472" lon="-120.67044900117949"><ele>81.0</ele><time>2026-04-19T21:48:16Z</time></trkpt><trkpt lat="35.29415837000503" lon="-120.6705679876253"><ele>81.0</ele><time>2026-04-19T21:48:18Z</time></trkpt><trkpt lat="35.294151492780806" lon="-120.6706681793791"><ele>80.83333333333333</ele><time>2026-04-19T21:48:20Z</time></trkpt><trkpt lat="35.29410498966082" lon="-120.67072447708047"><ele>80.66666666666667</ele><time>2026-04-19T21:48:22Z</time></trkpt><trkpt lat="35.294031393962044" lon="-120.6707632223335"><ele>80.5</ele><time>2026-04-19T21:48:24Z</time></trkpt><trkpt lat="35.29393472242242" lon="-120.67075016957543"><ele>80.33333333333334</ele><time>2026-04-19T21:48:26Z</time></trkpt><trkpt lat="35.29384920259866" lon="-120.67063457542093"><ele>80.16666666666667</ele><time>2026-04-19T21:48:28Z</time></trkpt><trkpt lat="35.29381711582676" lon="-120.67056156774777"><ele>80.0</ele><time>2026-04-19T21:48:29Z</time></trkpt><trkpt lat="35.293787799375444" lon="-120.67048598859607"><ele>80.0</ele><time>2026-04-19T21:48:30Z</time></trkpt><trkpt lat="35.29375219428809" lon="-120.67041250457838"><ele>80.0</ele><time>2026-04-19T21:48:31Z</time></trkpt><trkpt lat="35.29371125797765" lon="-120.67034265699051"><ele>80.0</ele><time>2026-04-19T21:48:32Z</time></trkpt><trkpt lat="35.293670618944574" lon="-120.67027376376006"><ele>80.0</ele><time>2026-04-19T21:48:33Z</time></trkpt><trkpt lat="35.29362623885571" lon="-120.67020675234522"><ele>80.0</ele><time>2026-04-19T21:48:34Z</time></trkpt><trkpt lat="35.29357753553782" lon="-120.67014258165817"><ele>80.0</ele><time>2026-04-19T21:48:35Z</time></trkpt><trkpt lat="35.29352335605048" lon="-120.67008310599422"><ele>80.0</ele><time>2026-04-19T21:48:36Z</time></trkpt><trkpt lat="35.293466939929985" lon="-120.67002834675546"><ele>80.28571428571428</ele><time>2026-04-19T21:48:37Z</time></trkpt><trkpt lat="35.29340650535738" lon="-120.66997884752968"><ele>80.57142857142857</ele><time>2026-04-19T21:48:38Z</time></trkpt><trkpt lat="35.29334412354961" lon="-120.6699337298779"><ele>80.85714285714286</ele><time>2026-04-19T21:48:39Z</time></trkpt><trkpt lat="35.29327938217371" lon="-120.66988997300223"><ele>81.14285714285714</ele><time>2026-04-19T21:48:40Z</time></trkpt><trkpt lat="35.293212079825686" lon="-120.66985768288127"><ele>81.42857142857143</ele><time>2026-04-19T21:48:41Z</time></trkpt><trkpt lat="35.2931451287406" lon="-120.6698307221583"><ele>81.71428571428571</ele><time>2026-04-19T21:48:42Z</time></trkpt><trkpt lat="35.293077869212965" lon="-120.66980632471993"><ele>82.0</ele><time>2026-04-19T21:48:43Z</time></trkpt><trkpt lat="35.29300793302223" lon="-120.66978657870044"><ele>82.19999999999999</ele><time>2026-04-19T21:48:44Z</time></trkpt><trkpt lat="35.29293913143581" lon="-120.66977410161903"><ele>82.4</ele><time>2026-04-19T21:48:45Z</time></trkpt><trkpt lat="35.29287413770084" lon="-120.66977090098507"><ele>82.6</ele><time>2026-04-19T21:48:46Z</time></trkpt><trkpt lat="35.29275210056119" lon="-120.66976895529451"><ele>82.80000000000001</ele><time>2026-04-19T21:48:48Z</time></trkpt><trkpt lat="35.2926409488994" lon="-120.66976905156984"><ele>83.0</ele><time>2026-04-19T21:48:50Z</time></trkpt><trkpt lat="35.29253680005605" lon="-120.66977533593825"><ele>83.0</ele><time>2026-04-19T21:48:52Z</time></trkpt><trkpt lat="35.2924470554384" lon="-120.66977469206336"><ele>83.0</ele><time>2026-04-19T21:48:54Z</time></trkpt><trkpt lat="35.292369304765444" lon="-120.66977419481418"><ele>83.0</ele><time>2026-04-19T21:48:56Z</time></trkpt><trkpt lat="35.29229691779182" lon="-120.66977205146767"><ele>83.0</ele><time>2026-04-19T21:48:58Z</time></trkpt><trkpt lat="35.29222320647647" lon="-120.6697693318964"><ele>83.0</ele><time>2026-04-19T21:49:00Z</time></trkpt><trkpt lat="35.29215268126571" lon="-120.6697710681137"><ele>83.0</ele><time>2026-04-19T21:49:02Z</time></trkpt><trkpt lat="35.29208294382528" lon="-120.66976970046933"><ele>83.0</ele><time>2026-04-19T21:49:04Z</time></trkpt><trkpt lat="35.29200763878092" lon="-120.66977023266209"><ele>83.0</ele><time>2026-04-19T21:49:06Z</time></trkpt><trkpt lat="35.29192994286398" lon="-120.66977118455861"><ele>83.0</ele><time>2026-04-19T21:49:08Z</time></trkpt><trkpt lat="35.29184940349018" lon="-120.66977361975991"><ele>83.0</ele><time>2026-04-19T21:49:10Z</time></trkpt><trkpt lat="35.29176396858688" lon="-120.6697697175934"><ele>83.0</ele><time>2026-04-19T21:49:12Z</time></trkpt><trkpt lat="35.29166945318364" lon="-120.66977223479016"><ele>83.0</ele><time>2026-04-19T21:49:14Z</time></trkpt><trkpt lat="35.291570714487136" lon="-120.66977343722884"><ele>83.0</ele><time>2026-04-19T21:49:16Z</time></trkpt><trkpt lat="35.29146471149797" lon="-120.66977004753925"><ele>83.0</ele><time>2026-04-19T21:49:18Z</time></trkpt><trkpt lat="35.291350082043856" lon="-120.66976722687293"><ele>83.0</ele><time>2026-04-19T21:49:20Z</time></trkpt><trkpt lat="35.291223485960536" lon="-120.6697677999222"><ele>83.0</ele><time>2026-04-19T21:49:22Z</time></trkpt><trkpt lat="35.29115251210683" lon="-120.66976731223737"><ele>83.0</ele><time>2026-04-19T21:49:23Z</time></trkpt><trkpt lat="35.29107679204149" lon="-120.66976758677505"><ele>82.4</ele><time>2026-04-19T21:49:24Z</time></trkpt><trkpt lat="35.29099076798111" lon="-120.6697708815637"><ele>81.80000000000001</ele><time>2026-04-19T21:49:25Z</time></trkpt><trkpt lat="35.29089419722752" lon="-120.66977535015978"><ele>81.2</ele><time>2026-04-19T21:49:26Z</time></trkpt><trkpt lat="35.29078627575206" lon="-120.66977847178772"><ele>80.6</ele><time>2026-04-19T21:49:27Z</time></trkpt><trkpt lat="35.29068031252224" lon="-120.66977316933418"><ele>80.0</ele><time>2026-04-19T21:49:28Z</time></trkpt><trkpt lat="35.29056938914028" lon="-120.66977049035508"><ele>78.25</ele><time>2026-04-19T21:49:29Z</time></trkpt><trkpt lat="35.2904517733304" lon="-120.66976893512908"><ele>76.5</ele><time>2026-04-19T21:49:30Z</time></trkpt><trkpt lat="35.29033198586932" lon="-120.66975425348946"><ele>74.75</ele><time>2026-04-19T21:49:31Z</time></trkpt><trkpt lat="35.29021027676246" lon="-120.66972932404738"><ele>73.0</ele><time>2026-04-19T21:49:32Z</time></trkpt><trkpt lat="35.29009069590891" lon="-120.66969746868084"><ele>73.0</ele><time>2026-04-19T21:49:33Z</time></trkpt><trkpt lat="35.28997315193904" lon="-120.6696614603082"><ele>73.0</ele><time>2026-04-19T21:49:34Z</time></trkpt><trkpt lat="35.28985531037611" lon="-120.66963124434659"><ele>73.0</ele><time>2026-04-19T21:49:35Z</time></trkpt><trkpt lat="35.28973749137208" lon="-120.66960187842818"><ele>73.0</ele><time>2026-04-19T21:49:36Z</time></trkpt><trkpt lat="35.289619582267065" lon="-120.66957392053732"><ele>72.75</ele><time>2026-04-19T21:49:37Z</time></trkpt><trkpt lat="35.28950067387842" lon="-120.66954951370451"><ele>72.5</ele><time>2026-04-19T21:49:38Z</time></trkpt><trkpt lat="35.28938496837903" lon="-120.6695249926472"><ele>72.25</ele><time>2026-04-19T21:49:39Z</time></trkpt><trkpt lat="35.28927029312307" lon="-120.66949630706705"><ele>72.0</ele><time>2026-04-19T21:49:40Z</time></trkpt><trkpt lat="35.28915907612907" lon="-120.66946619573584"><ele>71.6</ele><time>2026-04-19T21:49:41Z</time></trkpt><trkpt lat="35.28904833552502" lon="-120.6694378482012"><ele>71.2</ele><time>2026-04-19T21:49:42Z</time></trkpt><trkpt lat="35.28894123572047" lon="-120.66940832772362"><ele>70.8</ele><time>2026-04-19T21:49:43Z</time></trkpt><trkpt lat="35.28883724003793" lon="-120.66937705301616"><ele>70.4</ele><time>2026-04-19T21:49:44Z</time></trkpt><trkpt lat="35.288739128447176" lon="-120.66934283460971"><ele>70.0</ele><time>2026-04-19T21:49:45Z</time></trkpt><trkpt lat="35.288644467829954" lon="-120.66930426317364"><ele>70.0</ele><time>2026-04-19T21:49:46Z</time></trkpt><trkpt lat="35.28854705672628" lon="-120.66926341850849"><ele>70.0</ele><time>2026-04-19T21:49:47Z</time></trkpt><trkpt lat="35.288451850622" lon="-120.6692284209871"><ele>70.0</ele><time>2026-04-19T21:49:48Z</time></trkpt><trkpt lat="35.28835314295115" lon="-120.6692044056461"><ele>70.0</ele><time>2026-04-19T21:49:49Z</time></trkpt><trkpt lat="35.28825337852878" lon="-120.66918234670769"><ele>70.0</ele><time>2026-04-19T21:49:50Z</time></trkpt><trkpt lat="35.28815853527868" lon="-120.66914670258619"><ele>69.6</ele><time>2026-04-19T21:49:51Z</time></trkpt><trkpt lat="35.28806503614158" lon="-120.66910594063073"><ele>69.2</ele><time>2026-04-19T21:49:52Z</time></trkpt><trkpt lat="35.28797178039092" lon="-120.6690707923161"><ele>68.8</ele><time>2026-04-19T21:49:53Z</time></trkpt><trkpt lat="35.287880115040146" lon="-120.66903592320882"><ele>68.4</ele><time>2026-04-19T21:49:54Z</time></trkpt><trkpt lat="35.287790937781864" lon="-120.66899845547073"><ele>68.0</ele><time>2026-04-19T21:49:55Z</time></trkpt><trkpt lat="35.28770058777794" lon="-120.66896118066529"><ele>68.0</ele><time>2026-04-19T21:49:56Z</time></trkpt><trkpt lat="35.287612022454475" lon="-120.6689259261586"><ele>68.0</ele><time>2026-04-19T21:49:57Z</time></trkpt><trkpt lat="35.28752374516001" lon="-120.66889122294609"><ele>68.0</ele><time>2026-04-19T21:49:58Z</time></trkpt><trkpt lat="35.2874359539096" lon="-120.66885431802717"><ele>68.0</ele><time>2026-04-19T21:49:59Z</time></trkpt><trkpt lat="35.2873500137284" lon="-120.66881667114637"><ele>68.0</ele><time>2026-04-19T21:50:00Z</time></trkpt><trkpt lat="35.28726372738584" lon="-120.66878124913708"><ele>67.6</ele><time>2026-04-19T21:50:01Z</time></trkpt><trkpt lat="35.287178461656005" lon="-120.6687460378009"><ele>67.19999999999999</ele><time>2026-04-19T21:50:02Z</time></trkpt><trkpt lat="35.287092184486106" lon="-120.6687120049963"><ele>66.8</ele><time>2026-04-19T21:50:03Z</time></trkpt><trkpt lat="35.287003800706906" lon="-120.6686802975288"><ele>66.39999999999999</ele><time>2026-04-19T21:50:04Z</time></trkpt><trkpt lat="35.286913409396746" lon="-120.66864658168767"><ele>66.0</ele><time>2026-04-19T21:50:05Z</time></trkpt><trkpt lat="35.286824882111155" lon="-120.66861213426323"><ele>65.8</ele><time>2026-04-19T21:50:06Z</time></trkpt><trkpt lat="35.28673523309206" lon="-120.6685742673769"><ele>65.6</ele><time>2026-04-19T21:50:07Z</time></trkpt><trkpt lat="35.28664378498489" lon="-120.66853712127596"><ele>65.4</ele><time>2026-04-19T21:50:08Z</time></trkpt><trkpt lat="35.28655845899223" lon="-120.6684999794987"><ele>65.2</ele><time>2026-04-19T21:50:09Z</time></trkpt><trkpt lat="35.286466260022806" lon="-120.66846415197757"><ele>65.0</ele><time>2026-04-19T21:50:10Z</time></trkpt><trkpt lat="35.286377308776444" lon="-120.66842933922051"><ele>64.83333333333334</ele><time>2026-04-19T21:50:11Z</time></trkpt><trkpt lat="35.28628702074966" lon="-120.66839173396487"><ele>64.66666666666667</ele><time>2026-04-19T21:50:12Z</time></trkpt><trkpt lat="35.28619660143617" lon="-120.6683564130272"><ele>64.5</ele><time>2026-04-19T21:50:13Z</time></trkpt><trkpt lat="35.28610694191103" lon="-120.66832187728023"><ele>64.33333333333333</ele><time>2026-04-19T21:50:14Z</time></trkpt><trkpt lat="35.286033188186835" lon="-120.66829067955699"><ele>64.16666666666666</ele><time>2026-04-19T21:50:15Z</time></trkpt><trkpt lat="35.285969348905596" lon="-120.66825251224007"><ele>64.0</ele><time>2026-04-19T21:50:16Z</time></trkpt><trkpt lat="35.285906117901106" lon="-120.66821194063253"><ele>63.99999999999999</ele><time>2026-04-19T21:50:17Z</time></trkpt><trkpt lat="35.285836292489165" lon="-120.66817587631735"><ele>64.0</ele><time>2026-04-19T21:50:18Z</time></trkpt><trkpt lat="35.28576904313274" lon="-120.66812919084393"><ele>64.0</ele><time>2026-04-19T21:50:19Z</time></trkpt><trkpt lat="35.28570364742814" lon="-120.66807177569646"><ele>64.0</ele><time>2026-04-19T21:50:20Z</time></trkpt><trkpt lat="35.28564061286302" lon="-120.66801239061219"><ele>63.99999999999999</ele><time>2026-04-19T21:50:21Z</time></trkpt><trkpt lat="35.28557959249799" lon="-120.66795489204715"><ele>64.0</ele><time>2026-04-19T21:50:22Z</time></trkpt><trkpt lat="35.285515847185835" lon="-120.66789759384933"><ele>63.99999999999999</ele><time>2026-04-19T21:50:23Z</time></trkpt><trkpt lat="35.28545449521442" lon="-120.66784162385873"><ele>64.0</ele><time>2026-04-19T21:50:24Z</time></trkpt><trkpt lat="35.285391366509536" lon="-120.66778569596599"><ele>64.0</ele><time>2026-04-19T21:50:25Z</time></trkpt><trkpt lat="35.285328490092716" lon="-120.66773150662874"><ele>64.0</ele><time>2026-04-19T21:50:26Z</time></trkpt><trkpt lat="35.28526580029269" lon="-120.66767302025386"><ele>63.99999999999999</ele><time>2026-04-19T21:50:27Z</time></trkpt><trkpt lat="35.285206371106646" lon="-120.66761707270729"><ele>64.0</ele><time>2026-04-19T21:50:28Z</time></trkpt><trkpt lat="35.28514904269614" lon="-120.66756297795143"><ele>64.16666666666666</ele><time>2026-04-19T21:50:29Z</time></trkpt><trkpt lat="35.285087250415835" lon="-120.66750933373082"><ele>64.33333333333333</ele><time>2026-04-19T21:50:30Z</time></trkpt><trkpt lat="35.285022443315384" lon="-120.66746123454078"><ele>64.5</ele><time>2026-04-19T21:50:31Z</time></trkpt><trkpt lat="35.284958793540454" lon="-120.66740934859249"><ele>64.66666666666667</ele><time>2026-04-19T21:50:32Z</time></trkpt><trkpt lat="35.28489410111024" lon="-120.66735240219901"><ele>64.83333333333334</ele><time>2026-04-19T21:50:33Z</time></trkpt><trkpt lat="35.28483087844049" lon="-120.66729141706605"><ele>65.0</ele><time>2026-04-19T21:50:34Z</time></trkpt><trkpt lat="35.284765589233736" lon="-120.66723213733319"><ele>65.16666666666667</ele><time>2026-04-19T21:50:35Z</time></trkpt><trkpt lat="35.284701704773205" lon="-120.66717546000525"><ele>65.33333333333334</ele><time>2026-04-19T21:50:36Z</time></trkpt><trkpt lat="35.28463724572393" lon="-120.66711856549988"><ele>65.5</ele><time>2026-04-19T21:50:37Z</time></trkpt><trkpt lat="35.284573994065305" lon="-120.66706161767614"><ele>65.66666666666667</ele><time>2026-04-19T21:50:38Z</time></trkpt><trkpt lat="35.284508640248575" lon="-120.6670050078007"><ele>65.83333333333333</ele><time>2026-04-19T21:50:39Z</time></trkpt><trkpt lat="35.28444049228776" lon="-120.66694903756293"><ele>66.0</ele><time>2026-04-19T21:50:40Z</time></trkpt><trkpt lat="35.284371981951665" lon="-120.66688961232546"><ele>66.0</ele><time>2026-04-19T21:50:41Z</time></trkpt><trkpt lat="35.28430340699403" lon="-120.66682682275163"><ele>66.0</ele><time>2026-04-19T21:50:42Z</time></trkpt><trkpt lat="35.28423339282039" lon="-120.66676567812033"><ele>66.0</ele><time>2026-04-19T21:50:43Z</time></trkpt><trkpt lat="35.284156538044144" lon="-120.66670180753798"><ele>66.0</ele><time>2026-04-19T21:50:44Z</time></trkpt><trkpt lat="35.2840924548706" lon="-120.66664420883808"><ele>66.0</ele><time>2026-04-19T21:50:45Z</time></trkpt><trkpt lat="35.284024585083706" lon="-120.66658978868891"><ele>66.0</ele><time>2026-04-19T21:50:46Z</time></trkpt><trkpt lat="35.28396964519062" lon="-120.66652941066171"><ele>65.16666666666667</ele><time>2026-04-19T21:50:47Z</time></trkpt><trkpt lat="35.283888625502996" lon="-120.66646298338672"><ele>64.33333333333333</ele><time>2026-04-19T21:50:48Z</time></trkpt><trkpt lat="35.28381656367572" lon="-120.6664007678006"><ele>63.5</ele><time>2026-04-19T21:50:49Z</time></trkpt><trkpt lat="35.283751260949515" lon="-120.66634320153436"><ele>62.666666666666664</ele><time>2026-04-19T21:50:50Z</time></trkpt><trkpt lat="35.28368675407938" lon="-120.66628434003609"><ele>61.83333333333333</ele><time>2026-04-19T21:50:51Z</time></trkpt><trkpt lat="35.28362539500801" lon="-120.66622871897982"><ele>61.0</ele><time>2026-04-19T21:50:52Z</time></trkpt><trkpt lat="35.283563503970306" lon="-120.66617717511511"><ele>60.99999999999999</ele><time>2026-04-19T21:50:53Z</time></trkpt><trkpt lat="35.28350776697942" lon="-120.66612100489323"><ele>61.0</ele><time>2026-04-19T21:50:54Z</time></trkpt><trkpt lat="35.28344947349245" lon="-120.66606672771611"><ele>60.99999999999999</ele><time>2026-04-19T21:50:55Z</time></trkpt><trkpt lat="35.28338806889198" lon="-120.66601174579097"><ele>60.99999999999999</ele><time>2026-04-19T21:50:56Z</time></trkpt><trkpt lat="35.283332374399876" lon="-120.66595515785527"><ele>61.0</ele><time>2026-04-19T21:50:57Z</time></trkpt><trkpt lat="35.283268559524245" lon="-120.66590605473948"><ele>60.99999999999999</ele><time>2026-04-19T21:50:58Z</time></trkpt><trkpt lat="35.28320539991794" lon="-120.66585676796012"><ele>60.99999999999999</ele><time>2026-04-19T21:50:59Z</time></trkpt><trkpt lat="35.28314756154775" lon="-120.66580118451922"><ele>61.428571428571416</ele><time>2026-04-19T21:51:00Z</time></trkpt><trkpt lat="35.283086005056845" lon="-120.66574585894153"><ele>61.857142857142854</ele><time>2026-04-19T21:51:01Z</time></trkpt><trkpt lat="35.283022197868746" lon="-120.66569095800592"><ele>62.28571428571428</ele><time>2026-04-19T21:51:02Z</time></trkpt><trkpt lat="35.282957948938524" lon="-120.66563975525641"><ele>62.71428571428571</ele><time>2026-04-19T21:51:03Z</time></trkpt><trkpt lat="35.28289444520478" lon="-120.66558699195649"><ele>63.14285714285714</ele><time>2026-04-19T21:51:04Z</time></trkpt><trkpt lat="35.28283234129778" lon="-120.66553966738952"><ele>63.57142857142857</ele><time>2026-04-19T21:51:05Z</time></trkpt><trkpt lat="35.28277997643868" lon="-120.66548745001148"><ele>64.0</ele><time>2026-04-19T21:51:06Z</time></trkpt><trkpt lat="35.282728605563115" lon="-120.6654375851059"><ele>63.99999999999999</ele><time>2026-04-19T21:51:07Z</time></trkpt><trkpt lat="35.282625670855694" lon="-120.66535930897989"><ele>64.0</ele><time>2026-04-19T21:51:09Z</time></trkpt><trkpt lat="35.282539791645895" lon="-120.66528386672219"><ele>64.0</ele><time>2026-04-19T21:51:11Z</time></trkpt><trkpt lat="35.28247645417072" lon="-120.66522594844636"><ele>64.0</ele><time>2026-04-19T21:51:13Z</time></trkpt><trkpt lat="35.28242132095579" lon="-120.66517612974715"><ele>63.99999999999999</ele><time>2026-04-19T21:51:15Z</time></trkpt><trkpt lat="35.282369519353324" lon="-120.66512878625431"><ele>64.0</ele><time>2026-04-19T21:51:17Z</time></trkpt><trkpt lat="35.28231821892458" lon="-120.66507512355761"><ele>64.66666666666666</ele><time>2026-04-19T21:51:20Z</time></trkpt><trkpt lat="35.28225727469951" lon="-120.66502228954381"><ele>65.33333333333333</ele><time>2026-04-19T21:51:22Z</time></trkpt><trkpt lat="35.282195764149975" lon="-120.66497406824064"><ele>66.0</ele><time>2026-04-19T21:51:23Z</time></trkpt><trkpt lat="35.28212510336425" lon="-120.6649034959489"><ele>66.66666666666667</ele><time>2026-04-19T21:51:25Z</time></trkpt><trkpt lat="35.282049081813696" lon="-120.66483159681196"><ele>67.33333333333334</ele><time>2026-04-19T21:51:27Z</time></trkpt><trkpt lat="35.28198800874844" lon="-120.66477595458453"><ele>68.0</ele><time>2026-04-19T21:51:29Z</time></trkpt><trkpt lat="35.28190895297663" lon="-120.66470902895729"><ele>68.0</ele><time>2026-04-19T21:51:31Z</time></trkpt><trkpt lat="35.281825683917724" lon="-120.66463236866453"><ele>68.0</ele><time>2026-04-19T21:51:33Z</time></trkpt><trkpt lat="35.28175762336183" lon="-120.66456375419371"><ele>68.0</ele><time>2026-04-19T21:51:35Z</time></trkpt><trkpt lat="35.28165307918738" lon="-120.66447521280938"><ele>68.0</ele><time>2026-04-19T21:51:36Z</time></trkpt><trkpt lat="35.281560342406976" lon="-120.66439336474184"><ele>68.0</ele><time>2026-04-19T21:51:38Z</time></trkpt><trkpt lat="35.281458559952455" lon="-120.6643031514897"><ele>68.57142857142857</ele><time>2026-04-19T21:51:40Z</time></trkpt><trkpt lat="35.281407243112696" lon="-120.66425726382306"><ele>69.14285714285714</ele><time>2026-04-19T21:51:41Z</time></trkpt><trkpt lat="35.28134585483524" lon="-120.66422183329993"><ele>69.71428571428572</ele><time>2026-04-19T21:51:42Z</time></trkpt><trkpt lat="35.2812892881748" lon="-120.66417624367585"><ele>70.28571428571428</ele><time>2026-04-19T21:51:43Z</time></trkpt><trkpt lat="35.2812375806847" lon="-120.66410622662217"><ele>70.85714285714286</ele><time>2026-04-19T21:51:44Z</time></trkpt><trkpt lat="35.281178835803466" lon="-120.66405392425574"><ele>71.42857142857143</ele><time>2026-04-19T21:51:45Z</time></trkpt><trkpt lat="35.28112009350243" lon="-120.66400162418654"><ele>72.0</ele><time>2026-04-19T21:51:46Z</time></trkpt><trkpt lat="35.2810480554782" lon="-120.663971579336"><ele>72.0</ele><time>2026-04-19T21:51:47Z</time></trkpt><trkpt lat="35.28098848563064" lon="-120.66392133088759"><ele>72.0</ele><time>2026-04-19T21:51:48Z</time></trkpt><trkpt lat="35.28092589269132" lon="-120.66386583002173"><ele>72.0</ele><time>2026-04-19T21:51:49Z</time></trkpt><trkpt lat="35.28086402478774" lon="-120.66380504096196"><ele>72.0</ele><time>2026-04-19T21:51:50Z</time></trkpt><trkpt lat="35.280801922532156" lon="-120.6637472061832"><ele>72.0</ele><time>2026-04-19T21:51:51Z</time></trkpt><trkpt lat="35.280732981584045" lon="-120.66368166044457"><ele>72.0</ele><time>2026-04-19T21:51:52Z</time></trkpt><trkpt lat="35.2806603121775" lon="-120.66361698040838"><ele>71.83333333333333</ele><time>2026-04-19T21:51:53Z</time></trkpt><trkpt lat="35.280601772464756" lon="-120.66354193228379"><ele>71.66666666666667</ele><time>2026-04-19T21:51:54Z</time></trkpt><trkpt lat="35.28052709165011" lon="-120.66347222143047"><ele>71.5</ele><time>2026-04-19T21:51:55Z</time></trkpt><trkpt lat="35.280454923953215" lon="-120.66340111755075"><ele>71.33333333333334</ele><time>2026-04-19T21:51:56Z</time></trkpt><trkpt lat="35.28038308232861" lon="-120.66332707505903"><ele>71.16666666666667</ele><time>2026-04-19T21:51:57Z</time></trkpt><trkpt lat="35.2803105017503" lon="-120.66327688779678"><ele>71.0</ele><time>2026-04-19T21:51:58Z</time></trkpt><trkpt lat="35.28023838948793" lon="-120.66322323417745"><ele>70.66666666666667</ele><time>2026-04-19T21:51:59Z</time></trkpt><trkpt lat="35.2801682494068" lon="-120.66317056120413"><ele>70.33333333333334</ele><time>2026-04-19T21:52:00Z</time></trkpt><trkpt lat="35.28010455016318" lon="-120.66311510342065"><ele>70.0</ele><time>2026-04-19T21:52:01Z</time></trkpt><trkpt lat="35.28004158637938" lon="-120.66306610869496"><ele>69.66666666666667</ele><time>2026-04-19T21:52:02Z</time></trkpt><trkpt lat="35.2799514614132" lon="-120.66300484356584"><ele>69.33333333333333</ele><time>2026-04-19T21:52:04Z</time></trkpt><trkpt lat="35.279876888988255" lon="-120.66297168991503"><ele>69.0</ele><time>2026-04-19T21:52:06Z</time></trkpt><trkpt lat="35.27980435034947" lon="-120.66306026206719"><ele>68.66666666666667</ele><time>2026-04-19T21:52:08Z</time></trkpt><trkpt lat="35.279731490373074" lon="-120.66316444041209"><ele>68.33333333333333</ele><time>2026-04-19T21:52:10Z</time></trkpt><trkpt lat="35.27964617287024" lon="-120.66328064852786"><ele>68.0</ele><time>2026-04-19T21:52:12Z</time></trkpt><trkpt lat="35.27960936924698" lon="-120.66334484690194"><ele>67.66666666666666</ele><time>2026-04-19T21:52:13Z</time></trkpt><trkpt lat="35.27957131385" lon="-120.66340631774969"><ele>67.33333333333333</ele><time>2026-04-19T21:52:14Z</time></trkpt><trkpt lat="35.279527245289664" lon="-120.66348136909286"><ele>67.0</ele><time>2026-04-19T21:52:15Z</time></trkpt><trkpt lat="35.27947842472114" lon="-120.66355610592647"><ele>67.0</ele><time>2026-04-19T21:52:16Z</time></trkpt><trkpt lat="35.27943096971327" lon="-120.66361735308341"><ele>67.0</ele><time>2026-04-19T21:52:17Z</time></trkpt><trkpt lat="35.279391584688824" lon="-120.66369388574905"><ele>67.0</ele><time>2026-04-19T21:52:18Z</time></trkpt><trkpt lat="35.279347110204206" lon="-120.66376999403037"><ele>67.0</ele><time>2026-04-19T21:52:19Z</time></trkpt><trkpt lat="35.279304006008104" lon="-120.66384470613527"><ele>67.0</ele><time>2026-04-19T21:52:20Z</time></trkpt><trkpt lat="35.279252980423465" lon="-120.66391393081167"><ele>67.0</ele><time>2026-04-19T21:52:21Z</time></trkpt><trkpt lat="35.27919955194511" lon="-120.66397788971524"><ele>67.0</ele><time>2026-04-19T21:52:22Z</time></trkpt><trkpt lat="35.27914904868159" lon="-120.66404585533941"><ele>67.0</ele><time>2026-04-19T21:52:23Z</time></trkpt><trkpt lat="35.279102872591004" lon="-120.6641230486117"><ele>67.0</ele><time>2026-04-19T21:52:24Z</time></trkpt><trkpt lat="35.27905869327509" lon="-120.66420014876934"><ele>67.0</ele><time>2026-04-19T21:52:25Z</time></trkpt><trkpt lat="35.27901440231276" lon="-120.66427052381687"><ele>67.0</ele><time>2026-04-19T21:52:26Z</time></trkpt><trkpt lat="35.278975854051396" lon="-120.66433842144477"><ele>67.0</ele><time>2026-04-19T21:52:27Z</time></trkpt><trkpt lat="35.27890374364861" lon="-120.66445610317072"><ele>67.0</ele><time>2026-04-19T21:52:29Z</time></trkpt><trkpt lat="35.278808114048886" lon="-120.66449247645794"><ele>66.6</ele><time>2026-04-19T21:52:31Z</time></trkpt><trkpt lat="35.27872540911336" lon="-120.66438462672424"><ele>66.2</ele><time>2026-04-19T21:52:33Z</time></trkpt><trkpt lat="35.27864551986977" lon="-120.66430389352809"><ele>65.8</ele><time>2026-04-19T21:52:35Z</time></trkpt><trkpt lat="35.278545708192325" lon="-120.66421822381956"><ele>65.4</ele><time>2026-04-19T21:52:37Z</time></trkpt><trkpt lat="35.27848421705458" lon="-120.66415935647326"><ele>65.0</ele><time>2026-04-19T21:52:38Z</time></trkpt><trkpt lat="35.2784243876128" lon="-120.66411044098143"><ele>65.0</ele><time>2026-04-19T21:52:39Z</time></trkpt><trkpt lat="35.27836261474661" lon="-120.66405607467992"><ele>65.0</ele><time>2026-04-19T21:52:40Z</time></trkpt><trkpt lat="35.27829577612941" lon="-120.66399683824602"><ele>65.0</ele><time>2026-04-19T21:52:41Z</time></trkpt><trkpt lat="35.27822377318771" lon="-120.66391958815097"><ele>65.0</ele><time>2026-04-19T21:52:42Z</time></trkpt><trkpt lat="35.27815752164136" lon="-120.66385055458697"><ele>65.0</ele><time>2026-04-19T21:52:43Z</time></trkpt><trkpt lat="35.27808153488841" lon="-120.66377975312628"><ele>65.0</ele><time>2026-04-19T21:52:44Z</time></trkpt><trkpt lat="35.27799988651316" lon="-120.66371578783567"><ele>64.83333333333334</ele><time>2026-04-19T21:52:45Z</time></trkpt><trkpt lat="35.277918022600275" lon="-120.66364924690598"><ele>64.66666666666667</ele><time>2026-04-19T21:52:46Z</time></trkpt><trkpt lat="35.27784577756522" lon="-120.66358609554945"><ele>64.5</ele><time>2026-04-19T21:52:47Z</time></trkpt><trkpt lat="35.277774319756304" lon="-120.66352028278149"><ele>64.33333333333333</ele><time>2026-04-19T21:52:48Z</time></trkpt><trkpt lat="35.27770323579787" lon="-120.66345899441936"><ele>64.16666666666666</ele><time>2026-04-19T21:52:49Z</time></trkpt><trkpt lat="35.27763849468698" lon="-120.66339901289179"><ele>64.0</ele><time>2026-04-19T21:52:50Z</time></trkpt><trkpt lat="35.27757690240689" lon="-120.66334069145539"><ele>64.0</ele><time>2026-04-19T21:52:51Z</time></trkpt><trkpt lat="35.277525134918356" lon="-120.66327687435621"><ele>64.0</ele><time>2026-04-19T21:52:52Z</time></trkpt><trkpt lat="35.277466546267114" lon="-120.6632306391977"><ele>64.0</ele><time>2026-04-19T21:52:53Z</time></trkpt><trkpt lat="35.27738362459254" lon="-120.66315642454765"><ele>64.0</ele><time>2026-04-19T21:52:55Z</time></trkpt><trkpt lat="35.27748078287923" lon="-120.66297739568702"><ele>64.0</ele><time>2026-04-19T21:52:56Z</time></trkpt><trkpt lat="35.277534851291186" lon="-120.66291136644912"><ele>64.0</ele><time>2026-04-19T21:52:57Z</time></trkpt><trkpt lat="35.27757004670256" lon="-120.66283808139293"><ele>64.0</ele><time>2026-04-19T21:52:58Z</time></trkpt><trkpt lat="35.27764109684919" lon="-120.66273376185892"><ele>64.0</ele><time>2026-04-19T21:53:00Z</time></trkpt><trkpt lat="35.27765231133179" lon="-120.66265270725621"><ele>64.0</ele><time>2026-04-19T21:53:02Z</time></trkpt><trkpt lat="35.27781868235924" lon="-120.662117980965"><ele>65.0</ele><time>2026-04-19T21:53:03Z</time></trkpt><trkpt lat="35.2775018738026" lon="-120.66256776520365"><ele>65.0</ele><time>2026-04-19T21:53:04Z</time></trkpt><trkpt lat="35.27752227665881" lon="-120.66249390809553"><ele>65.0</ele><time>2026-04-19T21:53:24Z</time></trkpt></trkseg></trk></gpx>